GFSGBSN_sfc_dewp_000.txt.gz
Dewpoint
59 58 57 57 55 54 52 52 52 52 52 51 51 52 52 52 52 52 52 53 54 54 55 55 56 56 53 46 42 43 52 50 51 52 52 55 48 44 43 43 43 42 42 42 42 42 42
58 58 58 57 56 56 54 52 52 52 53 53 52 52 52 52 53 52 53 52 53 54 54 54 55 55 48 41 43 45 44 43 50 51 52 55 50 45 44 43 42 43 43 43 41 39 37
58 57 57 56 56 56 55 52 52 53 53 53 53 53 52 52 52 52 53 52 52 54 54 54 55 52 47 41 43 46 46 42 47 51 50 56 56 45 45 43 44 43 41 39 37 37 37
59 57 56 56 56 56 55 53 53 53 53 53 53 53 53 53 52 53 53 53 53 54 54 54 54 49 42 47 46 44 45 46 48 52 52 58 57 47 45 43 36 37 36 34 36 34 34
58 58 56 56 56 56 56 55 53 53 53 53 53 52 52 53 54 55 54 54 54 53 52 53 50 47 40 48 45 45 44 43 49 51 55 57 53 47 46 40 35 33 32 31 32 32 32
58 58 58 57 56 56 56 56 54 53 52 53 53 53 51 53 54 55 55 53 53 51 50 49 47 42 42 41 45 45 46 44 47 49 50 55 51 46 45 41 38 34 31 32 30 31 31
57 57 57 58 57 56 55 56 54 53 53 53 54 54 53 53 53 56 55 51 44 43 45 41 40 40 42 42 46 45 44 42 46 47 45 51 46 43 43 43 40 36 32 33 30 29 28
56 57 57 57 56 56 55 54 54 52 53 53 55 55 54 53 55 56 53 44 41 44 39 42 44 41 43 46 43 43 43 43 44 36 45 47 42 44 44 43 41 33 31 30 32 31 28
56 57 56 57 57 56 55 54 54 53 52 53 55 54 54 55 56 55 49 43 52 47 39 41 41 42 42 43 42 42 42 43 42 33 42 41 44 44 44 39 37 33 32 33 33 31 30
57 57 57 57 57 57 56 55 54 54 54 55 55 54 54 55 52 52 48 50 53 48 35 37 38 41 43 44 40 44 42 43 42 34 41 44 45 45 42 42 41 39 34 33 30 29 26
58 58 58 58 57 57 57 56 55 54 55 55 55 54 55 55 52 50 51 52 52 49 21 35 38 43 44 40 41 43 43 42 41 38 43 42 44 45 43 42 42 40 35 33 32 28 25
58 58 58 58 58 57 57 57 56 55 55 55 55 55 55 54 53 53 54 52 48 34 23 34 40 38 38 38 41 44 44 48 45 40 40 40 44 45 45 44 40 37 32 29 29 26 24
59 58 59 58 58 58 58 57 57 56 55 55 54 54 53 54 50 55 53 47 33 28 36 34 34 37 36 37 39 41 40 40 38 36 37 36 42 39 41 34 33 33 30 29 25 24 24
58 58 58 58 58 58 57 57 57 56 56 55 54 54 53 53 55 54 50 39 30 35 32 37 37 35 35 36 38 38 41 40 43 35 35 35 35 33 30 38 36 33 30 26 23 23 23
58 57 58 58 57 58 58 57 56 57 56 55 54 49 51 53 55 52 42 33 34 35 37 37 36 32 35 35 40 41 39 39 41 35 32 34 34 27 27 28 37 29 27 29 27 25 26
58 57 57 57 56 57 58 56 56 56 56 55 48 46 47 53 55 49 39 35 40 41 39 36 32 35 35 35 39 38 39 41 40 38 34 31 24 29 26 25 24 27 28 26 27 24 23
57 57 57 57 57 57 57 56 56 56 56 54 47 42 51 54 54 46 37 36 42 41 40 37 37 36 36 35 39 37 38 40 39 35 33 29 27 29 26 26 24 23 23 25 27 26 22
57 56 56 57 56 56 57 56 55 56 54 48 44 39 52 53 44 45 40 45 42 43 47 44 40 38 36 36 37 38 38 37 39 40 35 33 29 25 26 32 28 25 23 25 25 22 23
57 56 56 56 55 55 56 56 55 55 53 44 41 47 52 52 42 42 45 44 44 43 45 44 37 38 35 34 36 39 41 41 42 40 37 36 31 30 30 32 33 30 26 24 25 25 22
56 56 56 56 55 55 55 55 54 55 54 45 42 40 47 48 46 42 43 42 43 47 46 43 39 38 36 37 39 38 39 40 41 40 45 39 32 28 28 28 31 30 28 26 25 24 23
56 56 56 56 55 54 55 54 54 55 55 46 40 37 41 38 40 38 40 43 43 42 44 41 40 36 36 35 36 37 37 36 37 42 36 34 29 29 26 30 31 29 29 26 25 25 25
56 56 55 55 55 55 54 54 54 54 52 44 38 37 38 36 35 35 36 38 37 36 38 40 39 39 37 36 36 37 36 36 35 34 33 33 27 25 21 24 22 25 28 28 27 26 25
55 55 55 55 54 54 54 54 54 54 50 42 41 42 36 35 32 32 34 36 35 35 37 38 38 37 32 33 32 35 34 33 35 32 30 26 24 23 22 24 23 18 21 29 27 27 28
55 55 55 54 54 53 53 54 54 53 49 43 43 41 34 30 31 31 33 34 34 33 34 32 32 35 31 30 32 31 33 33 32 30 28 24 23 22 18 24 13 20 31 24 25 27 28
55 55 55 54 53 53 53 54 54 53 51 43 43 40 34 30 31 30 31 31 29 30 31 30 31 33 33 30 31 35 29 27 30 30 29 27 26 26 23 21 22 28 28 30 29 31 34
55 55 55 54 53 52 53 54 54 53 52 44 43 43 36 32 30 31 29 30 28 27 27 29 30 33 32 33 29 32 30 30 24 28 28 29 29 25 25 23 21 25 30 31 32 29 34
55 55 54 53 53 53 54 54 54 53 52 47 44 45 40 35 36 34 29 29 30 29 27 26 27 30 34 33 31 30 27 28 24 24 24 26 27 25 28 26 27 30 32 32 26 27 35
54 55 54 53 52 53 54 53 54 53 52 49 45 45 44 38 38 41 39 33 33 33 28 28 31 31 32 31 31 30 29 29 29 29 25 23 25 26 28 26 24 32 33 29 31 33 32
53 54 53 52 52 53 53 53 53 53 52 50 45 46 46 42 41 43 43 42 40 39 33 33 34 32 33 33 32 31 30 29 29 28 31 27 28 27 29 29 33 34 33 35 33 32 32

GFSGBSN_sfc_dewp_003.txt.gz
Dewpoint
60 58 58 59 58 56 55 53 52 53 52 52 52 51 52 51 52 52 52 52 53 54 55 55 55 56 53 48 44 45 50 49 49 53 50 52 52 47 46 45 43 41 42 43 42 43 43
59 58 58 58 57 57 57 55 53 52 52 53 53 52 52 52 52 53 53 53 53 54 55 55 55 55 49 42 44 45 45 44 44 51 51 52 52 46 46 44 44 44 43 42 44 43 40
58 59 57 57 57 56 57 56 53 53 52 53 53 53 54 53 53 52 52 53 53 53 55 55 55 52 47 42 45 45 46 45 44 50 50 52 54 45 46 44 45 44 42 42 41 40 40
58 58 58 57 57 56 56 56 54 53 53 53 54 54 54 53 53 53 53 53 54 55 55 54 52 49 42 47 47 45 44 44 46 50 52 52 55 51 45 44 41 42 39 40 41 36 36
57 57 58 58 57 57 56 56 56 54 53 53 53 54 54 54 53 54 55 55 54 54 54 52 50 47 40 48 46 45 43 42 46 52 53 51 55 51 46 41 38 38 39 37 38 37 37
56 57 58 58 57 57 57 56 56 54 53 53 53 55 55 53 53 53 55 56 54 53 51 50 47 42 43 41 45 46 46 43 45 50 49 50 52 48 46 43 39 34 36 33 33 33 33
56 57 58 58 57 57 57 56 55 54 53 53 54 55 55 54 53 54 54 53 47 45 45 39 40 39 41 42 45 45 45 42 43 48 41 47 45 43 43 44 40 35 34 34 36 33 30
56 57 57 58 57 57 56 56 54 54 52 53 54 55 55 54 54 54 54 46 42 42 38 42 42 41 42 45 42 43 43 39 42 39 40 43 43 45 44 44 39 36 34 33 34 33 30
56 57 58 57 57 56 56 55 54 53 53 52 54 55 54 52 54 54 51 47 49 47 38 40 40 41 43 42 40 42 41 40 41 34 38 39 43 44 43 43 42 37 35 34 35 33 31
57 58 58 58 57 57 57 56 55 54 53 54 55 55 54 53 52 52 49 52 50 47 33 35 38 39 42 43 39 43 42 41 41 33 35 42 45 43 43 41 42 40 35 36 33 34 31
57 58 58 58 58 57 57 57 56 55 55 55 55 54 54 53 51 49 50 52 50 45 22 36 37 42 42 37 39 42 43 41 39 34 37 41 43 42 42 42 42 40 40 38 35 31 26
57 58 58 58 58 58 57 57 57 57 56 55 55 54 54 53 53 53 53 52 48 32 22 35 38 38 38 39 39 42 40 43 44 36 35 43 45 46 43 43 42 34 35 35 30 27 25
56 58 58 58 58 58 57 57 57 57 57 56 55 54 53 53 49 54 52 46 32 27 35 34 35 37 34 35 36 38 37 37 38 33 32 41 43 45 48 38 37 35 38 34 31 26 25
57 57 57 58 58 57 57 57 57 57 57 56 55 54 52 51 54 52 49 38 28 32 30 35 35 35 32 34 37 37 36 34 41 37 32 36 36 38 43 41 37 39 38 31 25 24 24
56 57 57 57 57 57 57 57 57 57 56 56 54 48 50 51 54 52 41 31 31 34 33 34 34 30 31 33 36 36 35 33 37 40 30 32 34 34 37 35 38 35 36 31 27 27 26
56 56 57 57 56 56 57 57 56 56 56 55 48 47 47 52 52 47 36 34 36 39 37 33 28 31 28 32 35 34 35 35 38 40 37 36 28 32 25 31 27 35 32 32 27 24 23
56 56 57 57 57 56 56 57 56 56 56 53 48 41 50 54 51 44 34 35 39 43 36 32 34 35 31 33 35 35 33 41 42 39 36 30 29 29 25 26 25 29 33 29 28 27 24
55 56 57 57 56 56 56 56 56 55 53 50 42 40 53 53 42 42 38 39 42 39 41 39 38 38 36 33 33 35 36 38 43 40 32 30 29 26 25 31 29 26 28 28 25 23 23
55 55 56 56 56 55 55 55 55 54 53 43 40 45 53 51 39 40 43 42 44 42 42 41 37 38 37 36 37 39 40 41 42 40 36 34 31 28 29 31 33 28 25 26 26 25 23
54 56 56 56 55 55 54 55 55 53 54 45 41 42 47 47 47 43 43 42 42 47 45 45 37 37 36 36 38 38 40 41 42 39 43 38 32 30 28 29 30 29 27 25 26 24 23
51 56 56 55 55 55 54 54 54 54 54 46 40 38 42 39 42 42 44 43 41 42 46 45 41 36 36 36 37 38 41 37 39 44 38 35 30 29 27 30 29 29 28 25 25 25 25
50 55 55 55 55 55 54 54 54 53 54 45 39 36 38 37 35 42 41 43 41 42 43 41 39 35 37 37 37 37 37 37 36 34 35 34 29 26 23 27 27 29 29 28 26 26 26
50 52 56 55 55 55 54 53 53 53 50 42 41 40 36 36 32 34 36 41 41 41 42 37 38 35 36 35 36 38 37 36 37 32 30 32 26 26 25 24 22 21 23 28 28 28 27
50 50 54 55 55 54 53 53 53 53 49 43 41 40 34 31 32 32 33 38 40 36 38 32 33 33 31 34 33 32 32 31 34 30 29 30 30 26 20 22 16 24 29 29 28 26 25
49 50 53 55 54 53 53 52 53 54 53 44 42 41 33 29 31 31 32 33 33 34 30 31 32 33 32 32 37 34 32 29 30 30 29 28 27 26 23 20 22 28 28 28 27 27 32
48 49 51 55 54 53 52 52 53 54 53 44 42 42 35 31 29 30 29 29 30 32 28 30 32 35 33 33 33 34 33 29 26 27 29 29 28 27 27 22 17 24 30 31 32 26 34
48 49 50 55 54 53 52 52 53 54 53 45 43 44 39 33 35 32 29 29 30 28 28 28 30 31 36 33 29 30 27 28 25 25 25 26 27 25 28 24 26 30 32 31 26 26 34
46 47 49 54 53 52 52 53 53 53 53 48 44 45 42 38 38 39 37 32 33 29 27 27 30 30 34 34 33 30 29 28 27 26 24 25 26 25 28 25 21 32 32 28 31 32 32
46 47 48 53 52 52 52 53 53 53 53 50 44 45 45 40 40 43 42 41 39 38 31 32 32 30 31 32 31 31 29 29 29 26 30 24 25 26 27 27 33 33 33 34 32 32 32

GFSGBSN_sfc_dewp_006.txt.gz
Dewpoint
58 61 58 58 58 58 57 55 54 53 53 53 53 53 52 52 51 51 51 52 52 54 55 55 55 56 54 49 44 48 50 48 47 52 51 45 50 49 47 46 44 43 40 41 41 41 41
58 59 59 58 58 58 57 58 56 54 53 53 54 53 53 53 52 52 52 52 53 53 54 55 55 56 48 42 44 45 45 45 42 48 50 46 48 47 43 45 44 43 42 41 41 42 42
56 58 59 58 57 57 56 57 57 55 53 53 54 54 54 54 54 53 51 52 53 53 53 55 55 51 46 41 43 43 44 42 43 44 47 47 47 50 45 46 46 43 42 42 41 42 41
56 57 59 59 58 57 57 56 57 55 54 53 54 55 55 55 54 53 52 53 53 55 53 53 52 49 41 44 45 44 43 43 44 42 46 48 48 51 52 45 45 44 43 38 39 42 41
56 58 58 58 58 58 58 58 58 57 55 54 53 54 54 55 54 54 54 54 55 54 54 52 48 46 39 46 43 43 43 40 43 43 43 47 49 50 49 44 43 43 38 37 36 41 40
56 57 58 58 58 57 57 57 57 56 56 54 54 55 55 56 55 54 53 54 56 53 51 48 47 42 40 39 42 42 43 41 42 44 45 47 46 47 48 44 38 37 37 35 36 37 35
56 57 57 57 57 58 57 57 57 55 56 55 55 55 56 56 55 53 52 52 46 46 46 40 39 36 39 40 44 43 43 40 42 43 40 42 41 40 42 44 39 34 35 36 36 35 34
57 57 57 57 57 58 57 56 56 55 55 54 54 55 55 56 55 54 53 49 45 44 41 42 41 38 42 42 40 41 43 37 38 37 42 38 38 41 45 43 41 37 35 35 34 34 33
57 57 57 57 58 57 57 57 56 55 54 54 54 54 55 55 52 52 51 50 51 49 39 40 41 40 39 40 39 40 41 36 36 36 40 36 39 42 46 41 39 37 35 33 33 35 35
57 57 57 58 57 57 58 57 57 56 55 54 55 55 55 53 50 52 50 50 50 48 33 35 39 39 41 41 37 39 41 36 37 35 39 34 39 44 43 41 41 36 38 37 37 38 34
57 57 57 57 57 57 58 58 57 57 57 55 55 54 55 53 51 48 50 50 49 45 24 34 37 40 39 36 34 37 42 36 35 38 37 35 40 41 43 41 40 36 40 39 39 38 36
56 56 57 57 57 57 57 57 57 57 57 56 55 55 54 52 51 51 51 50 46 32 23 35 38 37 37 36 34 39 40 37 40 37 36 34 46 43 40 41 41 39 37 37 34 34 32
55 56 56 57 58 57 57 57 57 57 57 57 56 55 53 49 46 53 51 45 33 28 35 35 36 38 34 31 31 35 37 35 36 35 35 35 36 47 43 43 40 39 38 36 35 32 29
55 55 56 57 57 57 57 57 57 57 57 56 56 55 52 49 51 53 48 38 29 32 34 37 37 37 32 31 30 35 33 30 36 38 30 33 35 45 44 41 39 38 37 30 26 27 26
53 55 56 56 56 57 57 57 57 57 56 56 55 51 50 50 53 50 41 32 31 35 35 36 34 33 29 31 29 35 30 28 35 36 31 34 35 43 44 41 39 40 38 33 27 27 25
51 53 55 55 56 57 57 56 57 57 56 56 48 46 46 49 53 48 37 35 36 39 37 33 25 28 25 27 35 34 28 27 32 37 39 33 34 38 38 43 38 40 39 33 30 25 23
50 52 56 55 56 56 57 56 56 56 56 55 47 44 48 52 51 42 34 36 38 40 38 27 26 26 26 27 35 30 27 32 32 35 38 35 33 32 37 37 37 37 38 37 31 27 24
50 52 55 55 55 56 56 56 56 56 54 50 47 42 52 52 40 40 37 38 41 42 40 28 29 26 23 28 30 34 28 34 30 38 36 38 30 34 32 31 35 37 35 34 31 26 26
50 50 53 55 55 55 56 56 55 55 52 46 42 46 52 49 37 37 40 40 40 41 37 30 33 32 29 29 31 34 34 33 36 39 37 34 30 29 32 32 30 34 34 36 31 27 26
50 50 51 54 55 55 55 55 55 55 54 46 43 42 47 47 45 42 40 39 41 43 37 39 36 37 34 30 30 32 35 40 42 38 43 38 32 27 26 29 31 31 31 34 34 29 27
50 50 50 51 55 55 55 54 55 55 54 47 42 42 44 39 40 42 43 42 39 41 43 44 38 37 31 32 36 35 36 40 40 43 41 38 30 31 30 30 30 30 31 29 29 31 27
49 50 50 50 54 55 55 54 54 54 54 46 39 39 41 41 42 42 42 41 39 43 41 40 42 37 35 34 35 37 39 39 39 41 39 37 32 27 26 30 29 28 29 32 32 31 28
47 49 50 51 52 55 55 54 54 54 51 46 44 42 39 38 34 40 40 42 41 42 44 44 42 37 36 37 38 40 41 40 39 38 38 35 31 29 26 25 26 27 28 29 29 28 27
46 49 49 50 51 55 54 54 53 54 51 45 43 41 38 32 33 33 39 43 43 43 42 38 36 37 36 36 37 38 38 36 37 34 38 35 31 30 27 23 25 27 29 29 29 29 29
46 48 49 50 50 55 54 53 53 53 53 47 45 43 39 33 32 31 38 40 37 36 34 32 32 34 35 32 35 34 32 38 33 30 31 36 38 34 27 31 24 23 28 26 29 29 29
45 47 47 48 49 54 53 53 53 53 54 48 45 45 40 33 30 31 31 40 40 37 31 31 33 35 37 34 37 35 35 36 33 32 30 35 41 38 31 26 22 24 29 29 29 21 30
45 46 46 48 48 52 53 52 52 53 53 48 46 46 42 35 35 32 31 36 39 37 31 31 33 34 41 36 34 35 33 30 31 32 34 30 30 34 30 31 25 28 31 33 23 26 34
44 45 47 48 48 50 53 52 52 53 53 49 48 47 45 39 40 42 38 32 33 37 35 31 36 36 40 38 35 32 32 28 27 28 30 31 29 28 31 33 31 32 31 29 33 36 34
44 44 46 47 47 49 52 52 53 53 53 51 47 46 47 43 43 45 44 43 40 37 35 34 38 34 41 38 35 34 30 30 27 24 30 25 29 27 28 28 34 34 34 34 35 34 33

GFSGBSN_sfc_dewp_009.txt.gz
Dewpoint
57 59 59 60 58 58 59 58 56 55 54 54 54 54 53 52 53 52 52 52 51 51 53 55 55 55 53 47 44 49 50 46 46 52 50 47 40 42 45 43 44 42 40 39 39 38 39
58 57 59 59 59 58 58 57 58 56 55 54 54 54 54 53 54 53 53 52 53 52 52 54 55 56 49 40 43 45 46 45 44 46 49 49 41 40 40 41 42 43 41 40 39 39 39
57 56 58 59 59 59 58 57 57 59 56 54 54 54 55 54 54 54 53 52 53 52 52 53 54 51 45 40 40 42 43 41 42 41 44 47 45 42 42 43 40 42 40 40 39 38 37
57 56 58 59 59 59 59 59 58 58 56 55 54 54 55 55 55 54 54 53 53 53 53 52 52 49 44 43 43 42 41 40 41 41 41 44 46 43 44 48 45 38 42 40 39 39 38
55 57 58 58 58 58 59 59 58 57 57 56 55 54 54 56 56 55 54 54 54 55 53 52 48 47 40 46 42 41 41 38 38 41 41 41 45 44 45 46 44 42 38 38 38 37 38
55 57 58 58 58 57 58 59 59 58 57 57 56 56 55 56 56 56 55 53 53 54 52 49 45 42 40 38 40 41 41 40 37 39 39 40 44 42 43 42 37 38 38 35 37 35 37
56 57 58 58 57 58 58 58 58 58 57 58 57 55 56 55 56 55 52 52 47 45 48 42 40 37 37 38 41 42 40 40 38 37 37 39 39 37 38 39 41 38 39 35 36 35 36
57 57 57 57 57 57 58 58 58 58 57 57 56 55 55 55 55 55 52 47 45 45 42 44 41 40 39 41 38 40 40 37 35 34 35 37 37 36 35 39 40 40 36 35 34 35 35
58 57 57 57 57 57 58 58 58 57 57 56 56 55 55 54 53 53 50 46 50 49 41 40 43 40 38 40 37 37 39 37 32 32 32 34 37 36 33 37 41 40 39 34 34 35 34
58 57 57 57 57 57 57 57 58 58 57 56 55 55 54 54 49 47 47 51 51 50 33 36 40 41 41 43 39 39 40 37 33 31 31 34 36 38 33 36 42 39 41 35 34 35 32
56 56 55 56 57 57 56 57 57 58 57 57 55 55 55 53 48 48 49 51 50 47 26 35 40 42 41 40 34 33 37 38 33 32 37 33 36 38 34 39 42 40 40 36 37 36 38
53 53 56 55 56 57 56 56 57 57 57 57 56 55 55 53 50 49 50 49 47 33 25 35 38 38 37 40 35 34 34 37 35 32 39 32 39 39 37 41 46 44 39 40 38 35 31
50 51 53 56 54 56 56 56 57 57 57 57 57 56 54 46 44 51 50 45 32 29 35 35 35 38 37 37 35 34 35 34 35 32 33 35 36 40 42 41 45 43 40 36 32 32 27
50 51 50 52 55 55 55 56 57 57 57 56 57 56 53 46 52 51 48 38 28 30 32 38 37 37 34 35 32 31 32 31 34 34 34 33 31 37 38 43 41 41 40 30 25 25 25
48 51 49 50 50 55 55 56 56 57 56 56 56 54 51 50 52 50 42 31 32 34 37 36 38 34 35 35 25 26 30 31 30 34 34 32 34 39 42 44 41 40 38 33 29 27 25
48 51 51 50 53 55 55 56 56 56 56 56 49 48 47 49 52 48 38 34 37 38 38 37 28 29 28 30 26 28 31 32 29 31 37 37 33 38 44 44 44 41 37 32 29 24 23
48 50 50 50 52 55 55 56 56 56 57 55 48 44 46 50 51 43 33 35 38 40 39 36 27 24 23 24 27 28 28 26 28 29 37 40 35 35 40 40 39 42 37 36 31 28 23
48 49 51 50 50 52 55 56 56 56 56 52 47 41 51 51 40 39 35 37 40 39 41 37 26 25 22 23 27 29 26 25 26 31 37 40 38 33 34 32 39 41 38 35 29 27 26
47 48 50 49 50 51 56 56 56 56 53 48 44 44 51 48 36 36 37 38 39 39 40 34 28 26 23 24 25 30 30 29 31 28 39 37 35 35 36 33 38 38 36 37 34 31 27
46 48 50 50 50 51 55 55 55 56 53 48 42 42 44 46 43 41 37 38 38 41 39 33 30 27 26 26 26 29 31 32 35 30 43 40 33 30 27 29 36 36 37 35 33 29 27
45 47 49 50 50 52 55 55 55 55 54 49 42 42 41 38 39 40 41 40 38 39 41 35 37 31 29 24 26 30 31 34 34 37 37 38 31 29 27 29 32 33 35 35 34 33 29
44 46 47 49 49 49 53 54 54 55 55 48 40 36 43 43 40 40 41 39 39 39 39 38 41 35 30 27 25 25 31 33 35 38 34 37 33 30 29 30 29 29 31 33 33 33 32
44 45 47 47 49 50 51 54 54 54 53 47 46 43 39 39 39 38 39 40 40 41 43 40 42 38 34 31 31 36 34 37 37 36 38 36 36 30 27 28 30 28 29 30 31 31 30
43 45 46 47 48 49 49 54 54 54 52 47 44 42 38 31 31 33 37 42 42 41 40 42 45 42 39 38 38 39 39 36 38 38 37 36 35 32 30 26 26 27 29 30 29 31 32
43 45 45 48 47 48 49 53 54 54 53 48 46 44 40 33 31 32 34 42 39 42 42 39 41 39 38 38 37 38 38 38 33 32 38 39 37 34 31 31 31 31 26 28 29 29 30
42 44 45 47 46 47 49 52 53 53 54 50 47 46 42 37 31 32 37 42 39 38 36 36 34 35 35 37 38 36 35 37 34 34 37 39 40 38 35 28 26 25 29 28 30 26 29
42 44 44 46 46 47 48 49 53 53 53 50 48 47 45 38 35 33 32 40 44 39 35 33 34 36 43 39 36 36 34 37 34 35 34 37 39 36 36 34 30 29 30 30 23 29 30
40 43 44 46 46 47 48 48 53 52 53 50 48 47 44 41 40 40 37 36 40 41 35 35 38 39 42 39 37 35 32 32 33 36 35 34 34 35 37 34 31 32 31 28 34 35 32
40 43 44 45 46 46 48 49 53 52 53 51 48 47 47 46 44 45 44 43 42 40 39 35 39 39 44 41 37 35 33 29 30 29 31 34 32 29 31 32 34 33 34 35 36 35 35

GFSGBSN_sfc_dewp_012.txt.gz
Dewpoint
56 59 60 58 58 60 60 60 59 57 56 55 54 54 54 54 53 53 52 52 52 52 53 54 55 55 52 45 42 50 50 49 48 51 51 48 45 41 41 43 44 42 43 41 40 39 39
55 57 59 59 59 60 60 59 59 59 57 56 55 54 54 54 54 54 53 52 52 53 53 53 55 56 49 40 41 43 47 45 44 45 49 49 46 42 38 40 42 43 43 44 42 39 38
56 56 57 58 58 59 59 59 59 59 58 58 56 55 55 55 54 54 54 53 52 53 53 53 54 52 45 40 39 41 45 44 44 41 41 48 48 47 40 38 42 41 40 42 42 40 38
57 56 56 58 58 59 59 59 59 58 57 58 56 56 56 56 55 55 55 54 53 54 54 53 53 49 43 45 45 41 40 40 41 40 41 42 45 45 45 43 43 43 41 39 41 40 39
57 57 56 57 57 58 59 59 59 59 57 57 57 56 55 56 56 57 56 53 53 54 55 53 49 47 39 47 43 42 41 39 38 38 40 39 41 43 43 40 41 42 37 38 40 41 38
59 57 57 58 58 58 58 58 59 59 59 58 58 57 56 56 56 56 56 53 52 52 53 50 45 41 41 38 40 41 41 41 38 37 37 39 40 40 42 39 33 35 39 36 38 39 39
56 58 58 58 58 58 58 58 58 59 59 58 58 58 56 56 56 56 53 50 47 46 48 40 40 36 36 39 41 40 40 39 39 37 35 37 37 35 37 38 38 37 36 38 36 40 37
55 55 58 58 58 58 58 57 58 58 58 58 58 57 56 56 55 55 53 45 44 47 41 46 42 41 39 41 37 39 40 37 37 35 34 36 34 34 35 36 37 36 38 39 38 38 37
50 53 57 58 57 57 57 57 58 58 58 58 57 57 56 55 54 53 49 47 50 48 41 43 44 41 41 41 37 37 39 37 35 34 33 33 33 35 33 33 34 34 35 39 39 38 39
49 50 52 54 56 56 56 57 57 57 57 57 57 56 55 55 49 48 48 50 51 50 35 36 40 42 42 43 39 39 39 37 35 31 32 33 33 31 33 32 33 31 36 39 41 41 35
48 50 49 52 52 54 55 56 56 56 57 57 56 56 55 53 50 46 50 51 51 47 25 36 39 44 42 40 38 38 41 41 34 32 32 32 33 31 31 36 34 34 38 39 41 41 39
47 49 48 51 51 52 54 55 55 56 56 56 56 56 55 53 51 50 51 50 47 33 23 35 39 39 39 39 39 39 38 41 38 34 33 34 36 34 33 34 37 36 37 41 42 40 35
47 48 49 50 50 50 51 55 55 56 56 56 57 56 54 50 46 51 50 46 32 28 33 35 36 37 35 37 37 38 36 34 32 30 30 35 35 36 37 38 36 37 38 35 33 34 33
47 47 48 49 49 50 52 54 55 56 56 56 56 56 54 49 51 50 47 38 27 28 31 38 37 37 35 37 37 37 36 31 32 33 31 28 26 36 37 37 35 38 38 33 29 31 26
46 47 48 49 49 49 52 55 55 55 55 56 56 55 52 50 51 49 42 30 29 31 37 36 37 34 33 36 37 36 33 32 31 31 32 32 31 38 38 36 40 36 34 39 36 27 26
46 47 48 48 50 49 50 54 55 55 56 56 51 50 49 52 51 48 39 33 33 38 38 38 34 32 27 31 32 30 29 30 30 32 34 34 32 38 39 41 43 41 42 37 36 25 25
45 46 47 49 50 49 51 51 55 57 56 54 48 45 48 52 50 43 33 34 34 38 39 37 34 28 27 27 28 25 23 27 31 31 37 36 34 35 36 41 38 40 40 40 37 32 25
43 45 47 49 50 50 50 51 54 56 56 52 47 40 50 52 40 40 36 36 40 39 41 39 38 36 23 26 26 26 27 31 31 32 34 37 36 33 35 38 42 42 40 36 29 29 30
41 44 47 48 50 50 50 52 55 56 54 49 44 45 51 48 35 36 37 38 39 38 40 39 35 30 24 23 22 24 30 33 35 36 35 38 35 32 33 39 43 41 41 37 36 33 29
40 43 46 48 49 49 49 50 56 56 54 49 45 40 45 45 43 39 36 38 37 40 39 40 34 29 25 23 24 29 28 34 34 35 42 45 38 34 33 34 38 38 38 36 36 31 29
40 42 44 47 47 49 50 50 54 55 53 50 44 41 41 37 38 40 40 39 38 36 41 40 32 29 25 24 24 24 31 31 35 36 38 39 37 38 35 37 37 37 36 36 35 34 30
39 41 43 46 47 47 48 48 50 55 53 48 42 39 43 42 38 38 39 38 38 38 41 37 35 37 36 27 25 25 28 30 30 35 31 35 35 35 29 31 33 35 36 36 35 33 32
38 40 43 45 47 47 48 48 50 54 52 47 48 45 41 40 41 39 39 39 40 41 40 41 38 34 37 30 30 26 29 31 35 35 36 35 36 33 26 29 29 27 30 34 35 35 34
38 40 42 45 46 46 47 49 50 54 52 48 46 45 42 36 32 36 37 39 41 42 40 42 43 38 42 40 39 41 40 36 35 36 37 36 36 35 28 27 24 28 29 30 31 32 33
38 39 42 45 45 45 46 48 49 53 54 48 45 46 44 38 35 33 30 39 41 41 43 42 44 42 44 40 39 38 38 39 36 34 36 37 37 35 31 30 30 31 27 28 29 30 31
38 39 42 44 45 46 46 47 49 53 54 51 47 48 45 39 34 34 32 41 40 38 38 39 39 41 43 38 40 34 32 36 35 36 38 41 41 39 32 28 26 27 29 29 31 28 31
38 39 41 44 44 46 46 48 49 51 54 51 48 49 47 42 40 36 33 36 44 40 38 37 37 40 44 40 37 35 36 38 35 34 35 37 38 36 35 32 33 30 30 29 25 28 32
38 39 41 44 44 45 46 48 49 52 53 51 48 48 47 43 42 42 40 36 42 42 37 38 39 41 42 38 39 37 33 36 36 36 37 35 36 35 36 34 31 32 31 29 34 33 33
38 39 41 43 44 45 46 48 49 49 53 52 47 48 49 46 45 45 44 44 44 45 41 38 41 40 44 41 41 36 33 30 33 34 38 35 37 35 36 35 35 34 35 35 36 34 35

GFSGBSN_sfc_dewp_015.txt.gz
Dewpoint
58 58 57 57 58 59 59 60 60 60 58 56 55 54 54 54 54 52 53 52 52 52 52 54 55 55 54 47 46 51 50 50 51 53 52 51 48 45 40 42 44 44 44 45 44 44 42
59 58 58 57 58 59 58 59 60 60 59 58 57 56 55 54 54 54 54 52 52 52 52 52 53 55 51 42 44 45 48 46 45 50 51 51 48 47 43 39 39 42 43 44 44 43 42
58 60 58 57 58 59 58 59 59 59 59 59 58 57 57 55 54 54 54 54 53 52 52 52 52 52 48 42 43 43 47 46 46 43 41 50 49 47 47 42 41 43 42 41 43 43 43
56 57 59 57 58 58 58 59 59 60 59 58 58 58 57 56 55 55 55 54 54 53 54 53 52 50 44 47 47 44 43 42 42 42 42 42 44 43 45 45 41 42 43 39 40 41 43
52 53 56 58 57 58 58 59 59 59 59 58 58 58 57 56 56 57 57 54 53 53 54 53 50 48 41 48 45 44 43 40 40 39 40 38 42 41 43 41 39 39 36 38 39 41 41
50 51 53 56 57 57 58 58 58 59 59 58 58 58 57 56 56 56 56 54 52 51 52 51 47 41 42 38 43 44 43 42 39 39 39 41 39 39 40 40 31 32 34 37 38 39 40
48 49 50 52 57 58 57 57 58 58 58 58 58 57 57 56 56 55 53 49 45 44 49 42 42 37 36 42 42 43 42 41 40 39 35 37 36 33 35 37 37 34 34 36 39 39 39
48 48 47 50 52 54 57 57 57 57 58 58 57 57 57 56 56 56 52 46 44 45 41 46 44 42 40 41 38 40 41 38 37 35 36 35 33 34 36 36 37 36 36 35 36 40 39
46 47 47 49 50 51 54 57 57 56 57 57 57 57 57 56 56 53 49 46 49 47 40 41 44 43 42 42 39 39 40 38 36 35 35 32 33 34 34 33 34 35 35 34 34 37 40
45 46 47 47 49 49 53 54 55 55 55 56 56 57 56 56 50 49 48 49 50 48 35 35 39 43 43 42 39 41 40 38 37 34 34 34 33 32 33 33 33 31 34 34 34 35 35
45 45 46 46 47 49 51 52 54 54 55 55 56 56 56 52 47 46 49 51 51 48 23 35 39 44 42 40 39 39 41 40 36 34 35 32 33 32 31 32 33 31 33 32 33 35 36
44 45 46 47 48 48 50 52 52 54 55 54 55 56 55 51 50 51 51 49 46 33 20 34 38 39 39 41 39 40 38 41 42 39 37 33 36 35 32 32 32 37 35 35 36 36 32
42 44 46 46 49 48 49 50 50 53 55 55 56 56 54 50 46 51 49 44 31 26 32 34 34 37 34 35 36 38 38 37 35 31 31 36 36 37 37 35 37 36 33 27 27 29 28
41 43 46 46 48 49 50 50 49 52 55 55 56 56 53 50 51 50 47 38 25 27 30 37 36 34 35 33 36 36 36 34 38 35 31 27 21 34 36 34 31 33 32 29 21 25 29
42 43 46 46 48 48 50 49 49 51 55 56 56 54 51 52 51 49 41 30 26 29 36 36 36 34 34 36 34 36 34 34 32 35 26 27 28 35 35 34 34 32 30 32 34 35 33
41 42 44 46 47 50 48 48 49 50 54 56 53 50 48 51 51 46 38 31 32 36 38 38 34 35 30 30 32 34 33 35 32 31 33 33 28 31 34 35 36 35 36 32 33 29 28
40 41 43 45 47 50 48 49 50 53 55 55 50 45 50 51 50 42 33 34 34 38 39 37 36 36 34 30 32 31 29 31 34 31 31 33 33 32 34 36 32 35 36 35 37 34 31
40 41 42 44 45 49 50 50 50 51 53 53 48 41 50 51 40 40 36 35 38 37 39 39 39 38 34 29 30 27 27 25 34 34 30 37 35 30 32 38 39 34 36 35 32 33 35
40 40 41 44 46 49 49 50 51 51 54 50 45 45 50 48 35 36 38 36 37 38 39 39 38 37 35 28 30 27 31 34 37 36 36 37 34 28 32 37 40 36 39 36 36 39 33
40 40 40 43 45 49 48 49 49 50 54 51 45 39 44 46 43 38 36 36 37 40 39 40 39 37 34 29 29 27 27 36 35 37 41 39 36 34 31 36 39 36 35 39 38 35 31
40 39 40 42 45 48 46 48 49 50 54 49 45 41 41 37 38 40 38 38 37 36 39 41 38 38 32 25 24 27 30 31 35 39 39 37 34 36 35 35 37 38 38 37 36 37 30
40 38 40 41 44 47 46 47 49 51 53 48 41 42 42 39 39 39 39 38 37 38 38 39 38 34 33 29 25 25 31 31 32 37 37 38 35 38 37 38 38 38 40 38 36 36 33
39 38 39 41 43 45 47 47 49 50 53 48 47 46 42 42 38 38 38 37 38 39 40 40 40 37 35 36 37 38 31 31 33 33 32 35 36 37 28 37 35 34 36 36 36 35 33
39 38 39 40 43 45 46 47 48 49 51 50 47 45 41 38 39 38 39 39 39 41 39 40 41 39 41 45 41 41 41 36 38 39 36 33 36 36 31 28 23 26 30 36 36 36 36
39 38 39 41 43 45 46 46 48 48 50 48 46 47 44 39 38 38 37 34 41 42 42 43 44 40 45 43 39 39 38 38 36 36 37 37 36 35 30 29 28 29 27 29 31 31 34
40 38 38 41 42 44 45 46 48 49 50 50 47 49 46 40 38 37 33 39 38 39 39 42 41 42 46 39 39 35 31 36 34 35 38 39 39 36 28 24 25 27 29 29 30 27 32
40 39 38 39 42 44 45 46 48 49 49 51 48 49 47 41 41 39 33 34 42 41 39 39 39 41 45 40 38 35 34 36 34 33 36 37 37 31 32 31 31 33 29 30 26 26 33
40 40 38 39 41 44 45 45 47 49 50 51 48 49 48 43 43 41 39 36 42 42 38 40 41 42 42 38 38 38 35 36 34 35 36 36 35 35 36 33 28 32 29 24 30 33 35
40 39 39 39 41 43 44 45 47 48 50 51 47 48 50 46 45 46 44 43 42 45 44 42 42 42 43 41 39 39 34 33 35 34 38 36 37 36 36 35 36 35 34 35 35 34 35

GFSGBSN_sfc_dewp_018.txt.gz
Dewpoint
57 59 60 59 58 57 58 60 59 60 59 59 57 56 55 54 55 53 53 52 52 52 52 53 55 55 53 48 46 48 50 52 53 55 54 52 48 46 41 41 42 42 44 45 46 47 45
53 55 56 58 60 58 57 58 59 60 60 59 58 57 56 55 55 55 54 53 52 52 52 52 53 55 49 40 46 46 50 46 46 52 52 52 50 48 44 41 40 40 41 42 44 44 44
51 52 52 54 58 59 58 58 59 59 59 59 59 58 58 56 55 55 54 54 53 52 52 52 52 52 49 42 44 45 44 46 46 46 47 51 51 49 47 43 43 41 41 41 41 43 43
50 51 50 52 53 56 58 58 59 59 59 59 59 59 58 57 55 55 55 55 55 54 53 53 52 50 43 47 47 45 45 43 46 42 42 43 46 47 43 45 42 40 39 37 39 41 42
48 49 49 49 50 52 57 58 58 58 59 59 59 58 58 57 57 57 56 56 54 53 53 53 50 47 40 47 46 44 45 42 40 40 41 39 41 41 41 42 38 37 33 34 38 40 41
45 45 48 48 49 49 53 54 58 58 58 58 58 58 58 57 57 56 56 55 53 51 50 51 47 44 43 39 44 44 43 43 39 40 39 40 39 37 39 39 32 32 33 34 33 39 40
47 46 46 48 48 48 50 52 54 58 57 57 57 57 57 57 57 56 54 49 44 44 48 43 43 40 36 42 44 44 44 41 41 39 35 37 35 32 33 37 37 36 33 33 35 38 39
44 47 46 46 47 48 48 50 52 54 57 57 56 57 56 57 56 56 50 44 42 42 40 45 45 43 41 42 38 42 43 39 38 36 36 35 33 33 34 35 36 36 35 34 35 35 37
42 41 46 46 47 48 48 49 50 53 56 56 55 56 56 57 56 53 48 46 48 45 39 41 44 43 43 43 39 39 41 39 37 36 35 31 31 33 34 34 34 34 34 33 33 34 35
42 43 41 46 46 46 47 48 49 52 53 56 55 55 56 56 50 49 47 48 48 48 34 35 39 43 43 43 39 41 41 38 37 35 34 33 34 33 33 33 34 32 35 35 34 33 29
43 42 42 44 44 47 47 47 49 51 52 55 55 55 56 52 45 46 46 50 49 47 10 33 38 44 43 40 40 40 41 39 37 36 35 33 33 33 32 31 33 32 33 33 34 33 32
42 42 42 44 45 48 47 47 49 50 52 53 56 55 55 50 50 50 51 49 46 27 14 34 38 38 38 41 39 41 39 41 43 39 36 33 36 34 32 31 34 36 33 33 33 33 28
42 42 42 43 45 46 47 47 49 49 51 53 55 55 53 47 47 51 49 44 28 16 30 34 34 37 35 35 36 37 37 37 36 32 30 35 36 36 37 33 34 32 31 24 23 24 21
42 41 41 41 42 46 47 47 48 50 50 51 54 55 52 47 51 50 47 37 19 24 30 36 34 34 33 33 36 35 36 34 36 36 33 29 26 35 36 34 32 32 30 25 16 17 20
43 41 41 41 43 46 47 48 50 50 50 50 52 54 51 51 51 49 41 30 26 27 35 33 34 32 33 34 34 35 34 33 30 37 30 28 28 34 35 33 33 32 31 30 27 29 29
42 42 41 42 42 45 47 49 48 48 49 52 51 51 49 51 50 47 38 32 30 37 38 36 31 34 29 30 31 33 31 31 32 36 34 31 24 32 34 35 35 33 32 28 28 22 20
41 42 41 41 42 44 46 50 50 48 49 49 49 45 50 51 50 42 32 34 34 40 38 35 34 35 33 30 30 29 29 32 34 33 36 33 29 31 34 33 29 32 32 30 27 27 30
41 41 41 40 43 44 47 47 49 49 49 51 48 37 50 50 39 38 35 35 37 38 39 37 37 37 36 33 31 30 29 29 34 32 32 32 32 27 29 31 34 33 30 30 26 25 28
43 41 41 39 44 45 46 47 48 50 50 50 44 44 50 48 33 35 38 36 37 37 37 38 38 38 36 34 29 30 29 31 36 33 31 34 34 27 28 32 36 35 34 33 32 35 32
43 41 40 39 44 46 47 48 47 49 50 51 44 38 43 45 42 38 35 35 35 39 37 39 39 38 37 33 31 28 29 34 36 36 41 39 35 32 26 34 36 34 32 34 32 28 29
42 41 39 39 41 45 47 48 47 49 50 50 46 40 40 35 38 37 38 37 35 36 39 40 37 38 37 32 28 28 29 33 36 41 40 37 32 34 35 35 37 34 32 34 35 34 32
42 41 40 39 40 44 46 47 46 49 50 49 43 41 42 38 39 39 38 37 36 37 38 38 37 38 37 34 26 25 30 31 33 39 38 38 32 35 35 37 37 37 35 37 36 36 35
42 41 39 39 40 43 45 47 47 49 49 48 46 44 42 39 38 38 38 37 37 38 39 39 39 39 37 37 36 33 35 31 35 36 37 37 35 34 33 38 37 36 36 36 36 36 35
41 40 40 39 39 43 46 47 47 49 49 48 47 44 42 38 38 37 38 39 38 38 38 41 41 40 39 44 43 41 40 36 34 36 37 36 34 35 33 35 24 28 40 39 38 38 40
41 40 40 39 38 41 44 46 46 48 50 50 46 45 42 39 38 38 39 39 37 40 39 40 43 42 43 43 39 36 35 37 35 37 38 36 36 32 30 28 28 28 28 35 37 35 36
41 41 40 40 38 41 44 45 46 49 49 50 47 49 45 41 38 39 38 35 38 38 39 41 43 44 45 41 40 34 32 33 33 36 37 37 37 35 27 26 25 27 28 29 30 27 32
41 42 40 39 38 41 43 46 45 48 49 50 47 50 46 42 42 40 37 34 40 38 39 39 41 42 45 41 36 35 32 34 32 31 36 37 35 30 30 31 30 33 31 30 26 26 32
41 41 40 38 39 40 41 45 46 47 48 49 48 49 48 43 43 40 37 39 41 41 38 40 41 42 42 38 37 37 36 34 33 33 34 34 34 34 34 29 25 33 28 26 29 34 35
41 41 41 39 39 40 41 44 45 46 48 49 47 49 50 46 44 46 44 42 40 43 43 42 41 41 43 40 39 39 38 35 34 33 35 34 36 35 34 33 35 34 34 36 34 35 35

GFSGBSN_sfc_dewp_021.txt.gz
Dewpoint
51 52 52 53 53 55 58 59 59 59 58 59 59 58 56 55 55 55 54 54 53 52 52 53 54 55 53 46 46 48 53 52 55 56 54 52 47 45 41 41 42 41 43 44 45 47 47
50 50 51 51 52 53 55 56 59 59 58 58 59 59 58 57 55 56 55 54 53 52 52 52 53 55 49 39 44 46 46 47 49 55 54 53 49 48 45 42 40 40 40 40 42 43 44
47 48 48 49 49 50 51 54 57 59 58 57 59 59 59 58 56 55 55 54 54 53 52 52 53 52 48 41 44 45 44 45 46 51 50 52 52 49 47 43 44 42 40 40 40 41 42
46 46 48 48 48 49 49 50 54 55 58 58 58 58 58 58 57 56 55 55 55 54 53 52 52 50 41 46 47 46 44 43 44 46 43 46 52 49 47 44 42 39 38 35 37 40 41
45 46 46 47 48 49 48 49 50 53 55 58 58 58 59 58 57 56 56 56 55 54 53 53 49 46 38 46 46 45 45 42 41 41 41 41 42 41 40 41 38 39 33 33 36 40 40
44 43 43 46 47 47 48 49 48 50 52 56 57 57 57 57 57 57 57 55 54 52 50 51 48 44 43 39 44 45 45 43 40 39 39 39 40 38 40 39 29 31 32 32 33 38 39
44 42 44 42 45 46 47 47 49 49 50 53 56 57 56 57 57 57 54 51 45 44 47 43 43 42 37 42 44 44 43 42 40 38 34 37 36 34 34 36 37 36 35 34 34 36 36
43 42 43 42 42 46 46 47 47 48 50 51 54 57 56 56 57 56 51 45 42 41 39 44 45 43 42 44 39 41 42 39 38 36 36 35 32 34 33 34 34 35 34 34 34 36 35
43 43 43 44 42 43 46 47 46 47 49 50 53 55 56 56 57 54 49 45 47 45 37 39 44 43 43 43 40 40 41 39 37 36 35 33 31 33 33 32 32 33 32 30 31 33 34
43 43 43 42 42 44 46 47 48 47 49 50 52 52 56 55 53 50 47 48 47 46 26 31 39 42 44 44 39 41 41 39 37 36 36 35 35 31 31 31 33 29 33 33 32 32 27
44 43 43 42 42 43 45 47 48 47 48 48 50 52 56 55 49 47 46 48 48 42 10 32 39 44 44 40 39 40 43 39 35 36 36 33 34 32 31 32 33 30 33 34 34 33 31
44 44 44 43 41 41 43 46 47 47 47 47 48 52 54 50 49 48 49 49 47 27 13 33 38 38 39 40 40 41 40 41 42 38 36 33 36 35 33 32 33 35 33 32 33 32 25
43 43 43 43 42 43 43 45 47 47 47 49 48 52 51 49 46 50 49 45 30 19 30 33 32 36 34 35 36 38 37 38 35 32 30 35 36 37 37 33 33 33 33 26 24 24 20
44 44 43 42 42 43 43 45 47 47 50 49 50 49 50 49 51 49 46 37 16 24 29 35 34 35 32 33 34 36 35 33 37 36 33 28 26 36 36 33 31 32 32 26 17 17 19
44 44 43 42 42 42 44 46 47 50 48 49 50 49 50 51 51 48 40 30 24 25 33 32 32 32 32 32 33 34 34 30 32 35 30 28 26 36 36 35 36 34 30 31 27 27 26
44 44 43 42 42 41 42 46 49 49 49 50 47 46 48 51 50 46 37 28 29 36 35 33 29 31 27 30 32 31 29 31 32 32 34 32 23 32 34 35 36 35 33 29 30 20 17
44 44 43 42 41 41 42 47 48 48 49 49 46 40 49 51 48 42 32 33 33 39 37 34 32 32 30 30 31 29 27 30 33 33 35 34 31 27 35 33 30 33 31 32 28 26 20
44 43 43 41 39 41 43 46 48 49 50 48 44 35 50 50 40 38 35 35 36 38 39 37 36 34 34 32 31 28 29 30 34 36 33 33 32 27 27 32 32 30 28 29 26 20 23
43 43 43 41 40 44 44 46 48 48 49 46 42 42 49 47 32 34 38 36 37 38 37 36 35 36 36 34 31 31 30 32 35 34 33 34 33 25 29 29 33 34 31 29 28 30 23
43 43 42 41 40 42 45 46 47 47 49 48 42 34 43 44 41 35 35 35 35 38 38 38 38 38 37 33 34 30 30 33 33 33 38 36 35 31 25 31 32 30 31 31 30 26 24
43 42 42 41 38 41 44 46 47 47 49 49 43 38 39 35 37 35 35 36 34 36 38 39 38 37 37 34 31 32 32 31 36 38 39 37 31 33 33 34 34 34 30 31 31 29 25
42 41 42 40 39 40 43 45 47 47 50 48 42 40 41 38 38 37 37 37 36 36 38 37 37 37 37 36 30 25 29 29 33 39 38 38 30 33 31 35 35 34 35 32 31 29 28
42 41 42 40 40 38 42 46 47 48 49 44 47 46 40 39 38 37 37 37 36 38 39 39 38 38 37 38 38 37 36 34 33 37 37 35 33 33 32 36 35 32 35 32 32 32 33
42 41 42 40 40 38 42 45 47 47 49 47 47 45 41 35 37 36 38 37 38 38 38 40 40 40 40 42 41 39 39 39 35 37 38 36 36 35 33 35 28 36 41 34 31 35 37
42 41 42 41 39 38 41 43 46 47 48 47 48 45 41 38 37 37 37 39 39 39 39 39 41 42 45 43 37 35 33 33 34 35 38 38 36 35 32 30 30 28 40 39 38 36 41
42 42 41 41 39 38 41 42 45 47 48 47 48 46 45 40 38 39 38 41 38 38 39 40 44 45 45 41 38 31 29 31 30 32 36 37 37 36 32 28 25 27 29 39 39 35 38
42 41 41 41 39 39 40 41 45 46 48 48 48 48 44 39 41 38 35 35 41 38 36 39 40 42 45 39 36 34 30 33 31 29 34 33 36 34 31 30 29 33 32 33 29 26 32
41 41 41 41 41 40 40 41 44 45 47 48 47 50 47 43 42 41 39 40 42 40 38 40 40 42 42 38 37 36 34 35 31 31 32 33 32 32 33 28 24 32 29 27 28 34 35
40 41 41 41 41 40 39 40 43 44 47 48 47 49 50 45 44 47 45 42 41 42 42 42 41 41 43 39 39 38 38 35 32 29 34 32 34 33 32 31 34 34 34 36 34 34 34

GFSGBSN_sfc_dewp_024.txt.gz
Dewpoint
47 47 47 49 50 50 51 52 53 56 58 58 58 59 59 57 56 54 55 53 53 52 52 53 55 55 52 44 45 48 54 51 54 57 54 51 46 43 40 40 41 41 43 44 43 43 45
46 47 48 48 49 50 50 50 50 51 56 57 57 58 58 58 57 56 56 54 54 53 53 53 52 54 48 35 41 46 44 46 54 55 53 52 48 47 43 42 40 40 41 40 41 41 41
45 45 45 45 48 47 48 49 49 50 51 56 57 58 58 58 57 56 55 55 54 53 53 52 53 51 47 41 44 45 44 43 45 52 53 53 51 47 46 42 44 43 39 40 40 40 39
45 45 45 45 45 45 48 48 48 49 49 51 55 57 57 58 58 57 55 55 55 55 53 52 53 49 39 45 47 46 44 42 43 46 43 51 52 50 47 44 41 40 40 34 36 39 39
45 44 44 44 45 44 44 48 48 48 49 50 52 55 57 57 57 57 57 56 55 55 54 53 49 45 38 45 46 45 44 40 42 44 42 41 45 41 41 39 37 38 32 34 33 37 39
44 43 42 43 44 44 45 46 47 48 48 49 50 52 55 57 56 57 57 55 54 53 50 51 49 43 42 39 44 44 45 42 39 40 39 39 40 38 38 36 28 29 33 33 32 35 36
43 42 42 44 44 44 43 44 46 47 48 47 49 51 55 57 56 56 55 51 46 45 47 40 42 41 39 42 44 44 43 41 40 37 36 37 36 34 36 35 34 34 35 34 34 36 35
44 44 45 44 44 44 44 44 45 47 48 48 48 50 53 55 56 56 52 47 43 40 38 44 44 44 43 44 40 42 43 39 38 35 35 34 32 34 35 35 35 34 33 32 31 32 34
45 45 44 44 44 44 42 43 44 47 48 48 49 50 53 52 56 54 48 45 47 43 35 38 43 41 43 43 40 40 41 39 37 35 35 31 31 34 34 32 32 31 31 29 29 31 32
45 44 44 45 44 43 43 43 45 46 47 47 48 47 49 53 53 51 47 47 47 42 23 28 39 42 44 43 38 42 42 39 37 35 35 35 35 33 32 31 32 29 32 32 32 31 25
45 45 45 45 44 43 43 44 46 45 45 48 48 47 48 51 50 48 49 48 47 37 9 32 39 43 44 38 39 40 43 40 36 35 36 32 34 34 33 31 32 30 32 32 33 31 31
46 45 45 45 44 43 43 45 45 44 45 47 47 46 48 50 52 49 49 49 43 21 15 33 38 38 39 39 39 40 40 42 41 37 36 33 36 35 32 32 32 34 32 32 33 32 25
45 45 45 45 44 43 44 43 44 46 47 47 48 49 48 50 47 50 48 43 28 19 29 31 32 35 34 35 36 38 37 38 35 32 31 35 35 37 37 32 34 33 34 25 23 24 20
44 44 45 44 44 43 42 42 45 47 48 49 49 49 49 49 52 50 45 31 19 24 28 34 33 33 31 33 34 35 35 34 37 37 33 27 23 33 37 32 30 31 31 26 18 16 17
45 45 44 44 44 43 41 42 46 50 48 49 49 48 48 47 51 48 36 27 23 25 32 33 33 30 32 32 32 34 34 32 30 35 31 30 26 35 35 35 32 34 30 31 29 30 26
44 44 44 44 43 42 41 43 46 49 49 49 46 45 45 49 52 45 34 28 28 33 34 32 28 30 28 31 31 33 30 29 31 33 33 29 27 31 34 36 36 35 34 28 29 20 19
43 44 44 44 43 41 40 44 46 48 49 48 44 39 47 52 50 41 32 29 32 38 36 32 30 30 29 30 32 30 27 28 33 32 33 32 31 27 34 33 29 34 33 34 31 29 17
43 44 43 43 42 40 40 44 46 48 49 47 42 34 49 50 37 38 34 34 38 38 38 36 35 34 32 31 30 29 28 29 33 34 32 33 33 27 26 31 33 31 30 30 24 20 24
43 43 43 43 42 41 40 44 46 48 49 47 41 40 50 46 32 34 37 36 37 38 37 35 35 35 36 34 32 31 30 33 35 35 32 33 32 26 26 30 33 33 33 29 28 29 22
43 43 42 42 41 41 42 43 45 48 49 48 40 34 42 43 41 36 33 34 35 38 37 36 36 37 36 36 36 32 31 32 35 35 37 36 35 30 25 27 32 30 32 34 31 27 22
43 43 42 42 41 40 42 44 45 49 48 48 42 36 38 33 36 35 34 34 34 35 37 38 37 36 37 35 35 33 33 33 34 36 36 36 31 32 33 33 33 33 32 33 31 28 24
43 43 42 43 41 40 39 44 46 48 49 47 40 40 41 37 37 34 36 34 33 36 37 35 37 36 38 36 33 29 32 31 29 38 38 39 31 33 31 33 34 32 34 34 31 30 29
43 43 42 42 42 39 39 43 46 47 48 44 45 46 40 39 36 36 34 36 35 37 39 38 37 38 38 38 39 39 34 34 35 35 37 36 33 33 29 34 33 31 32 33 33 31 29
43 42 42 42 42 39 39 42 44 47 48 47 46 46 41 36 37 34 37 38 37 38 37 40 39 39 40 44 44 40 38 38 37 37 36 36 35 34 31 34 28 36 41 34 33 32 32
42 42 42 42 42 40 39 41 43 46 47 47 48 46 42 35 36 36 37 37 38 40 40 40 40 41 45 43 39 33 33 32 34 37 36 36 36 34 32 31 34 30 39 35 33 32 33
42 41 42 42 42 41 40 41 42 45 47 47 47 48 45 39 35 37 36 40 39 39 40 41 44 45 45 42 38 30 27 29 29 32 35 37 37 35 33 29 26 27 30 40 39 35 39
42 42 41 42 41 41 41 40 41 44 46 46 47 49 46 39 40 40 37 38 41 39 37 39 39 41 43 39 36 30 31 32 30 30 33 35 35 33 33 29 29 33 32 40 32 29 32
42 41 40 42 41 41 41 39 41 44 46 46 46 49 47 42 42 41 39 40 41 39 36 38 40 41 40 37 36 34 32 33 30 30 31 31 31 32 32 29 23 32 32 29 30 33 35
42 41 41 41 41 41 40 39 41 44 46 46 45 50 50 45 42 46 45 42 42 42 41 40 40 40 42 40 38 39 37 35 31 28 32 31 32 31 31 29 32 35 33 35 35 34 34

GFSGBSN_sfc_dewp_027.txt.gz
Dewpoint
47 47 47 46 46 46 47 48 48 50 50 53 55 57 58 58 58 56 55 54 54 53 52 52 54 55 51 44 46 48 53 50 52 56 53 49 45 43 40 41 42 43 43 44 44 42 42
46 46 46 46 46 46 45 45 48 47 49 51 52 55 56 58 58 58 56 55 54 53 53 52 52 53 46 34 39 45 44 45 55 56 54 50 47 45 43 42 40 41 41 41 41 41 41
46 46 45 45 45 45 45 47 46 47 48 49 50 52 55 56 57 58 56 56 55 53 53 52 53 51 47 41 45 45 45 43 46 53 52 53 50 47 46 44 45 43 41 40 40 41 40
46 44 44 44 44 45 43 43 43 45 46 48 48 50 52 55 57 57 57 56 55 55 54 53 54 48 38 44 46 45 45 42 44 46 49 53 54 50 47 45 41 40 40 34 37 38 39
44 44 44 45 46 46 46 45 44 43 46 48 49 48 49 54 56 57 57 57 56 55 54 54 49 43 39 44 45 45 43 40 43 44 43 47 47 43 44 41 36 38 32 35 34 37 38
45 46 43 45 45 45 45 44 44 44 45 47 47 48 48 51 55 56 57 56 54 54 51 52 48 43 41 39 43 44 45 41 40 41 41 41 40 38 38 38 28 30 32 32 32 34 36
47 47 45 45 46 45 45 44 42 44 44 47 48 48 49 51 54 56 55 51 46 44 46 39 40 39 40 43 44 44 44 41 39 39 37 38 36 33 35 36 35 35 35 32 34 35 33
46 45 45 45 46 45 45 44 44 44 44 47 47 48 49 50 53 54 52 46 43 43 39 43 44 45 44 44 39 43 43 39 37 35 35 36 33 34 33 36 35 34 33 32 31 31 32
44 45 46 46 46 46 45 44 44 45 46 47 46 47 48 48 50 52 50 46 46 42 34 37 42 41 43 43 40 40 41 39 37 35 34 32 31 34 34 33 32 33 32 30 27 30 31
46 47 46 46 46 45 45 44 44 46 46 45 44 46 48 47 47 52 48 48 46 40 24 27 38 41 43 43 38 42 42 39 37 35 35 34 35 33 33 32 33 29 32 31 30 30 23
47 44 46 46 45 45 45 45 44 45 44 46 46 46 47 46 45 45 49 49 43 38 7 31 39 44 44 38 37 40 43 40 36 36 36 32 34 34 32 31 32 30 32 31 31 31 29
45 45 45 45 45 45 44 44 43 42 46 47 47 46 46 45 47 47 51 49 41 26 10 34 38 39 39 38 39 40 40 41 40 36 37 33 36 35 34 34 33 34 32 32 33 32 26
45 45 45 45 45 44 44 44 41 43 47 49 49 49 46 45 41 52 51 44 29 16 29 32 33 37 35 35 37 37 38 37 35 32 30 33 36 37 35 32 34 33 34 26 24 25 21
45 44 44 45 44 44 44 42 41 44 48 48 49 49 48 45 47 49 46 36 18 24 28 32 33 34 31 34 33 34 35 34 36 36 33 29 23 34 37 33 31 32 32 26 18 18 19
43 43 44 44 44 44 43 41 42 47 49 49 49 48 47 48 48 47 40 29 23 26 33 32 32 30 30 32 32 33 33 32 32 37 32 28 27 34 36 36 33 33 30 31 27 26 25
44 44 44 44 44 43 42 41 44 47 49 49 46 44 43 48 48 44 34 29 28 32 34 32 29 30 27 31 31 32 31 30 32 32 35 31 26 30 34 35 35 35 33 28 29 20 18
44 44 44 43 43 43 42 41 44 46 49 49 44 39 45 49 47 40 31 30 34 36 34 31 30 30 30 30 31 31 28 28 32 32 34 32 29 26 35 32 28 33 32 33 30 28 19
45 43 44 43 43 42 42 41 43 46 48 47 43 35 48 50 35 35 35 33 39 37 37 36 34 32 30 31 31 30 28 28 33 34 32 33 31 25 26 29 32 30 30 30 27 23 27
44 43 44 42 43 42 41 41 43 46 48 45 39 40 48 44 32 34 36 36 38 37 35 35 34 35 35 31 30 30 30 33 35 33 32 33 31 24 24 29 30 32 33 33 33 32 26
43 44 43 43 43 43 41 41 44 47 48 48 40 35 39 42 40 37 34 34 35 38 37 36 36 36 34 34 34 32 31 33 35 34 37 35 32 28 23 28 33 31 33 34 32 27 24
43 43 43 43 43 42 40 42 45 47 50 48 41 35 37 32 36 35 34 34 34 33 37 38 37 35 34 33 32 32 32 32 35 36 36 35 31 32 32 32 33 32 32 33 31 29 27
43 43 43 43 42 42 40 41 44 45 49 45 40 39 40 37 38 34 35 32 33 37 36 35 36 35 36 36 34 30 32 32 30 34 34 37 32 34 31 32 32 32 35 34 33 32 30
43 43 43 43 42 42 41 41 43 45 48 43 44 45 41 37 36 34 33 34 33 37 38 37 37 35 37 35 39 39 39 34 34 36 34 37 34 33 28 32 34 32 35 34 34 33 31
42 42 42 42 42 42 41 41 42 44 46 46 45 44 41 36 37 34 34 37 36 36 37 39 39 38 39 44 44 43 41 40 37 37 36 34 35 34 30 34 28 37 39 38 34 34 33
42 42 42 42 42 42 42 41 41 43 46 45 46 45 42 37 36 35 36 36 40 39 40 40 40 41 44 43 38 34 32 34 34 36 37 36 35 34 31 30 32 31 34 36 33 34 35
42 42 41 41 42 42 42 42 40 42 45 46 46 49 45 37 36 36 38 38 37 36 38 40 44 45 44 41 38 32 24 27 28 31 35 37 36 35 32 29 26 29 33 40 39 33 37
43 42 42 42 42 42 42 41 40 43 45 46 45 49 46 40 39 38 36 38 41 40 38 40 41 40 43 38 34 32 28 32 28 28 31 34 35 31 32 32 29 32 33 40 29 27 32
42 42 42 42 41 41 42 39 41 43 45 45 44 47 47 41 40 41 39 39 39 39 37 39 39 40 40 35 36 34 30 31 30 30 32 30 30 33 33 30 24 32 36 32 30 33 34
41 40 41 41 41 41 40 39 40 43 44 45 43 45 48 43 40 45 45 43 42 42 41 42 39 40 41 39 38 37 35 34 30 28 32 31 31 30 31 29 32 34 32 34 35 34 34

GFSGBSN_sfc_dewp_030.txt.gz
Dewpoint
46 47 46 46 46 45 46 46 47 46 48 49 49 50 52 55 57 58 58 56 55 54 53 53 53 55 50 44 43 47 51 48 53 56 52 49 45 42 39 38 41 39 37 39 40 42 40
46 46 45 45 46 46 46 45 44 43 45 47 48 49 49 52 55 57 58 57 55 54 54 53 53 54 44 32 39 43 42 47 53 54 53 50 46 45 41 40 39 39 40 39 40 39 39
44 45 45 45 46 46 47 46 46 45 44 43 46 49 49 49 52 56 57 57 56 55 54 53 53 49 45 38 43 44 43 45 51 53 52 51 48 46 44 42 43 41 39 38 37 37 37
45 46 45 46 46 46 46 46 46 45 44 45 45 48 48 49 49 54 56 58 57 56 55 54 54 46 40 42 45 42 43 43 47 49 52 53 50 48 44 44 41 38 38 33 34 37 37
45 48 47 47 46 47 46 46 45 44 44 45 44 47 49 49 49 52 55 57 57 55 55 54 48 44 39 43 42 41 42 43 45 43 45 51 49 44 43 39 36 36 30 32 33 34 34
48 46 47 47 47 47 47 46 46 44 45 43 45 47 49 49 49 52 53 57 56 54 53 51 47 42 42 39 41 43 43 42 42 43 42 41 39 36 35 35 28 27 31 30 30 32 34
46 46 47 47 47 46 46 46 46 45 45 45 45 46 47 48 49 51 53 55 47 45 46 40 40 37 39 42 44 42 41 40 40 40 37 39 36 32 32 31 31 32 32 31 31 33 32
46 47 47 47 46 47 46 46 45 45 45 46 46 46 46 47 49 49 50 47 44 44 40 43 43 41 43 43 39 41 42 37 38 36 36 36 33 31 33 33 32 32 31 29 30 31 30
47 47 45 46 47 47 46 45 45 45 45 45 46 46 46 46 49 48 47 48 46 44 37 40 42 40 42 42 39 40 40 38 35 35 35 31 31 33 33 32 31 30 30 30 29 29 28
47 44 46 46 46 46 46 45 45 45 44 43 45 47 46 46 46 45 45 51 51 44 36 33 38 40 41 42 37 41 40 37 37 33 34 34 33 32 32 31 31 28 29 30 30 29 25
44 44 45 45 46 45 45 45 45 45 44 45 46 48 47 46 45 41 45 51 49 43 26 32 37 43 41 36 38 40 41 38 34 34 35 32 33 34 32 31 31 30 31 29 29 28 28
45 45 45 44 45 45 45 45 44 43 43 46 47 49 49 45 45 42 49 50 46 32 23 33 38 39 38 36 37 40 39 40 38 34 35 32 35 34 32 32 32 32 31 31 30 30 26
45 45 45 45 45 45 44 44 43 42 45 47 48 49 47 46 40 48 50 43 31 29 30 32 32 38 34 33 35 36 38 37 34 32 33 32 33 34 34 32 34 33 34 25 25 26 20
45 45 45 45 45 43 44 43 42 43 45 49 50 49 47 46 46 49 47 36 28 26 28 32 33 35 33 32 33 35 35 34 34 33 33 30 27 32 36 33 28 31 30 25 17 16 16
46 46 45 44 44 44 44 43 42 44 47 49 48 48 46 47 47 48 39 30 30 26 30 31 33 30 31 31 31 32 32 30 31 33 31 30 28 32 34 33 32 33 31 31 28 26 24
45 45 44 44 43 44 44 43 43 44 47 48 45 44 43 48 47 43 35 33 28 32 32 31 28 28 26 29 30 29 29 30 30 32 34 31 29 29 31 34 35 33 32 29 31 19 16
44 44 44 44 44 44 44 42 43 44 47 48 44 38 45 47 45 38 33 34 34 34 33 30 29 29 28 29 29 28 28 29 32 31 34 32 28 27 33 32 28 32 32 34 29 27 19
43 44 44 43 44 43 44 41 42 45 47 46 42 34 46 46 35 37 36 36 36 34 36 34 32 31 29 30 29 30 28 27 31 33 31 31 30 26 28 27 29 25 26 28 28 24 27
44 44 44 43 43 43 43 40 42 46 47 46 38 40 47 45 34 35 37 37 37 35 34 34 33 34 32 31 29 30 30 32 32 33 30 31 31 26 28 30 29 30 28 28 33 31 28
45 44 43 43 43 42 42 40 43 44 47 48 41 34 40 41 41 37 36 35 34 38 36 36 35 34 33 31 32 31 30 33 33 33 36 35 31 29 24 30 34 32 31 34 33 28 26
43 44 43 43 43 42 43 42 44 46 48 48 43 36 38 34 37 37 35 35 33 33 37 36 35 34 33 31 32 32 31 32 34 35 34 34 31 32 32 31 33 33 32 33 32 32 29
43 42 42 42 43 42 42 43 44 46 48 45 40 39 40 36 36 34 34 33 33 35 35 34 33 34 34 33 31 30 32 33 30 34 33 35 31 34 32 31 32 33 35 36 35 34 34
42 43 43 42 42 42 42 43 43 44 46 43 44 44 42 36 36 34 33 32 33 36 37 36 34 35 34 35 37 38 35 35 33 33 33 34 34 32 30 31 31 32 36 37 35 34 33
43 43 42 41 42 42 42 42 41 43 46 45 44 44 41 35 36 31 33 34 33 34 33 38 38 36 38 42 42 43 41 40 40 37 35 34 35 32 29 31 28 37 38 38 38 36 37
43 43 42 42 42 42 42 43 41 43 45 45 46 44 43 36 34 34 34 36 37 38 37 37 40 41 44 42 38 35 32 33 34 37 37 36 34 32 30 31 30 32 37 38 35 36 36
42 42 42 42 42 42 42 41 40 43 45 45 45 48 46 38 34 34 35 36 36 36 39 39 44 45 44 41 37 32 27 27 29 35 37 37 36 33 30 29 24 30 37 39 38 32 33
41 40 40 41 41 42 42 40 40 42 44 45 44 48 46 42 39 38 36 36 39 38 38 41 41 42 44 38 34 34 30 31 29 30 31 34 34 31 31 31 31 32 33 39 28 28 34
41 40 40 40 40 40 39 39 39 41 43 44 43 47 45 44 42 41 40 40 41 40 38 40 39 40 40 36 35 35 32 31 32 32 33 31 31 31 32 31 28 33 36 33 33 36 35
40 40 39 38 38 38 38 38 39 40 41 43 42 44 45 45 42 46 45 44 42 41 42 41 39 39 40 37 38 38 34 33 33 28 34 33 32 30 32 30 34 34 35 35 36 36 35

GFSGBSN_sfc_dewp_033.txt.gz
Dewpoint
46 46 46 46 47 46 47 47 46 46 45 45 45 45 47 49 50 53 56 58 57 55 55 54 53 55 49 45 42 50 51 51 52 56 53 47 42 40 37 35 35 37 37 34 36 39 39
45 46 46 46 46 47 46 47 47 47 46 46 45 46 46 49 49 50 52 56 58 56 55 54 53 54 45 36 39 44 44 46 48 52 53 49 46 42 40 37 37 37 37 35 37 37 38
46 46 49 47 46 46 48 47 47 46 46 46 45 45 45 48 49 50 51 55 58 57 55 54 54 49 44 39 40 42 42 46 51 50 51 51 48 44 43 40 41 40 38 37 37 37 36
48 49 49 48 47 48 48 48 48 47 47 46 45 45 46 47 49 50 50 53 57 57 55 54 54 45 40 42 43 42 41 45 49 51 51 51 49 46 44 42 39 37 36 33 32 34 34
48 48 47 48 49 48 48 47 46 46 47 46 45 45 45 47 49 49 50 52 55 58 55 54 49 45 39 45 39 39 41 44 46 47 50 51 49 45 44 40 35 35 30 31 31 34 33
47 46 47 49 48 48 47 47 47 46 46 46 45 46 46 46 48 49 50 52 55 57 53 50 45 42 40 38 40 39 41 44 43 45 46 45 43 40 39 39 30 29 30 30 29 30 33
47 49 48 48 48 47 47 48 47 47 46 45 46 46 47 47 48 48 49 49 50 48 50 43 41 36 39 41 41 40 41 43 42 40 36 37 34 32 32 34 32 29 30 28 28 30 30
48 48 46 47 47 47 47 47 46 46 46 46 46 45 47 47 47 47 48 41 46 46 41 42 40 40 40 41 38 39 40 38 38 36 36 36 35 33 31 31 30 30 29 28 28 28 28
47 45 46 46 46 46 46 46 46 46 46 46 44 43 47 47 47 45 44 40 47 50 42 40 40 39 41 41 36 38 39 37 36 34 34 33 31 32 31 31 31 30 29 28 27 29 28
45 46 46 46 46 46 46 46 45 46 46 44 43 44 48 47 44 42 41 48 50 48 35 37 39 39 41 40 38 40 39 36 34 31 33 33 32 30 30 30 30 27 28 28 27 28 24
44 46 47 46 46 45 46 45 45 45 43 44 45 47 47 48 43 40 43 50 50 46 27 36 37 40 40 36 38 39 39 37 32 32 33 32 32 32 30 29 30 29 30 29 28 28 27
45 46 47 46 45 45 45 45 44 44 43 45 46 48 49 48 47 42 46 50 46 31 28 32 38 37 36 35 36 39 38 39 35 32 33 31 33 32 32 31 31 32 29 29 29 28 26
44 46 46 45 45 45 44 45 44 43 44 45 48 47 49 47 40 43 47 43 31 28 30 33 32 36 34 32 34 37 36 35 33 32 33 32 31 32 32 31 32 31 31 26 25 26 20
44 46 45 45 45 44 44 44 44 44 44 46 48 48 47 44 43 46 45 35 28 30 28 30 34 33 31 31 32 32 33 33 33 31 31 29 29 31 34 32 29 29 29 26 17 17 16
44 44 45 45 44 45 44 44 42 43 46 47 48 46 47 47 45 44 40 29 33 28 30 31 33 32 31 30 31 32 31 31 32 32 31 29 28 30 33 32 30 30 30 29 27 24 22
44 45 45 44 44 44 44 44 42 43 47 47 45 43 44 47 46 44 37 27 34 31 31 31 28 28 28 28 30 29 31 30 29 31 31 30 29 28 31 32 32 31 31 28 31 20 17
45 45 45 44 44 44 43 42 42 44 47 48 44 39 45 47 44 39 33 34 34 32 31 30 28 26 26 28 29 28 29 29 30 30 32 30 28 28 30 31 28 30 30 31 29 28 20
45 45 44 44 44 43 43 42 43 45 47 48 42 34 46 44 37 38 36 38 35 33 35 32 30 28 28 28 28 28 28 27 30 30 29 30 27 28 27 26 27 27 28 28 29 23 28
43 44 44 44 44 43 43 43 44 45 48 47 39 38 46 45 34 36 37 37 35 34 33 33 32 31 31 29 28 29 29 31 31 31 29 30 29 27 29 28 28 28 27 27 31 33 29
44 44 43 42 43 44 43 43 43 45 48 49 41 33 39 41 41 37 37 37 35 37 35 34 33 32 31 30 31 30 29 33 32 31 37 35 29 29 26 32 33 33 31 31 34 30 27
43 43 44 42 43 43 43 43 43 47 49 48 43 37 38 35 37 38 37 37 33 32 35 35 33 32 31 30 31 30 30 32 34 35 33 33 32 30 31 30 33 33 31 33 33 33 30
44 44 43 42 42 43 43 43 43 47 48 44 39 40 40 35 35 35 36 35 32 34 33 33 32 33 32 31 31 29 31 31 29 33 33 34 31 34 31 28 30 31 30 34 37 37 36
43 43 43 42 43 43 43 43 42 45 47 43 44 44 43 35 34 31 32 33 32 34 36 35 33 33 33 34 36 37 35 33 32 33 32 33 34 32 27 30 29 31 36 37 37 38 38
42 41 42 42 42 42 43 43 41 44 46 45 44 43 41 34 34 30 31 32 32 32 33 36 36 34 38 39 39 40 40 39 38 37 37 33 33 33 29 29 27 31 34 37 37 38 38
41 41 40 41 42 42 43 42 41 43 45 45 45 43 42 33 33 31 31 33 34 36 36 37 39 42 42 40 37 33 34 35 34 37 38 35 32 30 28 25 27 30 33 35 37 37 36
41 40 40 40 41 41 41 40 40 41 43 44 45 47 44 39 33 33 33 34 34 34 37 38 43 45 43 40 37 32 28 25 29 34 36 35 35 32 29 27 23 29 34 35 38 34 35
41 40 40 39 38 38 38 39 39 40 41 43 44 46 44 42 39 34 32 34 36 37 37 39 41 42 43 38 35 33 29 28 26 27 33 35 35 32 31 29 27 30 33 39 30 30 37
41 40 40 39 38 38 38 38 39 40 40 42 43 46 43 42 41 39 38 37 39 38 36 41 39 40 40 36 36 34 32 31 29 29 31 30 30 31 32 32 28 33 34 33 35 36 36
41 40 40 39 39 38 38 38 39 39 40 42 41 44 44 42 44 46 44 44 42 41 40 41 40 38 40 37 38 38 36 31 30 25 34 30 30 31 31 31 34 35 36 37 37 37 36

GFSGBSN_sfc_dewp_036.txt.gz
Dewpoint
47 48 47 49 48 48 47 48 48 48 48 48 47 47 46 46 47 48 51 52 55 58 57 55 54 55 50 46 44 54 57 55 55 57 54 51 42 40 38 36 37 36 36 36 36 37 37
48 49 50 50 49 47 48 49 49 48 49 48 48 47 47 46 46 48 49 51 53 56 58 55 54 55 47 37 41 46 45 45 47 51 54 52 43 42 40 36 35 36 36 36 36 34 36
51 49 49 48 48 48 49 49 48 49 48 48 48 47 46 46 46 47 49 50 52 54 58 55 54 50 44 40 40 41 43 43 48 48 52 52 49 45 44 40 41 39 37 38 37 36 36
49 48 48 49 49 49 48 48 48 49 48 47 48 47 46 46 46 47 49 50 50 53 57 56 54 47 41 43 44 42 40 42 47 51 50 54 52 47 44 43 40 38 38 35 34 36 35
49 47 49 50 49 48 48 49 49 49 48 48 47 47 47 47 47 46 48 49 50 52 56 56 50 47 39 45 39 41 40 41 45 50 51 51 50 45 44 41 37 35 32 32 32 34 33
48 50 50 46 48 47 48 48 47 47 47 47 46 47 47 47 47 47 48 49 50 50 55 52 47 43 40 39 39 39 40 44 43 45 49 49 45 42 41 39 31 31 32 31 30 32 33
50 47 46 47 47 48 47 47 46 47 47 46 47 47 47 45 47 48 47 47 46 46 50 43 42 37 37 40 41 39 40 43 43 43 40 45 40 38 37 37 36 35 31 28 29 29 29
47 46 46 48 48 47 47 46 46 46 46 46 47 46 44 46 47 48 46 40 41 46 42 45 43 39 40 41 37 39 42 41 40 40 38 36 33 34 34 35 35 30 28 28 29 28 28
47 47 47 48 48 47 47 46 46 46 46 46 45 44 45 47 48 45 43 40 45 46 41 41 41 39 40 40 37 38 40 38 38 36 36 32 32 34 33 31 30 30 29 28 27 28 28
47 46 47 47 47 46 46 46 45 45 45 44 44 46 47 47 45 42 40 46 49 47 33 39 40 39 41 40 36 39 40 37 36 35 34 34 33 30 30 31 30 28 29 29 28 28 24
47 47 47 47 46 46 45 45 45 44 44 44 46 46 48 48 44 40 43 48 49 46 24 39 39 41 41 36 38 37 40 36 32 32 33 33 32 32 31 29 30 28 31 29 29 28 26
46 46 46 46 46 45 45 45 45 44 44 45 46 47 48 47 47 42 44 47 44 30 24 36 39 37 37 37 36 37 37 39 37 32 32 32 33 33 32 31 31 32 30 29 29 28 23
45 45 46 46 45 45 45 45 45 43 43 45 46 48 47 47 42 46 46 42 29 25 35 34 35 36 34 34 36 36 36 35 33 31 32 32 32 33 33 31 33 32 31 23 22 24 19
44 46 46 46 45 45 44 45 43 43 44 46 47 48 47 43 46 46 44 35 26 33 34 31 35 35 31 33 34 34 35 33 34 31 32 29 27 31 32 31 30 31 29 23 17 19 19
45 47 46 45 44 45 44 44 42 42 46 48 48 46 47 47 47 46 40 27 30 33 30 33 34 32 31 31 32 33 32 31 30 32 30 29 28 32 33 32 32 30 28 29 24 23 19
45 46 46 45 45 45 44 44 43 45 47 49 47 43 44 48 46 44 36 29 34 37 32 31 29 30 27 29 30 31 31 31 30 31 31 32 27 30 32 31 31 30 30 28 28 16 15
45 45 44 44 44 44 44 44 44 46 49 48 44 39 45 47 46 39 31 31 36 38 32 33 28 27 26 28 29 28 27 30 30 30 31 31 29 28 31 30 29 29 29 30 29 28 20
44 43 45 44 44 44 44 44 44 46 50 46 40 34 45 47 35 36 35 37 39 37 34 31 29 27 26 27 28 27 28 28 31 31 29 30 29 25 28 28 30 29 28 27 25 20 26
44 45 45 43 44 44 44 44 44 46 49 47 40 39 46 46 33 35 37 38 38 36 34 32 31 29 28 29 27 29 30 32 32 31 30 31 28 22 26 28 27 28 28 28 29 31 26
45 45 44 43 43 45 44 44 44 47 48 49 42 33 39 42 41 36 37 35 34 38 35 34 31 32 29 30 30 29 31 33 33 33 38 34 31 26 22 29 33 30 31 30 31 29 26
44 44 43 43 43 43 43 44 44 48 49 48 43 37 38 35 37 37 38 36 33 33 36 36 33 32 30 28 30 29 30 33 33 36 33 33 30 29 30 29 29 30 31 31 32 33 30
43 43 42 43 42 42 43 43 44 47 48 43 39 39 41 35 37 35 37 37 34 34 34 33 32 32 32 30 31 30 30 29 31 33 32 34 30 30 27 29 29 28 29 31 33 37 37
42 42 41 41 42 43 44 42 42 45 46 43 44 43 42 35 33 33 34 33 32 35 37 35 34 33 33 35 36 37 36 33 33 32 31 34 33 32 23 29 28 29 32 36 37 38 38
42 42 41 41 41 42 42 42 41 42 44 45 44 43 39 34 34 31 32 33 33 33 34 36 36 36 38 40 39 39 38 38 38 36 37 36 34 33 27 29 24 34 38 36 36 37 38
42 42 41 40 40 39 39 40 40 41 42 43 45 43 41 37 33 31 31 33 35 37 36 37 40 42 42 40 35 33 34 34 35 37 36 38 36 32 27 26 27 27 33 35 35 35 39
43 41 41 40 40 39 38 38 39 41 41 42 45 47 44 40 33 31 30 33 32 34 36 40 43 44 42 40 36 30 28 29 32 34 37 38 37 32 30 27 23 29 34 35 39 34 37
44 41 41 41 40 39 39 38 39 40 40 42 44 46 43 41 40 35 33 33 38 37 38 39 41 42 42 38 34 30 29 30 26 32 31 34 34 31 31 29 28 29 35 39 32 31 37
43 41 41 41 40 39 39 39 39 39 40 42 42 45 42 41 43 41 39 37 38 39 37 41 40 40 39 35 34 34 33 32 31 33 32 31 31 30 32 30 25 33 34 33 36 37 36
43 40 41 41 40 40 39 39 38 39 39 41 41 44 43 41 44 46 45 44 43 44 42 41 41 38 40 37 36 38 36 35 29 29 32 30 31 31 30 30 33 36 36 38 37 36 36

GFSGBSN_sfc_dewp_039.txt.gz
Dewpoint
49 52 50 50 49 49 50 50 50 50 50 49 49 48 47 48 47 47 47 47 50 54 55 58 56 54 53 47 45 55 58 60 57 57 55 53 48 42 39 39 39 37 37 37 37 38 36
53 50 50 49 49 49 51 50 49 49 50 50 49 48 48 47 47 46 46 47 49 52 54 57 56 55 50 41 46 51 51 53 54 56 54 53 46 42 40 38 36 36 38 38 38 38 37
49 49 48 50 50 49 49 48 50 50 50 50 49 47 48 48 47 47 46 47 49 50 52 56 56 51 46 42 39 42 44 44 47 51 53 53 51 45 43 40 42 39 37 38 38 38 37
48 49 52 50 47 46 48 49 49 48 48 47 47 48 48 47 47 47 47 47 49 49 51 54 57 49 43 46 45 42 41 42 47 49 52 54 53 48 45 43 40 37 38 35 37 37 37
48 50 49 46 48 49 49 48 48 47 47 47 47 47 47 47 47 47 47 48 48 49 51 53 52 47 40 48 43 42 40 40 45 50 51 54 53 47 45 40 38 36 32 34 35 35 36
50 49 47 48 49 49 48 48 47 47 47 47 47 47 48 47 46 46 48 48 48 48 49 52 50 43 43 40 41 42 41 41 44 50 49 50 47 44 42 40 32 32 33 32 32 32 33
48 48 48 48 49 48 48 47 47 47 46 46 46 47 46 45 47 47 47 45 41 42 46 43 42 41 40 42 41 42 40 44 43 45 43 47 41 39 38 39 37 35 35 30 29 30 28
48 48 46 49 48 47 47 46 46 46 46 45 46 45 45 46 47 48 45 40 40 42 37 45 45 43 41 41 38 39 42 41 42 40 38 38 35 38 39 38 37 36 32 28 29 29 28
47 48 48 48 47 46 46 46 46 46 45 44 44 45 46 47 47 45 42 40 47 43 37 43 46 42 40 41 38 38 42 41 41 39 36 34 33 35 34 34 33 30 29 29 28 29 28
48 45 46 47 46 46 46 46 46 45 44 44 45 46 47 47 45 44 41 46 47 44 32 37 42 41 41 42 38 40 42 40 38 36 36 34 34 33 33 32 30 28 30 30 29 27 23
46 46 47 47 47 46 46 45 46 45 44 44 45 46 46 47 45 40 43 48 48 43 21 38 41 43 42 39 38 38 41 39 35 36 35 33 33 32 30 31 31 30 31 30 30 27 25
45 47 48 47 46 46 45 45 46 44 43 44 45 46 48 47 47 44 44 47 43 28 20 36 40 38 38 38 38 38 39 40 38 35 34 32 34 33 32 32 32 32 29 29 29 27 19
45 46 47 46 46 45 45 44 45 43 44 45 46 48 48 47 42 45 45 41 26 22 35 34 37 37 36 36 35 36 36 35 32 30 31 32 32 33 33 31 32 33 26 17 20 23 17
44 44 46 46 46 45 45 44 44 45 46 48 48 50 47 46 46 46 41 32 18 32 33 38 36 35 34 35 34 35 35 32 35 31 28 25 22 32 32 31 30 30 28 18 15 17 20
45 44 45 46 44 45 45 45 44 46 48 50 50 45 46 46 46 44 38 23 27 33 37 36 35 34 34 33 35 34 34 32 31 32 26 26 27 32 32 32 32 30 24 28 22 22 15
44 45 44 46 44 45 45 45 44 47 50 49 44 42 44 46 45 42 35 31 31 38 36 35 32 31 31 31 32 32 32 32 30 32 32 31 28 32 33 33 33 29 30 25 22 10 14
43 45 46 45 43 44 45 45 44 48 50 47 40 38 44 47 43 39 28 32 34 39 36 33 30 29 28 30 31 30 30 31 31 31 32 31 29 30 33 30 28 29 28 29 26 25 18
45 45 45 45 43 45 44 45 44 48 50 44 37 31 42 46 34 37 34 37 36 37 39 35 29 29 27 30 29 27 28 29 31 32 30 31 30 26 26 29 31 30 28 27 19 16 23
45 44 43 45 45 44 44 45 44 47 48 45 35 35 45 45 32 34 37 35 37 38 35 34 33 30 29 29 26 29 30 32 33 31 31 31 26 17 24 27 29 29 29 28 28 29 21
43 43 43 42 43 44 44 44 44 46 48 45 36 28 36 41 41 35 35 35 36 41 36 33 30 29 31 31 30 31 30 32 33 34 39 34 29 22 19 26 30 24 30 29 29 28 25
43 43 42 42 43 44 44 43 44 46 48 47 41 33 36 31 37 37 39 36 36 34 37 36 32 30 30 30 30 31 32 32 32 37 33 32 23 27 29 30 28 27 28 30 30 30 29
43 42 42 41 41 41 42 42 42 45 46 42 38 39 38 35 38 35 38 37 36 35 35 33 33 34 32 31 31 29 32 32 31 33 32 33 26 27 24 29 30 29 29 29 30 30 31
42 43 41 42 41 40 39 40 41 42 44 42 43 43 42 35 33 33 34 34 35 36 36 36 34 36 36 36 37 36 34 33 33 32 31 33 29 23 18 27 28 28 29 29 34 38 37
42 44 42 41 40 40 39 39 40 41 42 43 43 43 39 32 34 32 34 35 35 35 35 38 40 37 39 40 40 39 38 37 35 35 34 33 31 30 23 27 23 32 35 35 35 36 37
42 44 42 41 41 40 39 39 39 41 41 42 44 43 41 34 33 32 32 35 35 37 38 40 41 42 41 39 36 33 33 34 35 36 37 37 34 28 26 25 26 29 33 35 35 34 37
42 44 41 41 41 40 39 39 39 40 40 42 44 46 43 38 33 39 31 36 34 36 35 41 43 43 41 39 34 28 27 30 31 33 37 37 37 34 30 26 22 28 33 36 39 32 36
43 44 39 42 41 40 39 38 38 38 40 41 43 45 42 40 41 41 32 33 38 37 38 40 41 41 41 35 31 28 28 31 29 30 30 35 35 31 29 28 28 30 31 39 30 30 36
42 44 40 41 41 40 39 37 38 37 39 41 41 45 41 40 41 44 43 38 38 39 37 39 38 40 38 36 32 31 31 32 32 33 32 31 31 32 33 30 23 31 35 34 34 38 37
41 44 39 41 41 40 38 37 38 38 38 40 40 43 43 40 42 46 46 44 43 43 41 40 40 38 40 36 34 36 33 33 31 28 33 31 31 31 30 29 31 34 37 37 36 36 36

GFSGBSN_sfc_dewp_042.txt.gz
Dewpoint
51 50 49 49 50 51 50 48 48 50 51 51 50 50 50 49 49 48 47 46 46 46 49 54 55 57 53 47 45 50 58 58 55 56 52 52 49 44 40 40 40 38 37 38 39 39 37
50 50 50 52 49 48 48 50 49 49 49 49 49 49 48 48 48 48 48 47 46 46 48 52 54 56 50 40 46 50 54 56 55 56 54 53 50 45 40 39 39 38 38 37 38 38 38
49 49 51 47 48 49 50 50 49 49 48 48 48 48 48 49 48 48 48 47 47 47 49 50 53 53 46 40 42 50 51 53 55 55 52 53 52 45 42 40 40 39 36 38 37 38 37
48 51 48 48 48 50 50 49 49 48 48 48 48 48 47 47 47 47 47 47 47 48 49 50 51 53 42 46 45 44 41 42 46 52 54 54 53 47 44 42 39 37 37 34 35 37 36
51 48 49 47 49 49 49 48 47 47 47 47 47 47 47 48 47 47 47 48 48 48 48 49 48 49 39 50 43 44 41 41 44 49 51 54 53 48 44 39 36 35 31 34 35 37 36
48 48 49 48 49 48 47 46 46 46 46 46 46 46 47 46 45 47 47 48 48 47 47 47 48 43 42 40 43 43 41 41 45 50 50 51 50 45 43 38 32 32 32 32 32 32 33
47 48 47 48 48 47 47 46 47 46 46 46 45 45 46 45 46 47 46 43 37 39 44 42 42 41 40 43 43 43 41 40 46 47 42 47 42 39 41 40 35 34 34 34 32 30 28
48 48 46 48 48 47 47 47 46 46 46 45 44 45 45 46 47 48 46 40 38 40 34 39 43 43 43 41 38 41 42 42 42 41 42 43 39 40 41 41 38 37 34 30 29 30 28
46 46 47 48 48 47 47 46 46 47 46 45 45 45 46 47 47 45 43 40 45 44 36 36 43 42 40 40 38 39 41 42 40 40 36 36 35 37 37 37 37 32 29 28 28 29 28
47 45 48 48 47 47 46 46 46 46 46 44 44 45 46 47 45 45 41 44 46 44 30 31 40 44 41 42 38 40 44 41 40 39 36 34 34 34 35 33 30 28 30 30 29 27 23
46 44 47 48 46 46 46 46 45 45 44 44 45 45 46 48 46 42 43 47 46 41 11 37 40 46 42 39 38 39 42 39 37 37 36 33 33 31 30 31 31 29 31 29 29 27 24
44 45 46 47 46 44 46 46 45 44 46 47 47 48 48 48 46 44 47 47 43 28 16 36 41 40 38 37 38 39 39 39 38 36 34 32 34 33 31 32 31 31 28 28 29 25 17
44 45 45 47 46 44 46 45 44 46 47 49 50 49 49 48 43 46 46 43 23 21 33 33 37 37 35 35 36 38 37 34 32 32 33 33 32 33 33 31 32 29 25 17 14 13 15
44 45 45 46 44 44 45 45 45 46 49 50 50 49 47 47 47 44 42 32 19 29 33 38 35 36 35 34 35 36 35 32 34 31 30 27 22 30 32 31 30 29 25 18 11 17 19
44 46 46 46 43 45 45 45 45 48 50 48 46 45 45 46 46 43 37 21 26 31 37 34 35 35 34 35 35 34 33 32 32 31 26 24 25 33 32 32 31 29 24 27 21 20 15
45 46 45 45 43 46 44 45 45 49 50 48 42 42 43 47 44 42 34 30 31 35 38 35 32 34 32 33 33 33 31 32 30 32 32 30 25 32 33 33 34 28 29 22 17 9 12
45 44 43 44 43 42 44 45 44 47 50 46 39 38 42 46 43 38 30 33 35 38 39 34 32 30 31 30 30 29 28 31 31 30 32 30 28 29 33 29 28 31 28 27 25 22 17
44 43 43 42 42 44 45 45 44 46 49 45 36 31 41 46 33 37 33 35 36 36 40 38 30 31 30 31 30 29 29 30 31 32 30 31 29 20 28 29 30 29 28 26 17 13 20
43 43 43 42 42 44 44 44 44 45 47 46 34 36 44 44 33 31 36 36 36 39 38 35 29 30 31 29 28 28 29 33 33 32 31 30 25 17 23 26 29 28 29 28 27 29 16
44 43 42 42 41 41 41 42 43 44 46 43 34 26 36 41 40 36 34 36 36 39 38 32 30 30 31 29 30 31 29 33 35 35 39 34 28 22 20 20 26 22 28 29 28 26 22
42 44 42 42 41 40 40 40 42 44 46 46 39 32 35 31 37 38 38 37 34 35 36 34 31 32 31 30 31 31 31 31 34 36 34 30 23 25 27 29 27 27 28 29 24 27 23
42 44 42 42 41 40 40 40 41 44 44 41 37 37 38 38 37 34 36 35 34 35 35 33 34 34 32 32 31 30 31 31 29 32 31 32 21 26 24 28 29 27 28 28 28 28 29
42 44 42 42 41 40 40 40 40 42 43 40 42 43 41 35 34 31 32 32 34 34 36 38 36 35 35 36 36 34 32 32 32 30 31 31 27 24 21 26 27 25 28 29 29 31 30
41 43 43 42 42 40 40 39 39 40 41 42 42 42 38 32 33 32 34 35 35 35 35 38 39 37 39 40 39 38 37 36 34 33 33 31 30 27 20 25 19 31 33 32 29 32 36
41 43 43 42 42 41 39 39 39 39 40 41 43 42 40 33 34 32 34 35 36 37 39 40 41 41 42 39 35 32 32 34 34 36 36 35 33 28 22 22 25 29 33 34 33 32 36
41 43 44 39 42 41 40 39 37 38 39 41 43 45 42 38 33 39 33 35 34 34 34 39 42 43 41 38 33 28 28 30 31 35 37 37 37 31 26 24 22 27 32 37 37 32 37
41 42 44 40 42 41 40 37 37 38 37 40 42 44 41 39 40 40 32 33 37 37 37 40 40 39 39 35 31 28 27 32 29 29 33 35 34 29 28 25 28 30 31 39 30 31 37
42 42 44 39 41 41 39 38 37 37 37 39 40 44 41 39 40 43 44 38 37 38 36 38 38 38 37 33 30 30 30 31 30 31 32 31 29 29 30 28 23 31 37 35 35 37 37
43 41 43 40 41 41 39 40 40 39 35 39 39 43 43 39 40 43 44 45 43 43 41 39 39 37 39 35 33 34 33 32 30 27 33 30 31 30 31 29 31 31 36 37 36 36 35

GFSGBSN_sfc_dewp_045.txt.gz
Dewpoint
50 50 50 51 49 48 50 51 51 50 50 49 49 48 49 49 49 49 49 49 48 46 45 46 50 53 54 45 43 48 56 58 55 56 53 50 47 44 41 41 40 38 38 39 39 39 39
50 50 52 48 49 49 50 50 50 49 49 49 48 48 48 48 48 48 48 48 48 47 47 47 50 53 49 38 44 47 50 54 55 55 52 52 48 45 42 39 40 39 39 38 38 37 38
50 51 49 49 47 50 50 49 48 48 47 47 48 48 48 48 48 48 48 48 47 47 48 48 49 50 48 41 43 48 54 54 55 55 52 53 50 44 42 39 39 39 36 37 37 38 37
50 49 49 49 50 50 49 48 47 47 47 46 47 47 46 47 48 48 48 48 47 47 48 48 49 50 45 46 46 44 42 49 56 57 54 54 51 47 43 42 39 37 36 34 35 36 36
50 49 49 47 49 49 48 47 47 47 47 46 46 47 46 46 47 46 48 48 47 48 48 48 46 47 41 49 44 43 42 42 46 51 54 52 52 46 43 39 35 34 31 33 34 36 36
48 49 48 48 48 49 48 48 47 47 46 46 46 45 45 46 46 47 48 48 48 47 46 46 45 44 44 41 43 43 42 42 45 50 50 51 49 43 42 37 31 32 31 31 32 32 33
49 47 47 49 49 49 48 47 47 47 47 47 46 45 46 46 47 47 48 43 37 36 42 37 40 39 42 43 44 43 41 40 49 48 44 47 43 39 40 38 35 33 34 33 34 32 28
49 48 47 49 49 47 47 47 47 47 46 47 46 44 45 46 47 48 46 40 37 38 32 38 38 42 45 43 41 42 41 39 44 42 44 44 39 41 43 42 40 37 34 32 30 30 28
48 46 46 47 49 48 46 47 47 46 45 45 44 44 45 46 47 45 43 40 43 43 34 33 40 43 44 41 40 41 39 42 41 41 40 36 38 42 41 40 39 36 32 30 29 29 28
47 45 46 47 48 47 45 47 47 45 45 46 47 47 46 46 45 45 41 45 44 43 21 32 37 42 44 42 38 41 43 42 41 39 37 34 33 38 37 37 35 29 30 30 28 27 24
46 46 45 45 48 45 46 46 45 46 48 48 49 49 48 47 44 43 44 47 45 41 -5 31 39 49 43 39 38 39 44 40 38 37 34 33 32 34 35 34 31 29 31 29 28 26 23
45 45 46 47 47 43 46 46 46 47 50 50 50 49 49 47 47 45 47 46 41 21 16 33 40 39 38 38 38 41 40 39 40 35 34 32 34 33 31 32 32 31 28 27 28 24 17
45 45 47 47 45 44 46 45 46 48 50 48 49 49 48 47 40 47 47 42 20 11 34 33 35 37 35 36 38 38 37 34 34 33 33 32 31 33 33 31 32 29 26 16 13 13 15
44 46 46 45 46 44 44 46 45 48 50 48 47 47 47 45 47 45 41 29 16 29 30 38 37 35 36 35 37 36 34 32 33 33 32 28 27 30 32 31 30 28 25 18 11 14 17
44 46 44 44 43 43 45 45 44 47 50 50 46 43 44 46 46 43 38 25 25 30 34 37 36 35 35 36 36 35 33 32 32 30 26 24 24 32 32 32 31 29 22 26 21 18 15
45 45 44 43 44 45 45 45 45 46 48 49 40 40 41 46 45 41 34 29 31 34 36 34 33 35 30 33 35 33 31 32 31 32 32 28 26 32 32 33 33 28 29 23 17 4 11
44 45 44 43 43 42 43 44 44 45 47 46 37 34 40 45 42 34 29 32 34 37 39 34 32 31 31 30 32 30 30 31 31 31 32 30 28 31 33 29 29 29 27 26 25 21 15
44 45 43 43 43 42 42 42 44 45 47 45 35 26 39 44 29 34 34 36 37 37 39 38 32 31 30 30 29 29 28 30 32 32 29 30 28 29 29 29 30 29 27 25 17 13 23
43 44 43 43 43 42 41 42 43 45 46 46 32 33 42 41 32 33 35 35 37 38 38 35 29 30 31 29 26 28 30 33 33 31 30 29 24 17 22 25 28 28 28 26 25 23 14
43 43 44 43 43 42 41 41 42 44 46 43 34 28 34 39 40 36 35 36 36 39 36 32 30 31 29 29 30 29 29 34 34 33 38 33 26 21 17 20 25 23 28 28 25 19 21
42 43 45 43 43 42 41 41 41 43 45 43 35 33 38 29 35 37 38 37 34 34 34 33 30 31 31 30 31 30 31 31 34 38 34 30 23 25 27 28 27 27 27 28 23 26 20
42 42 45 43 43 41 41 40 40 42 44 41 37 37 37 35 35 34 34 33 33 35 35 33 33 35 32 31 31 31 30 30 29 31 32 30 23 26 23 27 28 27 28 28 28 28 28
41 42 44 43 43 42 41 40 40 40 42 39 41 42 41 33 33 31 32 34 34 34 37 39 36 35 35 36 36 33 31 31 31 30 31 29 27 23 20 25 27 24 27 28 28 29 28
42 42 44 42 42 42 41 39 39 39 41 40 42 41 38 31 32 32 33 35 36 36 36 39 40 36 39 39 38 37 36 34 33 32 32 30 28 27 20 23 19 25 31 30 28 29 31
42 41 43 44 40 42 41 39 38 38 38 39 42 41 39 33 34 33 34 36 35 36 38 39 40 40 42 39 34 31 32 31 34 35 34 34 33 28 25 19 22 28 31 33 31 31 34
42 42 42 45 40 42 41 39 38 38 38 38 42 45 41 37 33 38 37 35 32 32 34 38 41 42 40 36 33 27 26 28 32 35 38 36 36 32 28 23 21 28 33 37 36 30 36
42 42 42 44 40 41 41 39 37 36 37 37 41 44 40 38 39 40 33 34 36 35 35 39 39 37 38 34 30 27 27 31 28 31 33 34 35 30 26 24 26 29 30 39 28 32 36
41 43 42 43 42 40 42 39 37 37 36 36 40 44 40 38 39 41 43 39 37 37 35 37 36 36 35 31 29 29 29 31 29 31 32 32 31 29 30 26 22 31 37 34 35 37 36
42 42 42 42 41 39 41 41 41 40 38 36 38 43 43 38 39 42 42 43 43 43 41 40 38 37 38 36 32 34 32 33 31 27 33 31 31 30 29 27 30 32 32 36 37 35 35

GFSGBSN_sfc_dewp_048.txt.gz
Dewpoint
50 50 52 50 51 49 50 51 50 50 48 47 48 48 48 48 48 49 48 49 49 48 48 47 46 47 51 45 42 48 53 54 51 54 53 50 46 44 40 41 40 38 38 40 40 40 39
51 50 49 50 50 50 50 50 49 48 48 48 47 47 48 47 48 48 48 48 48 48 48 47 47 48 48 41 44 45 45 54 51 54 53 51 47 45 42 40 39 39 39 38 38 38 38
50 50 50 49 49 49 49 49 48 48 47 48 48 47 47 46 47 47 48 48 48 48 48 47 47 47 46 42 44 45 51 53 53 55 53 51 49 45 42 39 41 38 36 37 37 38 37
51 49 50 48 48 49 50 49 49 48 48 47 47 46 46 47 46 47 47 47 47 47 47 47 47 47 42 48 50 48 43 55 56 56 53 53 50 45 42 41 38 37 36 33 35 37 37
49 49 48 48 50 50 50 48 48 48 48 48 48 47 46 45 46 46 47 48 48 48 48 47 45 44 40 49 47 47 44 50 54 54 55 51 51 45 42 38 35 35 30 33 34 36 35
48 49 47 47 48 49 49 47 48 48 48 48 48 47 46 46 46 46 48 48 48 46 45 45 44 40 45 41 45 44 43 47 47 51 50 49 47 43 40 37 29 32 30 31 32 32 34
49 48 47 47 48 49 49 46 48 48 48 46 45 45 44 44 46 47 47 43 36 34 40 35 36 38 42 44 47 44 42 45 50 49 45 46 43 39 38 38 34 34 33 31 33 33 29
47 47 46 47 48 48 46 46 48 47 46 47 47 46 46 44 46 47 45 39 36 38 33 36 36 37 39 45 42 43 41 40 45 41 45 42 39 43 41 39 36 35 34 32 32 30 29
47 46 46 47 47 48 44 47 46 46 48 49 49 49 48 47 45 44 42 40 42 42 33 35 38 41 43 46 41 41 39 42 42 42 41 38 40 43 41 41 39 38 35 32 31 29 28
47 46 46 48 48 45 45 47 46 48 49 50 48 49 49 47 43 45 41 45 44 45 15 31 35 41 43 44 40 41 41 43 42 39 38 34 41 41 41 39 39 35 33 30 28 27 25
46 46 47 47 47 44 46 45 48 48 50 49 50 50 48 47 44 41 43 46 45 38 -8 30 37 48 46 40 41 40 45 42 39 39 39 34 38 40 39 38 37 30 31 29 28 26 22
46 46 47 45 46 44 44 47 47 48 49 48 49 49 48 47 46 45 46 44 39 17 10 31 39 38 38 37 40 42 42 41 40 36 35 33 34 34 32 33 32 31 27 27 26 24 17
45 46 46 45 44 45 46 46 46 47 48 49 48 48 47 46 40 47 46 38 17 12 32 32 34 37 36 36 38 38 37 35 36 32 30 32 32 33 33 30 31 29 29 25 13 14 15
45 46 45 45 44 43 44 45 45 46 48 50 47 47 46 46 48 43 41 29 13 28 30 36 37 38 36 36 37 37 35 32 33 34 30 27 28 31 32 30 29 27 26 19 9 14 16
45 46 45 45 44 44 43 44 45 45 48 50 45 41 44 46 45 43 34 19 21 28 33 34 37 34 35 37 36 37 33 31 32 31 28 25 25 32 32 32 31 28 23 26 21 18 15
44 46 45 44 44 44 43 44 44 45 47 48 39 38 39 45 46 40 27 27 30 34 36 35 32 32 30 35 33 34 31 32 31 32 31 28 26 31 32 32 32 29 29 22 17 10 10
44 45 46 44 44 43 43 43 44 45 47 46 36 32 38 44 40 34 29 32 34 37 39 33 32 31 31 33 31 30 29 31 32 31 31 30 28 31 32 29 28 28 26 26 24 21 14
44 44 46 44 44 43 43 42 43 45 46 43 33 27 38 42 32 34 34 36 38 37 38 33 31 31 30 29 28 29 29 29 32 32 29 30 29 29 29 29 30 29 27 25 16 15 23
44 44 45 45 44 43 42 42 42 44 46 46 32 32 40 40 33 34 35 36 37 37 37 31 30 31 30 28 26 28 29 33 33 31 29 28 24 18 26 28 28 28 28 25 24 21 14
43 43 44 45 44 43 42 41 42 43 45 43 33 29 34 38 40 37 36 36 35 38 34 31 30 30 29 29 30 29 29 35 34 32 38 32 25 21 18 21 26 24 28 26 24 18 19
43 43 43 46 45 43 42 41 41 42 44 41 34 34 38 34 36 36 37 36 33 33 34 33 31 31 31 29 30 29 30 31 34 38 33 29 22 23 26 27 26 26 27 27 21 24 19
43 43 43 45 44 43 43 41 41 41 43 39 36 35 38 35 35 34 33 32 33 35 35 32 33 34 32 30 30 29 30 30 30 32 31 29 26 26 22 26 28 27 28 28 28 27 27
43 43 43 45 42 43 43 41 40 40 41 35 41 41 38 34 31 30 31 33 34 34 37 38 36 35 34 36 35 32 31 31 31 30 30 30 27 23 18 25 26 24 27 27 28 29 28
42 42 42 44 43 41 43 41 40 39 40 39 41 41 36 30 31 31 32 36 36 35 36 39 39 36 38 39 37 35 35 33 32 33 31 29 27 27 20 22 17 21 31 28 27 27 29
42 42 42 43 45 42 42 41 39 39 38 37 40 40 39 33 32 33 35 35 34 36 37 37 39 39 40 37 33 30 31 31 34 35 34 32 32 27 24 20 21 26 31 30 29 31 31
42 42 43 42 45 42 41 41 39 38 37 36 40 44 41 36 32 37 36 34 31 31 33 36 39 41 39 35 31 26 24 27 31 34 37 36 33 27 27 22 20 25 33 36 35 32 34
42 42 43 43 43 44 41 42 39 38 37 36 37 43 39 36 37 40 35 33 35 33 33 35 37 35 36 31 29 25 26 31 28 30 31 33 34 29 26 24 25 27 30 38 31 31 36
42 42 43 43 42 43 41 41 39 39 39 36 35 43 40 36 38 40 44 38 36 36 34 35 34 35 34 30 28 27 26 31 29 31 29 28 28 29 29 26 21 30 37 35 35 37 37
41 42 43 42 42 44 41 40 39 41 40 37 34 41 43 37 38 41 41 41 43 42 39 39 37 37 37 34 30 32 32 34 31 29 33 30 31 28 27 26 29 32 32 33 37 36 35

GFSGBSN_sfc_dewp_051.txt.gz
Dewpoint
49 50 51 50 51 49 49 50 50 50 49 49 48 48 48 48 48 47 48 48 48 48 48 48 48 47 47 47 44 48 52 49 52 51 52 49 48 46 42 41 40 39 39 40 40 40 39
49 51 49 50 48 49 51 51 50 50 49 49 49 48 47 47 47 46 46 48 48 48 48 48 48 49 44 39 45 49 45 47 50 50 52 50 47 45 42 41 39 40 39 39 39 38 38
50 50 50 49 48 50 50 50 49 48 49 48 49 48 47 47 47 47 47 47 47 47 47 48 47 45 43 40 44 49 47 53 51 50 52 52 47 44 42 40 41 40 38 38 37 38 37
49 49 50 48 48 49 50 50 48 49 49 49 48 49 48 47 47 46 47 47 47 48 48 47 46 45 38 47 50 48 49 50 53 54 53 53 49 45 42 41 39 37 36 34 36 38 37
49 49 48 48 49 49 49 49 47 47 49 49 48 46 47 47 45 46 46 48 48 49 48 47 45 42 37 50 47 47 48 45 54 55 54 53 50 46 42 38 36 36 32 33 33 37 36
48 48 47 48 48 49 49 45 47 48 47 47 48 48 46 45 44 46 47 48 47 45 46 45 44 38 40 42 47 46 44 52 50 52 48 48 46 43 41 37 30 32 31 33 31 32 34
49 47 47 48 48 50 46 46 49 47 48 49 50 50 49 47 45 46 47 42 35 33 39 34 34 35 41 46 49 47 42 49 50 47 42 46 41 36 39 37 33 33 32 32 33 32 31
48 47 47 47 47 48 45 48 46 49 49 49 49 49 49 48 46 46 45 38 35 37 31 35 37 36 38 44 43 45 45 45 45 42 41 43 37 39 40 37 35 34 33 33 32 30 30
47 47 47 48 46 46 46 46 49 48 49 49 49 50 49 49 46 44 41 40 44 42 32 33 38 37 37 45 41 41 42 42 43 41 37 36 40 41 39 39 36 36 33 32 31 29 28
47 47 48 46 46 45 46 48 47 48 48 49 49 49 50 48 42 44 40 45 45 43 15 31 35 39 44 44 39 41 41 44 43 40 38 38 43 41 40 38 38 36 37 31 28 29 26
47 46 48 46 45 45 47 48 47 48 48 49 48 49 48 48 44 42 43 46 45 33 1 26 36 46 45 42 40 40 44 44 40 39 39 35 41 40 38 39 38 35 32 29 28 26 26
47 46 47 46 45 45 44 45 46 47 48 50 48 49 48 44 45 45 45 43 36 15 9 30 38 37 39 39 40 42 42 43 43 38 36 33 36 37 38 38 38 31 28 27 26 25 23
47 46 47 45 45 45 44 44 45 46 48 49 48 47 46 46 41 46 45 35 17 18 27 33 34 35 37 38 37 38 39 36 36 33 32 36 33 33 36 35 33 30 31 25 19 20 21
46 46 46 46 45 45 44 44 45 45 47 48 49 46 46 45 44 43 42 24 14 28 31 36 35 37 33 37 37 37 36 32 33 34 32 30 29 31 32 31 30 28 29 26 13 14 14
45 45 47 46 45 45 44 44 44 45 47 48 45 40 42 43 45 42 35 20 18 28 34 35 37 35 36 36 35 36 34 31 32 31 29 26 28 32 32 32 32 29 27 25 21 19 19
45 45 45 46 45 44 44 44 44 45 47 48 38 37 37 43 44 38 27 29 31 35 36 36 31 32 32 34 35 34 31 32 31 32 31 28 27 32 32 32 31 29 28 25 23 15 11
45 45 45 46 45 44 44 43 44 44 46 45 35 31 36 43 39 36 30 33 34 37 37 33 31 30 32 31 32 30 28 32 32 32 30 30 29 31 32 30 28 28 27 26 24 20 13
45 45 44 47 45 44 44 43 43 44 46 44 33 27 38 40 31 33 34 35 37 36 38 33 31 31 30 30 28 29 28 30 32 32 29 30 30 29 29 29 30 29 27 24 21 19 21
44 44 44 45 46 44 44 43 43 43 45 45 33 31 38 40 31 33 36 36 37 36 35 30 30 31 30 28 26 29 29 33 33 31 29 29 26 23 27 28 29 29 28 25 23 23 21
43 44 44 44 46 44 44 43 42 42 44 43 32 28 34 37 38 35 35 34 34 37 33 31 30 30 29 29 30 28 29 35 34 34 36 31 26 23 20 23 27 26 28 26 25 21 20
43 44 44 44 46 44 44 43 42 42 43 40 33 33 37 29 34 35 36 34 32 32 35 33 31 30 30 29 29 29 31 32 34 37 32 29 25 24 26 27 27 27 28 27 23 24 22
43 43 43 43 46 43 44 43 41 41 42 39 36 35 38 34 34 33 34 31 32 34 34 32 32 34 31 29 28 29 30 30 30 32 30 29 28 26 23 27 28 28 28 28 27 27 26
43 43 43 42 44 43 42 43 41 41 40 36 40 41 39 33 30 28 31 33 34 34 37 38 35 34 32 34 35 32 31 31 31 30 30 30 27 24 19 25 26 25 27 28 28 29 28
43 43 43 42 43 45 42 42 40 40 40 37 39 39 36 30 30 31 33 34 36 35 35 38 38 35 36 38 36 35 34 33 32 32 31 28 27 27 23 23 16 21 30 29 28 28 30
44 43 43 43 43 44 42 42 40 38 38 36 37 39 38 32 32 32 34 34 33 35 36 37 39 38 40 36 32 29 30 31 34 35 33 31 30 27 23 22 21 26 30 28 28 31 29
44 43 43 43 44 43 44 41 42 38 37 37 38 43 40 36 32 36 36 33 30 30 32 36 38 39 37 34 30 25 25 27 30 33 36 34 31 26 27 21 19 23 33 33 34 32 35
43 43 43 43 43 43 43 43 41 40 38 37 36 42 38 35 37 39 38 33 34 32 31 34 35 34 35 30 29 25 25 30 26 29 31 33 33 27 26 24 23 26 29 38 32 32 36
43 43 42 43 43 42 43 43 41 41 39 38 35 40 39 35 36 40 42 41 36 35 32 34 33 34 33 29 28 27 26 31 30 30 28 27 27 28 29 26 20 28 37 35 36 37 36
44 43 42 43 43 43 45 44 39 40 40 40 32 38 42 37 35 40 40 40 41 40 39 39 36 36 35 34 30 30 32 34 32 29 33 29 28 28 27 24 28 32 32 34 35 36 36

GFSGBSN_sfc_dewp_054.txt.gz
Dewpoint
50 51 49 52 50 48 50 52 51 50 49 50 50 50 49 48 48 47 46 47 47 48 47 48 48 48 46 38 38 48 51 49 53 52 48 48 47 47 42 41 40 37 37 36 36 39 39
50 50 51 51 50 50 49 51 50 50 49 50 50 49 49 48 48 48 47 47 48 48 47 47 47 47 41 36 40 45 49 46 48 51 47 49 45 46 41 41 39 38 37 36 36 38 38
49 51 48 50 49 49 49 50 49 47 48 50 49 49 48 48 48 47 47 47 47 47 47 47 47 44 40 35 43 47 50 46 49 49 46 50 46 44 43 40 41 39 36 35 37 36 34
50 48 48 49 48 49 50 47 46 48 49 49 49 49 49 48 47 47 47 46 47 48 48 48 46 44 35 38 42 44 48 46 49 49 49 52 49 44 41 41 39 36 34 31 30 35 37
50 49 48 47 49 49 48 47 50 48 49 50 50 50 50 49 46 45 45 47 48 48 47 47 44 39 30 44 44 44 48 45 49 49 52 51 50 42 41 37 34 33 24 26 31 36 31
49 48 47 49 49 48 47 48 46 49 50 50 49 49 49 50 47 44 46 48 47 45 45 44 41 36 33 37 43 47 49 47 50 47 50 49 47 42 38 34 24 28 26 28 26 33 36
48 48 48 50 46 47 46 46 49 49 50 50 49 49 49 49 48 44 46 43 36 36 39 31 30 33 37 43 49 48 45 50 49 46 42 44 42 38 37 33 30 28 28 25 29 32 31
48 48 48 48 47 46 47 49 49 49 50 50 48 49 50 48 47 47 45 38 35 38 29 33 34 34 35 42 43 47 45 48 42 40 42 41 39 36 37 36 33 30 27 27 33 31 31
47 47 48 47 46 46 46 47 47 49 50 50 48 49 50 49 48 45 41 40 44 41 31 30 36 34 37 41 40 41 42 46 41 39 40 38 39 38 36 35 32 32 28 30 29 30 29
48 47 48 47 46 46 45 45 46 48 49 50 49 49 48 46 43 43 41 44 44 42 31 26 35 37 41 44 38 42 45 45 43 37 38 37 41 37 36 33 32 32 35 33 31 30 25
47 46 48 47 47 46 45 45 46 47 49 49 49 49 47 47 43 40 42 45 44 37 17 30 37 43 43 40 39 38 47 46 38 38 38 36 38 40 36 34 35 35 35 31 29 28 28
47 46 48 47 47 46 45 45 46 46 47 48 50 48 47 45 44 45 45 43 40 29 19 32 36 37 39 38 38 39 41 44 43 37 38 39 43 41 39 40 37 32 30 28 29 28 28
46 46 47 48 46 46 45 45 45 46 46 48 49 49 46 45 40 46 46 40 31 24 31 32 35 37 35 36 36 37 38 37 37 34 34 36 34 39 40 35 36 32 32 30 27 29 24
46 45 46 48 46 46 45 45 45 45 46 48 48 47 45 44 46 45 43 35 26 30 31 35 36 36 35 37 36 38 35 33 34 36 36 33 30 34 38 36 33 34 32 30 18 17 16
46 45 45 47 46 46 45 45 44 45 45 48 46 43 44 45 46 45 38 32 29 31 34 35 37 33 35 35 36 36 34 33 31 33 32 33 31 32 31 31 33 30 32 26 24 21 22
46 45 45 46 46 45 45 45 44 44 47 47 44 41 40 44 46 42 38 32 33 35 36 36 31 31 30 31 34 35 31 32 31 31 31 30 31 31 30 32 31 30 28 27 31 21 15
45 45 45 45 47 46 45 45 44 44 46 46 40 37 39 45 43 42 33 35 36 37 37 33 31 30 31 31 32 29 29 31 31 30 30 30 30 31 31 30 29 28 29 26 25 21 10
45 45 45 45 48 45 45 44 44 44 45 46 41 40 41 44 40 39 36 35 37 37 38 35 32 32 30 30 29 28 27 30 32 31 28 30 31 30 30 29 30 28 27 24 27 23 24
44 44 44 44 47 45 45 44 44 43 44 46 39 38 42 45 36 36 36 36 37 36 34 30 29 31 30 28 27 28 29 33 32 31 29 30 30 27 28 28 30 29 28 25 25 28 27
44 44 44 44 46 44 44 44 43 43 43 45 40 38 39 42 41 37 36 36 34 37 34 31 30 30 29 28 29 28 29 33 33 34 36 32 27 26 23 28 30 31 29 27 32 30 22
43 44 44 43 44 45 44 44 43 42 42 43 39 35 35 36 37 36 36 35 33 32 35 33 30 29 28 26 28 28 31 32 34 35 31 31 33 29 26 27 31 29 29 28 29 28 31
42 43 43 43 42 45 44 44 42 42 41 39 36 36 37 34 35 34 35 34 34 35 36 31 29 32 31 27 27 27 30 30 29 32 30 31 31 30 28 27 28 28 28 28 27 27 26
42 43 43 42 42 44 44 43 42 42 39 39 38 40 39 34 33 32 33 33 34 37 38 37 34 32 31 33 35 32 32 31 31 30 30 30 31 30 26 26 26 25 26 27 28 28 28
42 44 43 43 43 43 44 43 42 40 40 40 37 39 36 32 33 32 34 34 37 36 35 38 37 33 34 35 35 34 33 32 32 31 30 29 30 30 27 25 22 24 29 28 27 28 29
42 44 43 43 43 44 44 44 42 41 39 37 39 39 37 33 33 32 36 35 36 38 38 38 40 40 39 37 32 30 31 30 33 35 31 29 30 29 26 24 23 25 29 29 28 28 28
42 44 44 44 44 44 43 44 43 41 40 39 41 42 39 34 30 35 35 37 34 35 36 38 41 42 39 36 33 25 24 27 28 32 35 32 31 29 28 23 17 28 34 34 31 34 35
44 44 44 43 43 44 43 43 43 42 41 39 39 40 38 34 33 38 37 37 35 34 35 37 38 38 38 35 31 28 26 29 26 27 30 31 31 28 26 23 23 25 27 36 34 33 36
45 44 44 43 43 43 43 44 44 42 40 40 39 41 37 34 34 33 34 39 40 37 34 38 36 37 37 33 32 31 29 30 28 30 28 27 27 28 27 24 21 28 36 33 36 36 36
45 44 44 43 42 43 42 42 44 42 40 40 39 39 41 35 33 37 37 38 38 40 41 39 36 35 37 36 34 34 31 33 30 26 32 26 27 26 26 24 28 32 33 34 36 36 36

GFSGBSN_sfc_dewp_057.txt.gz
Dewpoint
51 51 50 50 50 49 49 50 50 49 49 49 50 50 50 49 49 49 48 48 48 48 48 48 48 48 45 40 34 38 55 55 55 53 44 44 40 44 41 40 37 35 32 31 35 39 37
50 51 49 50 49 49 50 50 48 49 50 50 50 50 50 49 49 48 49 48 48 48 48 48 48 48 41 35 34 33 51 49 53 51 43 43 40 43 41 40 36 36 36 34 34 37 38
51 51 49 49 49 50 49 48 49 49 49 50 51 50 50 50 49 48 48 47 47 47 47 48 47 44 39 34 34 48 51 50 47 53 43 42 41 40 41 40 40 37 34 34 33 34 35
50 49 49 49 50 48 47 48 48 48 50 50 50 50 49 50 50 47 47 45 47 47 48 48 47 43 36 35 36 35 47 51 48 51 45 44 46 41 40 40 39 36 34 31 32 34 33
49 49 49 50 48 48 47 48 48 50 50 50 50 49 50 50 50 47 44 45 47 48 48 47 44 40 30 39 33 36 43 47 46 52 45 45 49 41 40 37 35 34 27 26 26 30 33
49 49 48 50 48 47 47 49 49 49 50 50 49 50 50 49 49 44 44 47 46 46 45 43 42 36 32 28 36 41 44 46 46 47 45 47 47 42 38 34 27 27 25 21 22 32 30
49 49 48 49 48 48 47 47 48 48 49 50 49 49 50 50 48 44 46 42 37 38 38 32 31 29 33 40 44 40 47 46 48 43 40 46 42 38 35 30 25 22 23 18 22 32 31
48 48 49 48 48 47 47 46 48 48 49 50 49 49 50 48 47 46 44 36 37 39 31 31 31 31 32 42 39 46 45 39 45 37 38 43 36 39 34 30 28 27 23 23 27 31 30
48 47 48 48 48 47 47 46 46 48 49 50 50 49 48 48 46 43 40 39 43 40 33 29 34 33 35 43 41 43 44 43 41 34 38 36 38 40 40 32 29 26 26 23 26 31 30
47 46 48 48 47 48 47 46 46 46 47 49 49 49 47 47 44 42 38 42 43 41 33 28 35 38 41 42 38 44 48 45 40 37 39 37 39 40 39 33 29 26 27 27 30 28 18
47 46 47 49 47 47 47 46 46 46 46 48 48 49 48 47 41 38 41 42 43 40 21 32 36 42 42 42 42 42 47 46 38 37 39 37 37 40 34 33 31 27 34 32 31 29 28
47 46 47 48 47 47 47 46 46 46 46 46 49 49 48 44 43 42 43 41 40 32 23 33 38 38 39 39 40 44 44 43 40 37 38 39 41 41 37 37 35 36 32 31 30 29 28
46 46 46 47 47 46 46 46 46 45 45 46 48 49 47 43 39 45 44 41 32 26 34 34 35 38 33 34 38 39 39 38 37 33 32 34 35 40 39 36 35 34 33 31 29 30 24
46 45 46 46 48 47 47 46 46 45 45 46 48 48 46 42 44 44 42 37 29 30 32 36 37 35 35 36 36 36 37 34 36 36 36 34 30 35 38 37 36 35 33 31 22 23 21
46 45 46 46 48 47 46 46 46 45 46 48 48 43 42 44 45 44 39 34 30 32 36 36 33 34 32 33 35 36 33 32 33 34 34 33 33 38 38 39 37 36 33 28 22 20 20
45 45 45 45 47 47 46 46 45 45 47 47 43 40 41 43 46 42 40 31 34 35 36 35 29 30 27 29 31 32 30 31 31 31 31 31 31 33 34 37 34 34 30 30 34 22 15
45 45 45 45 46 47 45 46 45 45 45 47 42 36 42 45 44 40 35 35 36 36 37 33 29 29 28 28 28 27 28 31 31 29 30 31 29 32 31 31 29 29 29 27 26 22 13
45 45 45 45 46 46 45 45 45 44 45 45 43 42 43 46 41 39 35 34 36 36 37 35 32 30 28 29 28 27 27 30 32 30 27 31 30 30 30 29 30 29 27 26 29 23 24
44 44 45 45 45 46 45 45 44 44 43 46 39 38 44 47 37 37 36 36 36 33 32 30 29 31 30 28 27 28 28 33 32 30 28 29 30 28 28 28 30 29 28 26 25 32 29
43 43 44 44 44 46 45 45 44 44 42 44 38 37 40 41 40 36 34 34 32 37 32 31 29 30 29 27 28 28 30 33 33 32 37 34 28 28 25 30 31 30 28 28 33 31 21
42 43 44 44 44 44 45 44 43 43 42 42 37 35 36 37 36 36 36 33 30 30 33 32 29 28 27 26 26 27 30 32 33 33 31 30 34 29 27 27 33 31 29 28 32 29 32
42 42 44 43 43 44 45 44 43 42 43 37 35 36 36 34 35 34 34 31 31 33 33 29 28 29 28 25 26 26 29 28 27 31 29 31 32 31 30 26 28 28 27 28 28 27 26
41 42 42 43 44 44 44 44 44 42 40 33 34 38 39 35 33 32 33 33 33 35 36 35 31 29 28 33 33 30 30 29 29 29 29 30 31 31 27 26 26 25 26 26 27 27 27
41 42 44 43 44 44 44 45 43 41 39 34 34 38 36 30 32 32 33 34 35 35 35 36 36 32 34 34 33 32 31 31 31 30 30 29 29 29 27 25 23 28 28 27 26 27 28
42 42 45 44 44 44 44 44 44 42 40 35 36 38 35 29 29 31 34 36 36 38 37 37 39 35 37 36 31 29 29 29 31 32 29 29 27 27 26 23 24 22 27 28 27 27 28
43 43 44 44 44 44 44 43 43 42 41 37 38 39 38 32 27 34 34 37 36 34 37 39 40 41 40 36 32 26 23 24 25 31 32 30 30 28 27 24 19 29 33 31 31 30 31
43 44 45 44 44 43 44 43 44 44 41 39 38 39 34 31 27 34 36 37 38 35 36 38 38 39 38 35 32 28 24 27 25 24 28 29 30 28 25 24 22 26 34 36 33 34 36
44 45 45 45 43 43 43 43 43 44 43 40 38 40 36 31 28 28 31 33 36 38 35 38 37 37 37 34 32 30 27 27 26 26 25 26 26 25 25 25 22 28 30 32 36 37 37
45 46 45 45 43 42 44 43 43 44 41 41 38 39 39 37 30 29 30 35 38 38 38 39 37 34 35 35 34 34 30 30 26 24 29 25 26 25 25 25 30 34 35 37 37 37 38

GFSGBSN_sfc_dewp_060.txt.gz
Dewpoint
51 51 51 50 50 51 49 50 49 49 50 51 51 51 51 51 51 50 49 49 49 48 47 48 49 48 45 40 38 38 52 49 52 55 47 48 40 44 42 41 39 37 34 33 35 38 38
51 50 50 50 51 49 49 49 49 49 51 51 51 51 51 50 50 51 49 48 48 48 48 48 47 47 42 34 35 36 41 49 49 52 50 45 39 42 40 40 38 37 36 34 34 38 38
50 50 50 50 50 49 48 49 51 51 50 51 51 50 50 50 50 50 49 48 48 47 47 47 46 43 39 35 35 48 48 43 50 51 48 43 41 38 42 40 41 37 34 36 34 37 37
50 50 50 50 49 48 48 48 49 50 50 50 51 50 50 50 50 50 47 46 45 47 47 48 47 43 36 37 37 35 44 46 49 50 51 44 42 40 40 42 41 36 35 33 33 35 36
50 50 50 50 49 48 48 47 49 50 50 50 50 50 50 51 50 47 45 44 46 47 48 48 44 42 32 39 34 33 35 40 45 49 51 47 46 44 40 39 38 37 30 31 32 33 33
50 49 49 49 49 49 48 47 48 49 49 50 50 50 50 50 48 45 44 45 46 46 46 42 42 38 35 29 39 35 40 47 46 48 49 46 45 42 40 38 32 31 33 28 28 31 32
49 49 49 49 49 48 48 47 47 48 49 49 50 50 49 48 47 45 47 45 39 39 38 33 32 32 32 37 43 40 44 42 43 48 41 42 40 36 37 36 31 28 29 28 26 31 30
48 48 49 49 48 48 48 47 47 46 48 48 49 50 48 49 48 47 45 35 38 39 31 32 30 30 34 39 38 39 46 41 41 40 40 40 36 37 37 35 32 26 25 25 25 32 31
48 47 48 49 49 48 48 47 47 47 46 47 49 49 49 48 48 47 38 39 43 41 32 30 34 34 37 40 37 39 45 43 40 38 37 35 35 38 37 33 30 26 26 23 26 30 30
48 47 48 48 48 47 47 47 47 46 46 46 47 49 49 48 45 42 38 41 44 41 32 31 35 40 41 39 35 46 46 44 43 34 36 39 40 38 39 36 30 26 27 27 30 29 24
47 47 47 48 48 47 47 48 47 46 46 46 46 48 49 48 45 39 41 42 44 41 19 33 36 42 42 37 40 42 47 44 39 38 38 36 38 38 37 37 33 27 30 32 32 29 28
47 47 47 47 48 48 48 47 47 47 46 46 47 48 49 46 47 42 44 45 42 31 23 33 36 36 37 39 40 41 43 46 41 37 38 38 40 40 38 41 40 35 33 32 31 30 28
47 46 47 47 47 48 47 46 47 47 46 46 47 48 47 43 41 45 46 42 30 25 35 33 35 39 38 37 37 37 38 38 36 33 33 36 36 39 41 38 38 34 31 27 28 27 25
46 47 47 47 47 48 47 47 47 46 46 48 49 49 47 42 45 45 43 37 25 31 33 38 37 36 35 37 37 38 38 36 38 36 34 32 29 35 38 37 35 34 32 27 19 23 21
46 46 46 47 47 48 47 47 46 46 48 47 49 47 45 47 46 45 40 30 28 32 36 36 34 31 33 33 35 37 35 34 38 39 34 33 31 37 38 39 38 36 34 29 24 19 22
46 46 46 46 46 48 47 46 46 46 47 47 45 42 43 45 47 44 39 30 34 36 36 35 29 29 27 30 32 34 31 32 32 32 34 33 31 36 38 38 38 36 34 27 28 15 17
45 45 46 45 46 47 47 46 46 45 46 48 45 39 44 47 47 42 34 35 36 36 35 34 29 27 27 28 29 28 29 32 30 30 31 33 33 34 37 36 35 35 35 30 27 23 18
44 44 45 45 45 46 47 46 46 45 45 45 43 39 45 48 41 41 35 34 37 35 37 35 33 29 27 28 28 27 29 31 32 32 30 32 32 31 31 30 32 33 30 31 31 25 23
44 44 45 45 45 45 46 46 45 44 43 44 37 39 47 48 37 36 37 35 35 33 32 31 30 32 31 28 28 28 31 36 34 33 31 31 30 26 26 29 30 31 30 29 29 31 27
43 43 44 44 44 44 46 46 45 44 43 43 39 35 39 44 40 37 35 35 34 39 33 31 30 31 30 28 29 29 31 34 36 33 38 35 29 28 24 29 31 29 29 29 30 23 24
42 42 43 43 44 45 45 45 45 44 45 42 36 35 36 35 36 35 35 33 30 31 34 33 30 29 29 27 27 28 31 32 35 34 33 33 28 27 28 31 32 31 29 29 25 28 22
42 41 41 43 44 45 45 45 45 43 45 38 32 35 35 33 34 34 35 32 31 32 33 30 30 30 29 27 28 27 29 29 29 31 30 33 28 29 27 27 29 28 28 29 28 28 27
41 41 43 44 45 45 45 45 44 43 42 33 33 36 38 32 32 32 35 34 34 36 36 35 34 31 29 34 32 30 30 29 30 30 29 31 30 27 23 26 26 24 26 27 28 28 28
42 41 43 45 45 45 45 44 44 44 42 37 35 37 34 29 31 32 32 33 34 35 35 36 37 33 34 35 33 31 30 30 30 30 30 29 30 29 25 25 17 29 29 28 27 28 29
43 42 43 45 45 44 44 44 43 43 42 39 37 36 32 26 25 24 32 33 35 36 37 38 39 35 36 36 31 28 30 29 31 30 29 29 29 27 24 23 25 27 27 28 27 27 29
43 43 44 45 45 44 44 44 44 44 42 40 39 39 35 30 26 25 31 33 35 37 37 39 40 40 40 37 34 29 26 25 26 31 32 30 30 28 27 23 21 31 31 31 30 30 29
43 43 44 45 45 44 43 44 43 44 43 41 39 40 34 28 26 27 31 34 38 38 38 38 39 39 39 35 33 29 26 26 25 26 29 28 28 28 26 26 24 34 34 34 31 33 36
44 44 45 45 45 43 43 43 43 44 44 42 40 41 38 32 29 28 28 28 31 36 36 39 37 37 36 34 32 30 27 28 26 26 26 28 28 28 28 26 20 31 31 32 36 37 37
44 45 45 45 44 43 43 43 44 44 43 42 39 40 41 36 31 33 33 30 29 33 36 35 39 37 37 34 34 33 30 30 27 25 29 24 26 24 25 26 31 33 36 37 37 37 38

GFSGBSN_sfc_dewp_063.txt.gz
Dewpoint
51 51 51 51 51 50 49 49 50 52 50 51 51 52 51 51 50 50 50 50 48 48 48 47 48 48 45 40 37 41 48 48 44 52 51 48 44 47 44 44 41 40 36 36 37 39 36
51 51 51 50 50 49 49 48 49 50 50 51 51 51 50 50 50 50 50 50 47 47 47 47 46 46 43 36 38 39 43 40 45 51 50 49 42 44 44 43 40 39 38 37 37 38 38
51 51 51 50 50 49 49 48 49 49 50 50 51 50 50 50 51 50 49 47 46 46 47 46 46 43 40 36 38 45 45 46 50 50 48 49 46 42 41 41 41 39 37 36 37 38 37
51 50 50 50 49 50 49 48 47 49 50 50 50 50 50 50 50 49 47 45 44 45 45 46 46 45 36 39 39 38 41 42 49 51 52 50 47 40 42 43 41 37 35 34 35 37 37
50 50 50 50 49 49 49 48 48 48 49 49 50 50 50 50 48 47 46 44 44 46 46 47 45 43 34 41 38 36 35 36 45 49 51 50 47 42 41 39 39 40 32 33 32 35 36
50 50 50 50 50 49 48 48 48 47 48 49 50 50 49 49 48 47 47 47 47 46 46 44 44 39 37 33 39 40 40 45 45 48 48 48 45 39 39 38 31 34 31 32 31 32 34
49 49 49 49 51 49 48 48 48 47 46 47 49 49 50 48 49 49 47 44 38 38 40 36 35 33 33 38 42 42 44 41 42 45 43 43 39 35 35 37 33 35 33 29 31 31 32
49 49 49 49 50 49 49 49 48 47 47 46 47 49 49 49 49 49 45 38 39 39 34 35 35 32 40 41 36 41 43 36 38 35 42 41 36 37 37 37 36 31 31 30 29 31 31
49 49 48 49 48 49 48 48 49 48 47 47 46 48 49 50 49 45 41 41 43 42 34 32 36 38 40 40 35 40 40 40 37 36 39 36 36 38 37 35 34 32 26 27 27 30 30
48 48 48 49 48 50 49 48 48 48 47 47 47 47 48 50 44 41 40 43 43 42 31 35 37 39 41 39 36 43 41 41 37 37 37 37 39 37 36 34 33 30 28 28 30 28 25
48 48 48 48 48 49 48 47 47 48 47 47 47 47 48 49 44 40 42 43 42 41 19 35 36 43 41 37 39 39 47 44 35 39 37 37 37 39 37 36 37 30 30 32 31 28 27
48 47 47 48 48 48 48 47 47 47 47 47 46 47 47 46 47 43 44 44 43 27 21 33 36 37 36 38 40 42 44 47 42 39 38 39 41 41 38 40 41 40 32 31 31 30 25
47 47 47 48 48 48 48 47 47 47 47 47 48 48 47 47 41 44 45 41 24 21 33 34 35 38 37 36 36 38 39 38 36 30 32 37 36 39 42 37 39 39 30 24 23 21 22
47 47 47 47 48 47 48 47 47 47 48 48 49 50 48 44 44 44 42 32 19 28 31 36 37 36 35 37 37 38 38 36 36 34 32 28 31 37 39 37 37 37 29 24 17 20 22
46 46 46 47 47 47 47 47 47 47 48 47 48 45 43 45 45 44 38 24 27 28 35 35 34 33 32 36 37 37 35 36 37 37 30 29 29 37 38 41 39 37 30 30 23 21 18
45 46 46 46 46 47 47 47 46 47 47 47 42 42 41 46 45 42 32 29 33 35 36 36 33 32 28 32 34 35 31 34 37 39 38 34 29 36 38 41 39 37 35 27 24 14 16
44 45 45 45 46 46 46 47 46 46 47 46 41 38 43 46 45 40 29 28 36 37 37 34 32 27 28 29 30 29 30 31 31 31 34 36 31 34 38 36 36 34 33 31 28 23 16
44 44 44 45 45 45 46 46 46 46 46 43 38 34 44 46 35 37 31 34 37 36 38 37 34 32 28 28 28 30 30 31 32 31 31 33 33 30 34 37 38 37 34 30 25 22 20
43 43 44 44 44 45 45 46 46 45 44 42 37 36 43 45 35 33 35 36 37 35 33 33 31 32 31 28 27 30 32 34 34 33 30 31 30 25 27 29 32 34 34 34 29 29 21
42 42 43 43 45 45 46 46 45 45 44 41 37 31 35 40 38 37 34 34 36 37 35 32 30 31 29 27 29 29 31 35 35 32 39 35 30 27 21 25 30 28 31 28 29 25 24
42 41 42 44 45 45 46 46 45 45 46 40 34 32 36 32 34 33 35 34 32 33 35 32 30 29 28 26 27 30 32 33 34 35 32 32 25 26 29 32 30 30 29 29 25 26 21
42 40 42 44 45 45 46 45 45 44 44 34 31 31 33 31 32 33 35 34 32 34 33 32 31 30 30 31 29 28 30 30 30 30 30 32 26 27 25 29 28 26 28 30 28 27 27
41 40 42 45 45 45 45 44 45 44 41 32 33 34 35 30 32 33 34 32 34 36 36 35 35 32 32 33 32 30 30 30 31 30 29 31 28 25 21 26 26 22 26 28 29 29 28
42 40 42 45 45 45 44 44 44 44 43 36 34 36 31 26 26 26 26 33 33 35 36 37 38 33 34 35 33 31 30 30 30 30 30 30 28 27 21 24 15 19 29 28 28 29 30
43 42 41 44 45 44 44 44 44 45 43 38 36 33 31 25 26 25 26 32 35 36 37 37 39 35 38 35 30 28 29 30 30 31 29 30 29 25 22 19 20 28 27 27 27 27 30
43 43 42 45 44 43 43 44 43 44 43 39 38 37 33 27 25 27 29 31 32 35 38 39 40 41 39 36 32 26 23 26 28 31 32 30 30 26 24 21 21 30 30 30 32 29 31
44 43 43 45 44 43 43 44 43 44 44 40 38 38 34 29 27 27 26 27 36 35 36 39 38 37 38 34 30 25 24 25 26 27 28 28 28 25 25 23 24 32 33 33 30 29 34
44 44 43 45 44 43 43 44 44 44 45 40 37 39 35 31 30 30 29 27 28 31 34 36 36 37 35 32 31 30 27 28 26 27 29 27 27 27 28 26 20 34 31 33 36 37 37
45 44 45 45 43 43 43 43 43 44 45 43 39 39 40 37 32 32 32 33 31 32 31 35 36 39 39 33 33 33 30 30 27 24 29 24 26 24 27 27 29 32 35 37 37 37 38

GFSGBSN_sfc_dewp_066.txt.gz
Dewpoint
52 51 51 52 52 50 50 49 49 50 50 51 51 51 50 50 51 51 50 50 49 48 47 47 46 46 45 40 39 38 47 45 40 48 48 50 43 44 44 44 44 42 39 40 41 45 46
51 51 50 51 51 50 50 49 48 50 51 51 51 51 50 51 51 51 50 49 48 47 46 46 46 47 42 35 38 40 41 43 43 45 47 50 46 45 44 44 43 43 41 39 42 38 41
51 51 51 51 50 50 49 49 48 47 50 50 50 50 50 50 50 50 49 47 47 47 47 47 47 43 41 36 38 41 41 41 47 45 48 50 48 44 43 42 44 40 39 40 40 38 36
51 51 50 50 51 51 49 48 48 48 48 50 49 50 50 49 48 47 46 45 44 45 46 46 46 45 36 41 40 38 41 41 46 51 50 50 52 42 42 43 43 39 38 37 36 37 37
50 50 50 49 51 49 49 48 48 48 47 48 49 50 50 49 49 48 47 46 45 45 46 46 45 42 33 41 39 40 38 36 44 48 52 51 50 42 41 39 38 40 33 33 34 36 37
50 50 49 49 50 50 50 50 50 48 47 47 47 48 50 50 49 50 50 49 47 46 45 45 44 38 36 34 38 40 40 43 43 47 49 49 47 39 39 39 32 33 32 32 32 34 36
50 50 49 48 48 49 50 50 50 51 49 47 47 48 48 49 50 50 48 42 38 36 38 36 36 34 35 38 41 43 43 41 41 42 40 46 40 35 36 37 36 35 31 32 33 33 33
49 49 49 49 49 48 49 49 49 49 49 47 47 46 48 48 50 50 43 40 39 39 32 36 35 36 40 42 36 42 43 37 37 37 41 42 35 36 38 38 36 35 32 31 30 33 32
49 49 49 49 49 48 48 48 48 47 48 47 47 46 48 48 50 43 41 41 43 43 34 35 39 38 39 41 33 39 40 39 36 36 35 36 36 38 37 37 36 33 32 30 28 31 30
48 49 48 49 49 48 49 48 47 48 48 48 47 47 48 48 44 42 39 43 43 41 30 34 37 38 40 39 36 41 42 40 38 35 35 38 38 37 37 36 35 32 30 29 29 29 27
48 48 48 48 48 48 47 48 48 48 48 47 47 47 48 47 44 42 41 43 42 41 20 36 37 42 42 38 39 39 42 41 36 37 37 37 37 36 36 35 33 31 30 29 30 28 26
48 48 48 48 48 48 47 48 47 47 48 47 47 48 47 45 46 45 45 44 43 24 21 33 37 38 36 37 37 38 42 44 41 40 39 39 41 40 38 40 40 39 31 31 31 30 24
47 47 47 47 48 48 47 47 47 47 47 47 47 49 46 47 40 45 45 41 22 22 31 34 36 37 37 35 38 38 36 35 36 32 33 37 37 39 41 35 38 36 29 26 27 27 22
46 47 47 47 47 47 47 46 47 47 47 48 48 49 48 45 45 44 41 30 17 27 30 36 37 37 35 38 38 38 38 35 36 34 33 31 31 37 39 37 37 36 28 23 18 21 22
45 46 46 46 46 47 47 47 47 47 48 48 47 44 42 44 45 43 35 21 20 22 32 35 34 32 35 37 38 38 34 34 37 35 28 28 30 38 39 39 39 37 30 29 20 20 18
45 45 45 45 45 46 47 46 47 47 47 47 41 40 40 46 45 41 29 29 29 34 35 36 31 30 32 35 34 33 32 36 36 38 36 31 29 35 38 40 40 38 35 26 22 14 16
44 44 45 45 45 46 46 47 47 46 47 46 40 38 42 46 44 35 24 25 34 37 36 34 33 28 29 29 33 30 30 31 33 37 37 33 29 32 37 36 36 36 33 30 27 21 17
44 43 44 44 44 46 47 46 46 46 46 42 36 32 43 45 35 34 30 34 37 35 37 36 36 32 28 28 28 30 30 31 32 32 34 35 32 30 32 37 38 37 34 29 25 20 18
43 42 43 44 45 45 46 46 46 46 45 40 36 35 42 44 35 30 35 36 37 35 34 33 31 31 31 28 27 31 31 34 35 32 31 32 28 22 28 31 35 36 35 34 29 25 17
43 41 42 44 45 45 46 46 46 45 45 40 35 27 34 39 37 36 34 34 35 37 35 32 30 30 29 27 29 30 30 34 34 31 40 35 30 24 21 24 29 30 34 33 30 22 24
43 41 41 44 45 45 45 45 46 45 44 37 33 29 34 27 32 33 34 35 32 34 35 32 30 29 28 26 28 30 32 32 33 34 33 29 23 25 29 31 29 29 32 30 27 31 27
43 41 42 45 45 45 45 45 45 45 41 33 30 28 31 30 31 31 36 34 34 35 33 32 31 34 31 29 27 29 30 31 30 30 31 31 25 24 25 29 27 26 29 30 27 26 27
43 41 42 45 45 45 45 45 45 45 40 32 33 33 33 28 28 32 30 29 33 36 36 35 35 33 31 32 31 30 32 31 31 29 29 29 27 23 19 26 25 21 26 28 29 28 27
43 41 42 44 45 44 44 45 45 44 41 34 34 33 27 24 25 24 25 28 33 34 35 37 37 33 33 34 33 31 30 30 30 30 31 29 26 26 21 22 13 19 28 27 28 29 29
44 43 42 44 44 44 44 44 44 44 43 37 36 32 28 22 26 25 26 27 32 35 37 37 39 35 39 35 30 28 29 29 29 31 29 30 29 25 22 18 20 25 27 27 27 26 30
44 44 43 45 44 43 44 44 44 44 44 38 36 36 31 25 24 26 26 30 30 36 37 39 39 41 38 35 31 25 23 25 27 30 31 30 29 25 23 20 20 27 30 30 30 26 30
45 44 44 45 44 43 44 44 44 44 44 39 37 37 33 26 26 26 23 23 28 33 32 38 36 37 37 33 30 26 24 26 25 26 27 28 29 25 23 20 24 26 33 33 26 26 34
45 45 44 45 44 42 43 44 44 44 45 39 36 39 35 31 30 30 29 26 29 28 27 34 36 37 35 33 32 30 27 27 25 27 27 26 27 27 26 24 19 33 33 31 34 37 36
46 45 46 45 44 42 43 43 44 44 44 42 39 40 41 37 30 32 32 31 29 29 30 33 34 35 41 33 33 33 30 29 26 24 28 25 24 24 26 25 28 31 31 37 38 37 37

GFSGBSN_sfc_dewp_069.txt.gz
Dewpoint
51 50 50 52 51 51 51 50 48 47 50 51 52 51 49 50 50 51 51 50 48 48 48 47 46 46 45 40 38 42 45 42 43 44 46 47 45 45 42 44 45 40 41 41 48 50 49
51 50 49 51 50 51 51 48 48 48 48 51 51 50 51 49 49 49 50 49 48 47 47 46 46 46 42 34 38 41 41 39 39 45 46 47 44 44 43 44 44 44 41 43 46 47 43
51 50 50 50 51 50 50 49 48 48 48 49 50 50 50 49 48 48 47 48 47 47 47 46 46 44 40 35 38 40 41 39 41 44 45 48 49 43 44 42 44 42 41 42 42 41 43
51 50 50 49 51 49 51 51 50 49 48 47 48 50 49 50 49 49 48 46 45 45 46 46 46 44 35 41 40 38 41 40 41 48 47 51 51 43 43 43 43 38 40 37 40 41 41
50 50 50 49 48 50 50 50 50 50 50 47 46 47 49 49 50 49 50 49 45 45 46 46 44 41 32 40 40 39 41 40 42 49 50 49 51 42 41 39 36 38 34 34 35 39 37
50 50 50 49 49 48 50 49 50 50 50 49 46 47 48 49 49 50 50 48 47 45 45 46 45 37 35 33 37 38 39 42 43 44 46 47 48 39 38 37 29 33 34 33 32 36 36
49 50 49 49 49 49 50 50 48 48 49 49 47 46 47 48 49 50 47 40 37 36 38 36 36 34 35 38 40 41 42 41 40 40 40 45 39 32 35 37 35 33 32 32 33 34 35
49 49 49 49 49 48 48 48 48 48 48 47 47 47 46 48 49 50 42 38 38 37 31 36 35 37 40 42 34 40 43 37 35 35 40 42 33 34 38 38 36 34 32 32 32 34 34
49 49 49 48 49 48 48 48 49 48 48 48 48 47 46 47 49 43 40 39 42 42 34 35 39 39 39 39 33 38 41 38 35 34 36 36 37 38 37 37 35 33 31 30 30 30 30
48 49 48 48 48 48 48 47 48 47 47 47 48 47 47 46 43 41 39 42 43 41 30 34 36 38 39 39 34 42 42 39 37 34 37 39 37 36 37 36 35 31 32 31 30 29 28
47 48 48 48 48 48 48 48 48 48 47 48 47 47 48 45 42 41 41 43 42 40 12 36 37 44 41 38 38 37 42 41 34 36 36 36 36 36 35 36 34 31 32 30 30 29 27
47 47 48 48 48 48 48 48 47 48 47 48 47 47 47 47 45 45 45 44 42 21 13 33 38 37 37 37 37 37 38 44 42 38 39 39 41 38 37 39 36 37 31 31 31 29 24
47 47 47 47 47 47 48 47 48 47 47 47 48 48 46 46 40 45 45 41 21 21 31 32 35 36 34 35 36 38 36 37 35 32 32 37 37 40 39 36 38 34 29 25 24 26 23
46 46 47 47 47 47 47 47 47 47 47 48 48 48 48 46 45 45 41 27 17 28 31 36 37 37 35 37 37 37 35 34 37 36 33 32 30 37 38 35 33 32 28 23 19 22 22
46 46 46 46 46 46 47 47 47 47 48 49 46 43 43 44 45 43 33 19 19 21 30 33 34 35 33 36 38 38 37 36 35 36 30 29 31 38 40 39 37 34 32 27 21 19 18
46 45 45 45 45 46 47 47 47 47 48 47 40 40 40 45 44 41 27 25 24 32 34 35 30 30 32 35 34 32 34 37 37 37 34 30 29 35 39 39 39 36 35 26 21 14 17
46 44 44 45 45 46 47 47 47 47 46 46 39 37 42 46 44 34 23 24 32 36 36 34 33 29 29 32 33 30 29 32 36 37 35 31 29 32 38 36 34 37 34 30 27 20 17
45 43 43 44 45 46 47 46 46 46 46 42 35 30 42 45 31 31 29 33 37 35 37 36 36 33 29 28 29 30 29 31 33 36 33 33 30 29 33 36 38 37 35 29 23 20 18
45 43 42 44 45 46 46 46 46 46 45 39 35 34 40 42 27 28 33 35 37 35 34 33 31 31 30 28 28 30 31 34 34 33 32 33 30 27 29 32 36 37 36 32 27 23 17
45 43 41 44 45 45 45 46 46 46 44 39 33 26 32 37 35 33 32 33 34 36 35 32 30 30 28 28 30 30 30 34 33 32 39 35 29 24 21 22 30 33 36 33 27 21 22
45 42 42 44 45 45 45 46 46 45 42 35 31 28 31 25 31 32 33 34 32 32 34 32 30 30 28 26 28 30 32 32 32 34 33 29 27 26 29 31 28 29 31 33 27 30 26
45 43 43 44 45 44 45 46 46 44 39 33 28 26 29 27 30 31 32 32 34 34 34 32 31 34 31 27 27 28 30 30 29 30 30 30 24 24 24 29 27 25 28 33 33 31 31
45 43 44 44 45 44 45 45 45 44 38 32 32 32 30 27 26 30 26 29 33 35 36 36 35 33 30 31 32 31 32 31 31 29 29 28 26 22 17 26 24 19 24 28 31 28 29
45 43 45 45 44 44 44 44 45 45 40 34 33 31 25 22 24 24 25 26 30 32 34 36 37 33 33 35 34 32 31 30 30 30 31 27 25 25 19 21 12 20 27 27 28 30 30
44 44 44 45 44 43 44 44 45 45 44 36 35 30 26 19 25 25 25 27 31 34 36 37 38 36 39 34 29 28 28 28 30 31 30 29 28 25 21 17 20 24 27 27 26 25 29
45 44 45 45 44 43 44 44 45 45 44 37 36 35 29 23 21 25 25 27 28 32 35 37 40 40 37 35 31 25 22 25 25 28 31 30 28 24 22 20 18 22 30 29 29 24 32
45 45 45 46 44 43 44 44 44 44 45 39 36 36 31 25 26 25 22 21 25 31 29 34 34 36 37 34 31 26 25 26 25 25 26 28 29 23 24 20 23 26 32 32 23 23 35
46 45 46 46 44 43 43 43 43 44 44 40 38 39 36 28 28 30 29 25 29 28 25 33 33 37 36 34 33 30 25 26 25 26 26 26 26 26 24 22 17 30 33 28 30 36 36
46 46 46 46 44 43 43 43 44 44 44 42 35 40 41 36 31 32 32 31 29 28 29 32 33 34 36 35 33 33 30 30 26 24 27 24 26 25 25 24 26 29 33 35 37 37 37

GFSGBSN_sfc_dewp_072.txt.gz
Dewpoint
51 50 50 50 50 51 51 49 48 48 48 49 50 50 51 50 48 48 50 50 49 48 48 46 46 46 44 38 35 44 45 47 44 47 40 46 45 42 41 44 44 40 41 45 47 49 49
51 50 50 49 50 48 50 50 50 48 48 48 49 50 50 51 48 48 47 48 48 48 47 46 46 46 41 32 36 41 40 42 40 42 43 46 44 45 42 44 43 43 41 43 49 48 43
51 51 50 50 49 51 50 50 51 50 51 48 47 48 49 50 49 49 48 46 48 48 47 47 46 44 39 33 38 40 40 39 40 40 42 46 49 42 43 42 45 43 43 45 47 46 44
51 51 50 50 49 48 50 50 50 50 50 50 48 46 49 50 50 49 50 50 45 46 46 47 47 43 35 39 40 38 41 40 40 44 46 48 51 43 43 43 43 41 41 38 42 44 45
50 50 50 49 49 49 48 50 50 49 50 50 49 47 46 49 49 50 50 49 47 45 45 46 43 39 31 39 38 39 42 39 40 46 49 48 50 42 42 39 35 39 34 34 39 41 44
50 50 50 49 49 49 49 48 47 48 50 49 48 47 46 48 49 50 51 49 46 45 46 46 44 34 35 34 37 38 42 44 41 43 45 46 46 39 38 36 29 32 30 31 36 40 42
50 50 50 49 49 49 49 48 50 49 50 49 49 48 46 47 49 49 47 40 37 36 38 35 35 34 36 38 40 40 42 42 40 42 36 41 37 33 36 36 34 34 32 32 33 38 37
50 50 50 49 49 49 48 48 46 50 49 49 49 48 46 47 47 49 41 35 36 35 30 36 36 36 39 41 34 39 42 37 37 35 37 40 33 34 38 38 34 33 31 30 32 36 36
49 49 50 49 49 49 49 48 48 49 49 48 48 47 46 49 47 42 39 38 42 41 33 35 39 38 38 39 34 37 40 37 36 35 35 35 36 37 37 37 34 32 31 31 30 33 31
49 49 49 49 49 49 48 48 48 47 48 48 47 47 47 47 43 41 38 42 42 41 29 33 34 37 39 40 34 41 42 38 35 34 36 38 38 36 36 36 34 30 33 30 30 30 29
48 48 48 48 48 48 48 47 47 48 47 47 47 47 48 45 40 41 40 43 42 39 18 36 35 43 40 38 37 37 42 39 34 36 36 37 36 38 36 36 34 32 32 30 30 28 28
48 48 48 48 48 48 48 48 47 47 47 47 47 47 47 46 45 45 45 44 41 19 14 33 38 37 34 35 35 38 38 43 40 36 36 37 40 39 37 37 36 34 31 31 31 29 25
48 47 47 47 47 47 47 47 47 47 47 47 48 48 46 45 40 46 45 41 19 17 29 31 33 35 35 35 35 35 35 34 33 31 31 38 38 40 38 36 37 31 29 24 24 23 23
48 47 46 47 46 47 47 47 47 47 47 47 48 47 47 45 45 44 41 28 17 26 28 36 37 37 35 36 36 35 34 33 37 33 33 32 29 37 38 34 33 32 29 22 18 20 22
48 46 46 46 46 46 46 46 47 47 47 48 45 42 44 44 45 43 33 16 19 21 30 32 34 30 33 36 37 35 34 33 35 38 30 30 32 38 40 39 36 32 32 26 20 18 17
47 46 45 45 45 46 46 47 47 47 47 47 40 39 40 46 45 41 26 25 22 29 33 35 29 31 30 33 34 34 34 36 36 38 33 30 30 36 38 39 38 34 32 27 21 13 15
47 45 44 44 45 46 46 46 47 47 46 45 38 37 41 46 44 34 21 25 31 34 35 34 32 29 30 32 32 28 28 34 36 36 33 31 30 34 36 34 33 36 31 28 26 21 18
47 45 43 44 45 46 46 46 47 46 46 41 35 30 42 44 35 29 28 32 36 35 36 35 35 33 29 28 29 29 29 30 36 36 32 32 29 30 31 36 37 36 34 28 22 19 17
47 45 43 44 45 45 46 46 46 45 44 38 33 33 40 41 25 28 32 35 36 34 34 34 31 30 30 28 28 30 30 33 34 35 33 32 27 26 28 31 35 35 35 33 27 24 16
47 45 43 44 45 45 46 46 46 45 43 38 32 26 31 35 34 31 30 32 33 36 34 32 30 29 28 28 30 29 30 33 32 32 39 34 28 23 20 22 30 32 34 35 30 29 24
46 44 43 44 44 44 45 46 45 44 41 33 29 27 29 24 30 30 32 33 33 32 33 33 29 32 28 26 28 28 31 32 30 36 32 30 26 25 26 30 28 29 31 34 33 31 29
46 44 44 44 44 44 45 46 45 43 38 32 25 25 27 25 29 29 31 30 33 34 34 32 32 33 31 28 27 28 30 29 28 30 31 29 25 26 25 29 28 26 29 33 34 33 32
46 44 46 45 44 44 44 45 45 43 37 30 31 31 29 26 25 29 26 27 32 34 36 36 35 32 31 32 32 31 31 31 30 28 29 27 26 23 19 26 24 20 24 28 31 33 33
46 45 46 45 43 44 44 44 45 44 38 34 32 29 23 20 24 24 25 26 28 31 32 35 37 32 34 37 33 32 31 31 30 30 30 26 24 23 19 21 13 21 27 27 29 31 32
45 45 46 45 43 44 44 45 45 45 41 36 33 30 25 17 24 23 24 27 29 33 34 36 39 36 38 33 29 27 27 27 28 30 29 28 27 24 20 17 20 22 27 27 25 25 29
45 45 46 46 44 44 44 44 45 45 43 36 35 33 28 20 18 25 23 25 26 29 31 35 39 37 36 34 30 25 21 24 24 27 30 29 28 24 22 19 16 17 31 29 28 24 29
46 45 47 46 44 44 44 43 43 44 43 38 35 35 30 25 26 24 22 21 24 28 28 32 34 35 37 33 31 29 25 26 23 24 25 27 29 27 25 21 23 25 26 31 22 23 34
47 46 47 46 44 44 43 44 44 44 45 38 36 39 34 28 28 29 28 24 26 26 22 30 32 36 37 33 32 29 25 25 23 25 25 26 24 26 24 25 19 26 32 28 29 34 35
48 46 47 46 44 44 43 44 43 44 44 40 34 38 40 35 31 31 32 30 28 27 27 28 32 33 35 35 34 33 30 28 25 23 26 24 25 25 25 25 26 27 32 33 36 36 36

GFSGBSN_sfc_dewp_075.txt.gz
Dewpoint
52 51 51 50 49 51 49 50 51 50 51 49 48 49 50 50 50 48 47 49 49 49 48 47 46 46 43 37 34 40 47 49 50 50 43 47 46 43 42 44 44 42 44 45 49 49 47
52 51 51 50 50 49 51 50 50 49 50 51 49 46 50 50 50 48 49 47 48 48 48 47 47 45 40 30 35 40 40 45 43 48 42 46 46 43 42 44 43 43 41 45 48 48 44
52 51 51 50 50 49 48 51 50 50 50 51 51 47 47 50 50 50 49 49 46 47 47 47 46 43 39 32 39 40 40 43 43 43 41 44 48 44 44 44 45 44 42 46 46 47 46
52 51 51 50 50 50 49 49 50 49 49 50 50 50 47 47 49 49 50 49 47 45 46 46 47 42 32 38 39 39 41 41 45 43 44 48 50 44 43 44 44 41 42 39 44 45 47
53 52 51 50 50 50 49 48 49 48 50 50 50 49 47 47 49 49 51 50 48 45 45 46 42 39 30 39 37 38 42 40 41 45 48 47 50 43 42 40 38 39 35 36 41 43 45
53 52 51 50 50 49 49 48 49 47 50 50 50 50 48 46 49 49 50 49 47 45 46 46 44 32 35 34 37 38 45 44 42 42 44 44 42 41 39 38 29 34 34 35 35 41 42
53 51 50 50 50 49 49 48 47 48 50 50 49 50 48 47 48 48 46 40 36 36 39 34 35 34 35 39 40 41 43 41 39 40 37 40 36 34 36 35 33 34 33 33 37 41 40
53 51 50 50 49 49 49 48 47 48 49 50 49 49 47 46 49 47 41 36 35 35 29 36 37 35 39 41 34 40 42 36 37 35 37 37 34 36 38 37 35 34 32 32 33 39 37
53 51 50 50 49 49 49 47 47 48 49 49 48 47 46 49 46 42 38 38 41 41 32 36 38 38 38 39 35 37 40 37 36 35 36 34 36 38 38 37 34 33 31 31 31 37 34
52 50 49 49 49 48 48 47 47 48 48 49 47 47 47 46 44 40 38 41 42 40 25 32 33 37 39 40 34 41 40 36 35 35 37 36 40 37 37 36 34 32 33 32 32 34 31
52 49 48 49 48 48 48 47 47 47 48 48 47 47 47 44 40 39 41 43 41 37 12 36 35 43 40 36 36 36 42 38 34 35 37 36 38 36 35 36 35 33 33 31 31 29 29
52 49 48 48 48 47 47 47 46 46 46 47 47 47 47 46 44 45 44 44 38 19 13 33 37 35 32 35 35 37 37 42 39 37 37 37 41 41 37 38 35 33 32 32 31 30 29
51 49 47 47 47 47 47 47 46 47 46 47 48 48 46 45 40 46 45 40 21 17 28 33 33 36 32 31 32 34 35 34 30 31 32 37 38 41 39 37 37 32 31 28 26 27 24
51 48 47 46 46 46 46 46 47 47 47 47 48 49 46 44 46 45 41 27 15 26 31 36 37 35 34 35 36 32 33 31 34 35 34 31 29 38 38 36 33 31 28 25 19 22 23
50 48 47 45 45 46 46 47 47 47 47 47 45 42 43 44 45 44 33 16 18 20 29 34 34 34 35 34 34 34 33 33 34 35 31 32 31 39 40 39 36 33 30 27 22 20 21
50 48 46 45 44 46 46 47 46 47 47 46 39 38 40 46 45 40 28 26 23 28 33 35 30 32 31 33 34 35 34 35 36 37 37 33 31 36 38 39 38 34 31 27 24 18 17
49 48 46 44 44 46 46 46 47 47 46 45 38 36 41 46 45 35 21 26 30 33 35 34 33 29 31 32 32 30 31 35 37 36 33 32 32 34 36 34 34 34 31 28 26 22 18
49 47 46 44 44 45 45 46 47 46 45 40 35 30 42 45 36 31 27 30 36 35 36 35 35 33 28 29 29 29 29 30 36 35 30 31 31 31 34 36 37 36 32 28 25 21 19
49 47 45 45 45 45 45 46 46 45 43 37 33 33 39 44 25 27 31 34 35 34 34 34 30 30 29 28 28 30 30 33 36 35 32 32 27 27 29 31 33 35 35 30 26 25 20
48 47 45 45 45 44 45 46 46 44 44 36 30 27 31 35 33 30 30 31 32 36 33 32 30 29 28 28 30 29 30 33 33 33 38 33 28 24 20 22 29 31 33 32 30 29 24
48 46 45 46 44 43 45 46 45 42 42 33 28 27 29 24 29 29 30 32 32 32 34 33 30 32 29 26 28 28 31 31 30 37 32 30 25 24 26 27 30 31 32 33 30 30 28
48 46 46 46 44 43 45 45 45 41 38 31 25 25 26 25 27 27 30 30 32 33 33 32 31 33 30 27 27 28 30 29 29 30 30 29 24 26 24 29 29 28 29 32 33 33 30
47 46 47 46 44 44 44 45 44 41 35 29 29 30 28 26 25 27 25 27 32 33 36 35 34 31 31 32 32 31 31 31 30 29 28 27 25 24 20 26 24 21 24 28 31 33 33
47 46 47 46 45 44 44 45 44 42 37 33 31 28 23 20 25 24 25 26 27 30 31 33 36 31 34 38 33 32 30 30 30 30 29 26 24 23 20 21 15 22 27 27 27 29 33
46 47 47 45 45 45 45 45 44 42 40 34 32 28 23 21 23 23 23 26 28 30 32 35 39 36 37 33 29 26 26 27 29 30 29 27 26 25 21 18 20 22 27 27 26 26 29
47 47 47 45 45 44 45 44 45 44 41 36 34 32 27 18 20 24 22 23 23 26 29 33 36 36 36 33 31 24 21 24 24 28 30 28 27 24 23 19 15 15 30 29 28 25 29
48 47 47 45 45 45 44 43 44 44 42 36 35 34 29 24 25 23 20 19 24 26 25 31 29 33 35 32 29 28 24 25 23 24 25 27 28 26 26 25 24 25 26 30 23 23 32
48 48 47 45 44 44 44 44 44 44 42 37 36 37 32 27 27 28 27 24 26 25 21 26 31 35 37 32 29 29 26 25 23 24 25 26 24 25 26 26 21 26 32 28 27 33 36
48 49 47 45 45 44 45 45 44 44 44 38 35 38 38 31 29 31 31 30 27 26 26 26 31 31 35 33 34 34 29 27 25 23 26 24 25 25 25 24 27 27 32 33 35 36 37

GFSGBSN_sfc_dewp_078.txt.gz
Dewpoint
53 52 51 51 50 49 50 50 50 49 50 51 52 50 46 48 50 49 49 47 48 48 47 46 46 47 40 33 28 37 46 49 48 48 47 47 44 40 37 40 44 43 42 42 43 46 45
54 53 52 51 51 49 49 49 51 50 50 51 51 51 47 46 50 50 49 48 48 48 47 47 47 44 37 27 34 38 38 43 45 48 46 48 46 38 37 38 41 43 42 42 46 45 45
55 53 52 51 51 50 49 49 50 48 49 51 51 50 48 47 48 49 50 49 45 46 47 47 45 40 35 30 37 40 40 41 45 48 44 45 50 43 38 38 41 42 40 43 44 46 44
55 54 52 51 51 50 50 49 49 49 49 50 50 50 49 47 47 49 49 51 48 44 46 47 47 41 29 35 40 38 38 42 44 44 47 45 51 44 41 43 41 39 37 39 41 45 46
56 54 53 51 51 50 49 49 49 49 48 50 50 50 49 47 46 49 49 50 48 45 45 47 42 39 29 38 34 37 40 38 43 43 46 43 49 43 43 37 36 38 29 31 37 42 44
57 55 53 51 51 50 50 49 48 48 49 49 50 50 50 47 47 48 49 48 48 46 46 44 43 35 33 32 35 37 42 42 40 40 43 42 43 41 38 35 28 31 30 31 33 41 41
57 55 53 51 51 50 49 49 48 48 48 49 49 49 48 47 47 48 48 44 38 39 40 32 34 32 34 37 38 39 39 39 40 38 38 41 37 35 32 30 27 32 31 31 34 41 39
57 55 53 51 50 50 49 49 48 47 49 49 49 49 48 48 49 47 43 38 35 36 30 36 37 35 37 39 33 39 38 35 36 35 38 38 35 37 35 34 30 31 30 30 34 38 37
57 55 52 50 50 49 49 49 48 47 48 48 49 48 48 48 47 46 39 37 42 41 32 35 37 36 36 37 33 36 38 36 36 33 37 35 37 37 35 34 30 30 28 30 30 37 37
57 54 52 50 49 49 48 48 48 47 49 49 48 48 48 47 44 42 39 41 43 40 34 33 33 36 38 38 33 42 42 36 37 34 36 35 39 37 35 31 29 31 31 32 33 32 27
57 54 51 50 49 48 48 47 47 47 47 48 47 48 48 45 43 40 40 44 43 39 23 36 35 42 38 35 34 39 42 38 36 37 37 37 38 37 34 32 32 28 34 31 31 28 29
56 54 51 50 49 48 47 47 47 46 47 47 47 48 47 45 46 44 44 43 41 31 24 33 37 33 30 33 33 35 37 42 39 37 38 38 40 39 34 37 34 34 32 32 32 30 28
55 53 50 49 48 47 46 46 46 46 46 47 48 48 47 45 41 45 45 41 32 28 31 33 34 33 31 28 30 33 35 33 32 33 32 37 37 40 39 35 34 33 31 30 28 28 23
55 52 50 49 48 46 45 46 46 46 47 48 49 48 46 44 46 45 42 34 30 29 34 36 36 33 29 32 33 33 31 31 33 37 36 33 30 37 38 36 33 32 28 27 18 20 20
54 51 49 48 47 46 45 46 46 46 47 47 47 46 45 45 46 44 35 33 31 33 33 35 36 33 34 35 33 31 31 31 33 35 32 32 32 39 38 39 36 32 32 26 26 23 24
54 51 49 48 46 46 45 45 46 46 46 46 44 43 44 46 46 40 36 31 34 29 34 34 30 33 27 31 31 32 31 33 36 36 37 34 32 37 38 39 37 34 30 28 32 23 18
53 50 48 47 46 45 45 45 46 46 45 46 43 40 44 47 45 37 35 32 33 33 35 34 32 32 33 33 32 31 31 35 37 37 38 33 32 34 35 34 32 32 31 30 27 24 17
53 50 48 46 46 45 44 45 45 45 45 43 42 39 43 46 37 35 34 32 36 36 36 35 36 31 30 33 30 29 30 32 39 36 32 32 32 32 35 35 36 35 32 29 28 25 24
52 49 48 47 46 45 45 45 45 44 44 41 39 39 41 44 36 35 35 35 36 35 34 34 31 30 30 30 29 31 31 34 38 34 31 31 31 29 31 31 34 33 34 31 29 30 29
52 49 47 47 46 45 44 44 44 43 45 39 35 36 35 38 35 35 34 34 34 36 34 32 31 30 29 29 31 30 31 33 36 34 37 35 29 27 26 28 30 32 32 33 33 33 26
51 49 47 47 46 45 45 44 43 41 46 35 30 33 34 35 32 33 34 34 32 33 35 34 31 32 28 27 29 30 31 30 32 36 32 32 33 29 26 26 33 32 31 32 34 32 30
51 48 47 47 46 45 45 44 42 41 42 32 27 27 28 28 30 32 32 33 33 34 35 33 32 31 30 28 28 28 30 30 30 31 31 30 33 31 30 29 30 29 29 30 32 31 30
51 48 48 47 45 45 44 44 42 41 35 31 33 33 33 27 28 32 28 29 32 33 36 35 36 32 32 33 33 31 31 31 30 30 30 29 30 29 26 26 26 24 26 28 29 31 31
49 48 48 46 46 45 45 44 42 40 36 33 33 31 28 24 28 27 26 27 29 29 32 33 38 33 36 39 36 31 31 30 30 31 30 28 27 27 26 24 20 21 26 26 26 27 29
49 48 48 46 46 45 45 45 42 41 39 35 34 27 26 22 24 23 23 25 27 30 33 34 39 38 38 35 30 27 27 29 30 30 30 28 27 26 24 22 21 20 26 25 24 23 27
49 49 47 46 46 46 46 45 44 41 41 37 35 32 26 17 14 23 22 24 24 28 29 33 35 34 39 34 31 24 23 24 24 29 30 29 28 26 26 22 15 17 30 29 28 24 31
50 49 47 46 46 46 46 45 44 43 41 38 37 35 29 23 25 24 21 21 24 27 28 30 29 35 39 34 31 26 21 26 22 24 27 29 29 28 25 23 21 25 27 30 22 24 32
50 49 47 46 46 45 45 45 45 42 41 39 39 40 34 29 27 28 27 24 28 24 22 27 31 35 36 33 32 29 25 25 25 26 26 25 26 26 26 25 21 28 30 27 27 33 35
50 49 47 47 45 45 45 45 45 45 42 39 37 40 39 36 29 31 31 30 27 27 27 29 32 32 35 35 35 33 30 28 26 22 28 24 25 24 26 24 28 28 32 33 34 34 36

GFSGBSN_sfc_dewp_081.txt.gz
Dewpoint
56 55 54 52 52 51 50 50 50 51 50 50 51 51 50 47 48 50 50 50 49 48 47 47 46 46 43 33 29 34 43 45 46 50 47 46 45 42 37 37 37 39 37 38 42 44 43
57 56 54 53 52 51 51 50 50 50 49 49 51 50 50 48 47 49 50 50 46 48 48 47 46 47 37 28 33 36 37 41 45 47 47 45 45 40 35 34 35 39 38 37 44 42 43
58 57 55 54 52 51 51 51 50 50 49 49 51 50 50 49 46 48 49 50 48 46 48 47 47 40 36 29 35 37 38 40 46 49 43 47 50 48 35 34 39 38 39 41 43 44 43
60 58 56 54 52 51 51 50 49 49 49 49 51 50 49 49 47 47 50 50 50 46 47 47 47 39 29 36 38 36 36 39 46 47 49 49 50 48 38 34 39 39 37 38 41 41 44
60 59 57 55 52 51 51 50 50 49 48 49 50 50 49 49 47 47 49 50 49 47 46 47 43 37 26 39 33 35 39 36 40 44 47 48 48 45 40 35 37 37 31 31 36 41 44
61 60 57 55 52 52 51 50 49 49 48 48 50 49 49 48 48 47 49 49 48 47 45 40 38 35 30 31 34 35 39 39 38 39 43 44 43 39 38 33 28 29 25 28 32 39 41
61 60 57 55 52 52 51 50 49 48 48 49 50 49 49 47 47 49 48 44 39 39 38 33 31 30 31 34 36 37 38 37 38 38 38 39 36 35 32 28 22 23 24 22 25 35 37
62 60 57 55 52 51 50 50 49 48 48 49 49 49 47 48 49 48 46 37 35 37 31 34 34 33 34 37 29 37 37 34 34 35 39 37 35 38 32 28 30 27 31 30 33 36 36
62 60 57 55 52 51 50 49 49 48 47 49 48 48 48 48 46 46 41 36 40 38 32 34 35 34 34 37 31 32 38 35 35 34 35 36 37 38 34 30 31 28 27 28 29 33 35
61 59 57 55 52 51 50 49 48 48 48 48 48 47 48 47 45 42 39 39 42 40 35 33 32 35 35 35 36 40 40 38 37 33 36 34 38 36 34 28 25 26 27 28 31 33 28
61 59 57 54 52 51 49 48 48 47 47 47 47 47 48 47 43 39 40 42 42 38 24 35 34 39 36 34 34 37 42 39 35 34 38 36 37 36 32 29 27 25 29 29 31 30 24
60 59 56 53 51 50 49 48 47 46 46 46 47 48 47 44 45 42 42 42 41 32 24 33 36 30 28 31 32 36 40 42 40 38 38 37 40 38 35 32 31 33 31 29 28 26 26
60 58 55 53 51 49 48 47 47 46 46 47 49 47 47 44 40 44 44 40 32 29 32 32 32 30 28 29 30 36 37 37 34 32 33 36 37 39 40 34 34 30 28 28 26 28 22
59 57 55 52 50 49 47 47 46 46 46 47 48 48 46 44 45 44 42 34 30 31 35 37 32 31 28 30 30 32 31 31 35 36 35 33 30 38 37 34 32 28 26 25 17 18 17
58 57 54 51 50 48 47 47 46 45 45 47 49 46 45 46 46 45 37 34 33 35 34 35 33 32 31 31 30 28 30 29 33 36 30 31 32 37 38 38 35 31 31 27 25 23 22
57 56 53 51 49 48 47 47 46 46 45 48 44 43 44 46 46 42 37 32 35 33 34 34 31 31 24 28 27 30 28 30 34 36 36 32 32 37 36 38 36 34 30 25 33 22 14
57 55 52 50 49 47 47 46 46 45 45 47 43 39 44 47 46 39 35 34 34 33 35 34 31 31 25 27 27 28 26 33 36 35 36 33 31 34 35 37 34 32 31 30 27 24 17
57 54 52 50 48 47 47 46 46 45 46 46 42 38 44 46 39 36 34 33 37 35 35 35 35 31 30 31 29 28 28 31 37 36 32 32 32 32 32 34 35 35 29 28 28 23 23
56 54 51 49 48 47 46 47 46 45 47 42 38 39 42 45 35 35 35 34 35 35 34 34 31 31 30 29 28 30 31 34 38 35 34 31 32 30 31 32 33 32 31 30 28 33 32
55 53 51 49 48 47 46 46 46 44 46 43 38 36 38 39 38 35 33 33 33 36 33 32 30 30 29 28 30 30 31 35 37 35 39 35 30 29 27 29 31 30 29 30 32 34 25
55 53 50 49 48 47 46 46 45 43 46 40 32 34 37 35 33 34 34 33 31 31 34 33 31 30 28 27 28 29 31 33 35 38 33 33 33 30 27 26 33 32 30 29 33 32 30
54 52 50 49 47 46 46 46 43 44 45 34 27 27 30 31 32 33 33 33 32 34 33 32 30 30 29 27 28 28 30 31 30 33 32 32 34 32 30 28 29 29 28 28 29 30 30
53 51 50 49 47 46 46 45 43 45 41 31 33 32 29 30 30 30 29 32 33 35 35 36 35 31 31 34 31 31 32 31 31 30 30 30 31 29 26 25 25 23 25 27 28 28 29
53 51 50 48 47 46 46 44 42 44 39 31 32 29 27 21 26 29 29 31 32 32 33 35 36 32 37 38 36 32 31 30 30 30 31 29 29 28 27 24 21 22 25 24 24 26 28
52 51 50 48 46 46 46 43 42 42 40 34 33 28 25 23 26 26 27 30 29 31 33 35 38 37 38 35 30 28 28 28 29 30 29 29 27 25 24 21 20 19 22 24 23 21 24
52 51 49 48 46 46 46 43 42 42 40 35 35 33 26 23 22 26 26 26 28 29 31 33 36 35 39 33 30 25 23 23 24 28 30 29 29 26 25 21 17 21 29 29 28 22 32
52 51 49 48 46 46 46 44 43 42 40 38 37 37 29 20 23 22 20 22 24 27 29 32 30 37 39 33 30 26 21 24 21 22 26 28 27 27 25 24 21 22 29 29 22 25 31
51 50 49 48 47 46 46 45 44 42 41 39 39 40 35 26 27 26 26 24 25 23 24 29 31 35 35 32 30 28 24 23 22 21 24 23 24 24 24 23 21 29 28 24 28 32 32
51 50 49 48 48 46 45 45 43 42 41 40 36 38 38 34 30 30 31 31 28 28 27 30 33 34 36 35 34 33 28 27 23 20 27 23 23 22 23 23 28 28 28 30 32 33 33

GFSGBSN_sfc_dewp_084.txt.gz
Dewpoint
59 59 57 55 54 53 53 52 51 50 50 50 50 52 51 50 48 48 51 51 49 49 49 48 48 47 44 37 32 33 40 41 44 45 44 46 43 43 39 38 38 41 42 44 44 50 45
60 60 58 57 55 53 53 52 51 50 50 50 49 52 50 51 49 47 49 50 51 48 48 48 47 46 41 32 33 35 36 39 45 45 44 45 45 44 41 35 35 39 40 42 44 45 50
62 61 60 58 56 54 53 52 52 51 50 49 50 51 50 50 49 47 48 50 50 49 47 49 49 44 36 32 33 36 37 43 46 49 44 44 49 44 44 37 35 36 37 39 46 46 47
63 62 61 59 57 54 53 52 51 51 50 49 49 50 50 49 49 47 47 49 50 50 47 48 48 41 33 36 37 33 36 42 43 46 47 49 48 44 43 42 36 38 37 36 41 45 47
63 64 62 60 58 55 53 52 51 51 49 49 49 50 49 48 48 47 47 49 50 49 47 47 43 38 30 39 33 33 36 36 39 43 46 47 45 42 43 40 36 38 33 34 37 42 42
63 63 63 60 58 55 53 52 51 51 50 48 49 50 49 48 47 47 49 49 48 46 45 40 36 34 36 31 33 34 37 38 38 39 43 41 41 37 40 36 30 31 32 32 33 41 44
62 62 62 60 58 55 53 52 51 51 49 48 49 49 49 47 47 48 48 46 41 39 38 33 31 29 29 33 34 34 36 36 38 39 36 39 35 33 37 34 31 32 28 30 32 39 40
62 62 63 60 58 55 53 52 51 50 49 48 49 49 48 48 48 48 45 41 36 38 33 33 33 32 32 35 30 35 38 34 34 34 36 37 34 37 38 33 28 28 28 30 37 39 38
61 61 62 60 58 55 53 52 50 50 49 48 48 48 47 48 46 45 43 37 41 38 34 33 34 32 33 36 31 33 37 35 35 34 37 35 37 38 37 35 30 25 24 34 35 36 35
62 62 62 60 58 55 53 51 50 49 48 48 47 47 47 47 44 44 39 39 43 42 34 33 32 35 36 34 37 39 39 37 35 35 36 36 38 38 38 34 32 30 29 30 31 32 29
62 62 61 60 57 54 53 51 49 48 48 47 46 45 47 47 45 40 40 42 43 40 22 35 33 36 36 35 37 38 41 40 32 34 37 35 36 36 33 32 32 31 33 32 33 32 30
62 61 61 59 56 54 52 50 49 48 47 46 47 48 47 44 46 42 43 44 43 32 21 31 34 29 29 31 35 39 40 42 41 38 38 38 39 38 38 36 34 35 33 30 28 28 24
61 61 60 58 56 53 51 50 48 47 47 47 48 48 47 43 42 45 45 43 32 27 32 30 31 29 27 29 34 38 36 35 35 31 32 35 37 38 39 36 35 33 29 26 24 21 22
61 61 60 58 54 53 51 49 48 47 46 47 48 48 46 44 45 45 44 37 27 31 34 33 31 29 29 30 30 30 32 32 34 36 32 31 28 36 39 37 33 31 28 26 16 19 20
60 60 59 57 54 52 50 48 48 47 47 48 49 47 46 46 46 46 39 31 31 35 35 33 31 30 29 29 29 29 30 31 35 36 34 31 31 38 39 40 37 31 29 28 27 23 23
60 60 58 56 53 51 49 48 48 47 47 49 46 45 45 47 47 44 38 32 34 35 34 32 32 32 23 25 26 30 29 30 34 35 36 32 29 36 39 40 38 35 32 26 30 18 13
56 59 57 55 53 51 49 48 48 48 47 48 46 41 45 47 47 40 34 34 34 34 35 33 31 29 25 26 26 27 27 33 35 35 36 33 31 34 37 35 33 33 31 30 28 25 20
57 58 57 54 52 51 49 48 48 47 47 47 43 38 45 47 39 37 35 34 35 34 35 35 35 31 28 29 27 28 26 33 37 36 33 33 33 29 32 36 36 35 35 29 26 23 23
59 57 56 54 52 50 48 47 48 47 48 45 39 39 43 45 35 35 35 34 34 35 34 34 32 32 31 30 29 30 31 37 38 35 34 32 33 30 29 31 33 33 33 33 31 31 24
52 56 55 53 51 50 49 48 47 47 48 45 39 35 39 40 38 35 34 33 34 38 34 33 31 31 30 29 31 30 32 36 38 37 40 37 31 28 25 27 32 29 30 30 31 27 27
55 56 55 53 50 49 48 48 47 46 47 44 37 37 36 33 35 34 36 33 31 31 35 34 32 31 29 27 28 29 32 35 37 38 35 33 30 27 29 26 33 32 30 30 29 30 26
53 54 54 52 50 48 48 47 47 45 47 40 32 32 34 34 33 33 34 33 29 33 33 32 32 32 30 29 30 29 30 31 31 35 32 32 30 31 27 28 28 29 29 28 29 29 31
53 55 54 52 50 48 47 48 45 46 45 37 35 34 33 33 32 31 32 30 31 35 36 36 34 31 32 34 32 32 32 31 31 32 31 31 31 27 23 25 24 23 26 28 28 28 29
52 54 53 51 49 48 47 46 45 48 45 37 34 32 31 25 29 30 32 33 34 35 34 36 36 33 37 38 36 34 31 30 30 30 30 30 29 29 24 24 15 24 26 25 25 25 28
51 53 52 51 49 47 47 45 44 46 46 37 35 34 30 23 27 28 30 32 31 33 34 36 38 36 38 36 31 28 28 28 28 29 29 29 28 26 23 21 22 22 24 25 23 23 23
51 53 52 50 48 47 46 44 43 45 44 37 36 36 33 27 25 28 28 30 30 31 32 35 37 35 39 36 31 25 24 24 26 29 30 30 29 27 25 22 18 26 29 29 29 22 32
52 53 51 50 48 47 45 44 43 43 41 40 38 38 36 25 25 25 25 26 27 30 32 34 32 37 40 34 29 27 23 25 21 22 26 27 28 25 25 26 26 27 29 30 21 25 31
53 52 51 49 48 48 45 44 43 42 42 41 39 40 38 28 28 28 28 26 26 25 27 30 32 35 35 32 31 29 24 24 22 21 23 25 25 25 26 23 22 28 28 24 29 32 32
52 51 50 49 49 48 46 45 44 43 42 42 38 38 37 34 30 32 33 32 30 29 29 32 34 34 35 34 33 32 28 26 23 19 27 23 24 25 24 25 29 29 29 29 30 32 33

GFSGBSN_sfc_dewp_087.txt.gz
Dewpoint
60 60 60 60 58 56 55 53 53 52 51 51 49 50 52 50 50 49 47 51 50 50 48 49 48 48 45 40 36 38 42 41 42 46 44 44 42 42 39 40 41 44 45 46 47 49 49
62 62 61 61 59 58 55 54 53 52 52 51 50 51 51 51 50 50 47 48 51 51 48 49 49 49 42 36 34 36 37 42 45 45 44 44 42 43 42 40 39 40 43 43 45 48 47
63 63 63 62 60 59 56 55 53 52 52 51 50 50 51 51 50 50 47 47 50 51 49 47 48 45 41 37 34 35 38 44 47 47 44 45 46 45 45 40 38 39 39 42 47 46 44
63 63 63 63 62 60 57 55 53 52 52 51 49 49 51 50 48 48 46 46 50 50 50 47 47 44 36 38 37 34 36 43 46 48 44 46 50 43 43 43 40 36 39 37 45 44 45
63 63 63 63 63 60 58 56 54 52 52 51 49 49 51 49 48 46 46 49 50 50 49 45 43 42 33 39 34 34 37 38 43 45 45 43 45 42 43 39 36 38 34 35 41 44 44
62 62 62 62 62 60 58 56 54 52 51 50 49 49 49 48 46 47 47 49 49 47 45 41 40 35 36 32 35 35 37 40 39 41 40 40 40 36 38 38 29 33 34 34 36 42 42
61 62 62 61 61 61 58 56 54 52 51 50 49 49 48 47 46 48 48 46 40 39 40 35 33 32 31 35 36 38 39 38 38 39 35 37 35 32 34 37 36 33 33 32 35 42 42
59 60 62 62 62 61 58 56 53 52 50 49 48 49 48 46 47 47 46 42 38 37 34 35 35 34 34 37 33 38 40 36 36 34 35 36 33 36 37 35 35 33 32 32 36 39 37
57 60 60 61 61 61 58 55 53 51 50 49 48 48 46 47 46 45 43 42 41 40 35 34 35 34 36 37 35 37 39 38 34 35 35 32 37 39 38 35 32 33 31 35 33 40 41
56 58 60 61 61 61 58 55 53 51 49 48 47 45 46 47 44 45 42 41 42 41 32 33 34 36 37 40 35 40 41 39 35 35 37 35 38 38 36 33 33 29 34 37 37 35 32
55 58 59 60 60 60 57 55 53 51 49 48 47 45 46 48 45 41 42 42 41 38 9 34 33 39 39 36 37 35 42 40 36 36 38 36 37 37 37 35 36 33 36 37 39 33 33
55 57 59 60 60 59 56 54 52 50 49 47 46 47 47 44 46 42 42 42 41 25 16 29 35 32 33 36 37 38 40 42 40 38 37 37 41 39 38 39 38 40 35 34 34 30 23
53 58 57 60 60 58 56 54 51 49 48 47 47 49 46 45 42 42 43 41 29 16 31 28 28 31 31 34 36 37 35 36 34 25 29 33 35 37 40 34 38 39 29 27 25 21 21
54 55 57 59 59 57 55 53 50 49 48 47 49 49 47 45 44 44 42 32 16 29 30 33 31 30 29 31 31 35 35 33 34 34 32 25 21 36 38 38 34 35 28 23 18 19 20
54 55 56 59 59 57 55 52 50 49 48 49 50 46 45 46 45 44 38 21 23 28 33 32 31 29 28 30 31 29 31 32 35 35 27 27 30 38 39 40 37 31 26 27 25 23 20
55 55 56 59 58 56 54 51 49 49 48 50 45 45 44 46 45 42 35 28 29 36 36 33 30 31 24 26 27 28 29 32 34 36 36 31 31 35 39 39 37 34 33 23 24 16 15
53 55 57 59 57 55 53 50 49 49 48 50 45 42 45 47 45 40 30 29 34 35 36 33 32 30 24 26 26 26 31 33 35 35 36 33 30 33 36 34 33 33 31 30 27 25 20
53 54 55 57 56 54 52 50 49 49 48 48 43 36 45 47 37 36 31 34 37 34 36 36 35 34 27 27 25 27 30 34 37 36 32 32 31 29 30 35 36 35 34 32 24 22 22
53 53 56 56 55 53 52 51 49 48 49 44 40 39 44 45 30 31 34 35 36 35 35 35 34 32 30 30 28 29 33 38 38 35 33 32 29 22 27 29 33 32 33 34 31 28 23
53 53 55 55 54 53 51 50 50 49 50 44 37 34 39 41 38 33 33 34 34 37 35 34 32 31 30 28 30 30 33 37 38 36 40 36 30 24 19 24 30 29 31 32 30 24 26
52 53 55 55 53 52 51 50 50 49 50 43 37 34 35 33 33 34 33 34 33 32 35 33 32 31 29 27 29 29 34 36 37 39 34 33 27 24 28 28 31 31 30 30 27 29 25
50 53 52 54 53 51 50 50 50 49 50 39 31 34 34 33 35 34 34 32 32 34 33 32 32 31 30 30 30 30 32 33 32 35 33 32 27 28 24 28 27 28 29 29 30 30 30
50 51 50 54 53 51 50 50 49 49 45 37 34 32 32 32 32 31 32 32 32 35 36 37 34 32 33 34 33 32 32 31 31 33 32 31 29 25 21 25 24 21 24 28 28 29 29
51 51 53 54 52 50 50 49 49 49 43 36 33 32 28 27 30 31 32 32 35 34 34 37 37 34 37 38 36 34 33 30 30 30 30 30 30 29 22 22 14 22 26 25 28 28 29
49 51 51 53 51 50 49 49 47 48 47 36 35 33 28 24 28 30 32 32 32 33 34 37 37 36 38 36 31 28 28 28 28 29 30 29 28 26 22 20 21 23 25 26 24 24 28
49 50 51 53 51 49 48 48 47 48 47 36 35 35 31 27 24 25 30 30 30 30 32 35 36 34 38 36 30 24 22 25 26 28 30 30 29 26 24 21 19 23 28 29 28 20 31
50 51 50 52 50 49 48 47 47 48 45 37 36 37 30 25 25 26 26 27 27 30 31 33 32 36 38 33 28 24 23 24 23 23 26 27 27 23 24 21 25 28 29 29 18 18 31
49 50 53 51 50 48 47 45 46 48 43 38 37 39 32 28 28 29 29 26 25 25 29 30 32 33 34 30 29 28 24 24 22 22 27 25 23 24 24 21 19 29 26 22 24 31 32
49 53 52 51 49 47 46 45 46 44 43 41 35 38 36 32 30 33 33 31 30 30 29 32 31 33 35 31 31 31 28 27 23 19 26 21 23 23 25 25 28 29 27 29 30 29 32

GFSGBSN_sfc_dewp_090.txt.gz
Dewpoint
63 63 62 62 62 61 59 57 55 54 52 52 51 50 51 51 52 50 49 47 50 50 49 48 49 48 44 39 38 39 41 41 44 45 41 41 40 39 38 40 40 41 43 44 48 49 49
62 63 63 63 63 62 61 59 56 54 53 52 51 50 50 51 51 50 49 47 48 51 51 47 49 50 41 34 36 35 36 42 43 44 42 43 41 40 40 41 39 41 42 43 49 47 47
59 61 62 63 62 63 62 60 57 55 53 52 51 49 49 50 50 48 49 47 47 50 50 49 47 45 42 37 36 36 44 45 46 45 42 43 44 42 42 39 41 40 41 41 46 48 47
57 59 60 62 62 62 63 60 58 55 53 52 51 48 49 51 49 48 46 46 48 50 50 49 46 44 38 40 37 34 38 44 46 47 44 45 46 42 43 43 41 38 41 39 45 47 48
52 56 59 60 61 62 62 60 58 56 54 52 51 48 49 49 47 47 46 46 49 49 49 47 43 42 34 40 35 34 35 38 43 46 46 43 45 41 41 39 36 37 34 37 43 45 45
51 53 57 59 60 62 62 61 58 56 54 52 50 49 49 47 47 46 47 48 49 48 45 43 41 35 34 33 35 34 38 39 41 41 41 40 41 37 36 36 28 34 33 34 38 43 43
50 51 55 57 58 60 62 61 59 56 54 52 50 48 48 46 45 46 47 45 39 38 41 35 34 33 33 35 38 39 40 39 40 39 34 38 34 32 34 38 36 33 32 33 38 42 39
49 51 53 55 57 60 61 61 59 57 54 51 49 49 46 46 45 46 46 41 38 37 34 36 34 35 35 38 34 38 41 36 36 34 36 36 32 35 37 37 35 32 32 33 38 39 39
47 49 52 55 56 58 61 61 59 57 53 51 49 48 47 44 46 44 42 42 41 39 34 36 36 35 36 37 36 37 40 39 36 34 35 34 36 37 37 37 35 34 32 32 36 40 40
49 48 51 54 55 56 60 60 58 56 53 50 49 47 46 46 43 45 42 42 42 40 24 31 34 36 38 39 35 39 41 39 37 34 36 37 39 36 37 34 32 31 34 33 37 37 34
47 49 51 52 55 56 59 60 57 56 52 50 48 47 46 47 45 42 41 42 41 34 5 28 33 39 39 36 37 34 41 41 37 37 38 34 38 37 36 36 35 33 37 35 37 35 35
45 48 49 52 51 54 57 59 57 55 52 50 48 47 47 45 45 44 42 41 40 19 9 24 34 33 35 36 36 38 40 42 42 38 37 37 40 40 38 39 38 39 37 37 37 35 29
45 46 49 50 51 53 54 58 56 54 51 49 48 48 46 44 42 42 44 39 21 14 27 25 26 32 32 34 36 37 36 35 35 26 29 34 36 38 40 36 38 37 33 29 27 26 22
45 47 48 50 52 55 57 57 55 53 50 49 49 49 47 45 44 44 41 28 15 26 27 32 31 30 28 31 30 35 34 32 35 33 31 25 27 35 38 38 36 36 33 26 21 20 19
46 47 48 51 53 56 57 56 54 52 50 49 50 46 45 46 44 44 35 18 21 27 31 31 31 28 27 30 31 29 30 32 34 35 28 24 27 37 39 39 39 35 27 27 23 22 19
46 47 49 51 54 55 57 56 53 51 50 51 45 44 43 46 45 40 30 26 27 34 35 32 27 28 23 25 26 28 28 33 33 35 35 30 25 34 37 37 36 32 31 23 24 15 16
45 47 50 53 54 56 56 55 52 50 51 49 44 40 44 47 44 37 24 27 33 35 35 32 32 30 25 25 27 26 31 33 35 34 35 32 28 30 34 31 32 32 29 29 26 23 16
44 48 51 54 53 55 55 53 52 51 51 47 42 36 45 46 36 35 29 33 36 34 36 35 34 34 25 27 25 28 31 34 37 35 31 33 30 26 29 34 36 34 33 29 21 20 20
44 48 52 53 56 55 54 53 51 51 51 44 38 39 44 44 30 29 33 35 36 34 34 35 34 33 30 29 28 31 33 38 37 35 33 33 27 26 24 27 31 31 33 34 29 26 20
44 49 52 53 54 54 53 52 51 51 50 42 37 34 40 41 39 32 32 33 34 36 35 34 31 31 29 28 30 31 33 37 37 36 39 35 29 22 19 23 29 28 31 32 29 22 25
43 49 51 54 55 53 52 51 51 51 50 42 36 32 35 32 32 33 33 35 33 32 34 33 31 31 29 28 28 32 35 35 37 38 34 32 26 23 28 28 30 30 30 30 27 29 25
44 49 51 52 54 53 52 51 50 50 49 39 34 34 34 31 33 33 34 33 32 33 33 31 31 31 30 29 29 29 33 32 32 34 32 32 26 26 24 27 28 27 28 28 29 30 30
46 50 51 52 53 53 51 50 50 50 46 37 34 33 33 33 32 32 32 32 33 35 35 35 32 32 31 31 32 32 32 31 34 33 31 31 28 24 21 26 23 21 23 26 28 28 29
46 49 50 51 54 52 51 50 50 50 42 35 33 33 29 29 31 32 32 33 34 34 34 37 35 34 36 38 36 34 32 30 30 30 31 30 29 27 20 21 13 21 25 25 27 28 28
46 49 51 51 52 51 50 50 50 50 42 35 35 32 29 28 28 31 33 33 33 35 34 37 36 36 38 34 29 28 27 28 28 30 30 29 29 25 22 19 21 22 24 25 22 21 30
46 49 51 51 51 51 50 50 49 50 42 35 35 36 32 28 25 26 31 32 31 30 31 35 34 35 37 33 30 24 23 25 25 27 30 29 28 25 23 20 18 20 28 29 26 21 27
47 48 50 50 52 50 50 48 48 49 43 36 36 38 30 25 26 26 29 28 31 31 31 33 32 35 36 31 28 24 23 25 24 24 24 26 26 23 23 21 24 27 29 28 19 17 30
47 48 49 50 51 50 49 48 48 48 43 35 37 39 31 28 30 30 29 26 26 31 30 30 32 33 33 29 27 26 24 24 21 24 26 25 23 23 24 20 18 28 28 22 22 30 31
48 49 51 52 51 50 48 46 46 48 43 40 35 37 35 32 31 33 34 33 31 30 31 31 30 32 32 30 29 29 28 26 22 19 26 22 24 22 25 25 29 31 28 33 33 31 31

GFSGBSN_sfc_dewp_093.txt.gz
Dewpoint
58 59 60 61 62 62 63 63 61 59 57 55 53 51 51 50 51 51 48 49 48 49 51 47 48 49 43 39 38 39 43 40 44 45 41 40 39 38 36 38 38 39 41 39 46 49 49
55 55 56 59 60 61 62 62 63 59 58 56 54 52 51 49 51 50 49 49 47 48 51 47 47 49 41 31 36 36 36 41 43 43 40 41 39 40 38 38 37 38 39 41 43 47 48
52 53 54 54 57 60 61 62 62 61 58 57 54 52 50 50 50 48 47 48 46 47 50 50 46 45 41 36 38 36 43 44 45 44 39 43 45 40 38 38 39 38 39 41 41 46 48
49 49 51 52 54 56 59 60 61 61 58 57 54 52 49 49 49 47 47 45 46 49 50 50 46 43 38 40 37 35 43 44 46 46 44 45 46 42 40 41 41 36 38 35 41 45 47
48 48 49 50 51 54 56 59 60 61 59 57 55 52 49 49 47 45 46 45 48 49 48 48 43 41 35 40 37 34 34 38 43 45 46 44 43 40 39 36 35 35 32 34 39 43 42
47 47 48 48 50 52 54 57 59 61 59 57 55 52 49 49 47 45 46 47 48 47 45 44 41 36 34 32 34 35 38 40 40 41 40 41 40 35 34 35 27 28 34 35 35 43 42
46 46 47 48 48 50 52 55 57 60 59 57 54 51 49 48 44 44 47 43 39 37 40 34 33 34 34 35 38 39 40 39 39 38 35 37 34 31 33 37 35 31 33 35 38 42 39
46 46 46 46 49 49 51 55 57 57 59 56 54 51 49 47 45 48 45 41 37 36 33 38 35 34 35 37 35 38 41 36 36 34 36 35 31 34 36 36 36 34 32 32 39 42 38
46 46 45 45 47 49 50 52 56 56 58 56 53 51 49 46 47 44 41 41 40 37 34 35 36 34 35 38 36 36 40 38 36 34 35 32 34 36 35 35 36 34 32 34 35 40 39
46 45 45 45 45 48 49 52 53 55 57 55 53 51 48 48 43 43 40 43 41 39 20 26 33 35 38 39 32 39 42 39 36 34 36 36 38 35 35 37 34 31 36 38 38 37 34
45 45 46 44 45 46 48 51 51 54 57 54 53 50 47 47 43 41 41 42 40 31 -0 23 32 39 39 36 36 35 43 41 36 37 38 35 37 36 36 37 36 34 37 37 37 36 35
46 44 46 46 46 46 47 49 51 54 56 53 52 49 48 46 45 43 42 42 37 16 -1 22 33 32 34 35 36 39 41 43 41 37 38 37 40 39 38 39 38 39 37 37 38 35 28
46 45 47 47 45 47 48 49 51 54 55 52 51 49 47 45 41 43 43 37 21 6 24 21 25 31 31 32 34 37 36 36 35 31 30 35 36 38 39 36 38 37 33 29 26 27 25
47 46 48 49 47 48 48 49 51 54 53 51 50 49 46 45 43 44 39 27 7 23 25 31 30 31 28 30 29 33 32 31 35 32 28 29 23 37 38 37 35 34 31 26 21 21 20
48 46 46 48 47 47 49 51 52 55 52 51 50 46 45 45 45 42 32 17 16 25 29 29 30 27 26 29 30 29 30 31 33 35 28 26 30 36 38 39 38 32 31 28 23 22 20
47 46 45 46 47 49 51 53 56 53 52 51 46 44 43 46 44 39 29 26 26 31 33 30 26 27 22 25 26 26 28 33 33 35 34 29 27 33 37 38 38 33 29 25 27 20 13
46 45 45 45 48 50 52 54 54 52 52 49 43 38 44 46 43 36 24 26 32 36 34 31 29 28 26 26 27 27 30 33 35 34 33 31 27 28 32 32 33 32 28 28 25 22 15
46 45 45 45 49 51 52 54 53 52 52 48 41 34 45 45 35 33 29 32 36 34 36 34 34 32 24 27 26 29 30 33 36 35 31 32 29 23 28 34 36 34 32 26 20 19 19
45 45 45 49 50 51 53 53 52 52 51 44 39 38 44 44 26 28 31 34 34 34 34 34 33 33 30 27 28 31 33 37 37 35 31 31 26 17 21 25 30 31 32 31 28 25 20
44 44 45 50 50 52 54 52 51 52 51 42 37 34 39 41 38 30 32 33 34 36 34 35 30 30 29 29 30 31 32 36 37 35 38 34 27 22 18 22 27 27 30 32 28 20 23
44 43 47 50 51 54 52 51 51 52 51 41 35 32 35 32 34 34 32 34 33 32 34 33 31 30 28 28 29 31 34 34 36 37 33 31 26 23 27 28 29 29 29 30 24 28 25
44 44 49 50 53 53 52 51 52 52 49 38 35 33 33 31 33 32 31 33 32 32 32 31 30 30 29 28 29 30 33 31 30 33 31 31 25 24 24 26 28 26 27 27 29 30 29
43 46 50 51 53 53 51 51 52 51 45 35 34 34 33 33 31 31 31 33 33 35 35 33 32 31 30 31 32 32 31 33 33 32 30 30 27 24 20 25 23 19 23 25 27 28 29
42 47 49 50 51 51 50 50 51 51 40 35 33 33 32 30 32 32 32 33 34 33 34 36 34 32 35 37 35 32 30 30 30 29 31 30 28 26 20 21 11 19 24 25 26 26 29
43 47 50 51 53 51 50 50 51 50 41 35 35 31 31 29 30 31 33 34 34 34 35 36 35 35 37 32 29 27 27 27 28 30 29 30 28 25 21 19 20 22 24 24 24 22 29
45 47 49 50 51 51 51 51 50 50 41 36 36 35 32 30 27 26 31 31 31 30 31 34 33 37 36 32 28 24 22 24 24 26 30 29 28 25 22 19 17 18 28 29 25 21 24
45 47 48 49 52 51 50 49 48 50 41 36 36 38 30 26 28 27 30 30 32 31 31 31 33 34 34 30 27 24 23 26 24 23 24 25 25 23 23 21 23 26 28 27 19 18 28
46 48 48 49 52 51 50 50 50 49 40 37 37 38 31 29 30 31 30 27 29 32 30 31 32 32 32 28 25 26 23 23 21 24 24 24 22 23 23 20 17 28 28 23 26 31 31
47 49 51 51 51 51 49 48 49 47 42 39 35 36 36 32 32 34 34 33 31 31 31 31 29 31 32 29 28 28 27 25 22 19 25 23 25 24 24 24 30 32 28 33 33 33 33

GFSGBSN_sfc_dewp_096.txt.gz
Dewpoint
51 51 53 54 54 55 56 58 59 61 62 60 58 57 55 52 50 51 51 48 48 48 50 51 47 49 42 38 38 39 43 41 45 44 40 39 39 38 35 36 38 37 38 41 41 47 46
49 49 49 50 50 53 53 54 57 59 60 61 58 57 55 53 50 51 48 49 48 46 49 50 46 48 41 30 32 36 36 40 43 42 39 39 38 38 37 35 36 36 37 38 42 42 45
48 48 48 48 48 49 50 52 56 57 59 61 58 56 55 53 51 51 48 46 46 45 48 50 47 45 41 31 37 38 40 43 43 43 39 40 41 39 37 36 37 38 36 36 38 42 42
47 47 48 48 48 48 49 51 54 56 58 59 59 56 55 52 51 49 47 45 45 48 49 50 47 43 34 39 39 36 43 44 45 45 44 44 44 42 38 39 38 34 35 33 37 42 43
48 48 47 47 47 47 48 49 52 54 56 58 59 56 55 52 51 48 45 45 46 49 48 48 42 40 35 39 36 37 35 37 42 44 45 44 42 39 38 35 32 34 27 32 38 41 42
47 47 47 47 47 47 46 48 49 52 54 57 59 56 54 52 50 47 46 47 48 47 45 44 41 36 33 32 35 34 37 38 39 40 40 41 38 36 35 33 23 27 29 32 32 41 40
47 47 47 47 46 46 46 46 48 50 53 56 58 56 54 52 49 46 46 43 38 37 40 34 33 34 34 35 38 38 40 38 39 37 34 37 32 30 30 33 31 31 32 33 37 42 38
47 48 47 46 46 46 46 46 48 49 52 55 57 55 53 52 48 47 45 39 37 35 32 38 37 35 35 36 34 38 41 35 36 31 34 34 30 33 34 36 34 32 33 34 40 40 38
48 48 47 46 45 45 45 45 46 47 51 53 56 54 52 51 48 46 42 41 40 37 33 35 36 34 35 37 35 36 39 37 34 34 31 31 33 35 36 35 35 32 33 36 36 39 40
48 48 47 47 46 44 45 45 45 47 49 51 55 53 52 50 44 42 40 42 41 35 18 21 33 34 38 39 31 39 42 39 36 33 35 35 36 33 34 35 34 31 35 37 37 36 33
47 47 47 47 48 45 46 46 47 47 49 51 54 52 51 49 43 40 41 42 39 29 -4 20 31 38 39 37 36 36 43 42 36 37 37 35 36 35 34 37 35 34 38 36 36 36 35
48 47 48 48 48 47 47 48 45 48 48 51 54 52 51 48 45 42 42 40 35 16 -5 19 32 31 33 36 36 39 41 43 42 38 39 37 36 37 38 39 38 38 35 36 36 33 26
48 48 47 47 48 47 49 46 47 47 48 51 53 51 50 47 41 43 42 35 21 5 21 21 25 30 30 31 33 36 36 36 33 28 29 34 37 39 40 35 39 36 29 24 23 25 23
48 48 48 49 47 48 46 46 47 47 48 51 52 51 48 45 44 43 36 28 10 20 23 30 29 30 27 29 29 31 31 31 34 29 25 20 26 37 39 38 36 35 30 23 21 22 21
48 47 48 48 47 46 46 48 48 49 50 52 51 48 46 44 44 40 32 19 16 22 27 29 28 26 24 28 29 28 29 30 32 34 24 26 31 35 38 40 38 35 26 27 22 21 22
47 48 48 47 45 45 47 47 49 51 53 52 46 45 44 45 43 37 29 26 26 29 31 28 24 26 21 24 26 26 28 32 33 34 32 28 29 33 36 37 37 32 29 23 24 16 13
48 47 46 46 46 46 46 50 51 53 52 49 45 40 45 45 41 36 27 25 31 35 33 29 28 26 25 24 25 27 29 32 35 34 32 29 27 29 31 32 32 30 28 27 25 21 16
47 45 45 45 46 47 51 51 54 52 51 47 42 34 45 45 35 35 30 31 35 34 36 34 33 29 24 26 27 28 29 32 36 35 30 32 28 27 28 33 35 34 31 25 21 20 19
46 45 44 46 48 50 51 53 52 52 50 45 39 38 45 43 29 30 30 34 34 34 34 34 33 32 28 27 27 30 32 36 37 34 30 29 25 17 21 25 29 29 31 29 26 24 19
44 44 45 47 50 51 53 52 51 52 49 45 39 34 38 41 36 28 30 32 33 35 34 35 31 31 29 29 31 30 31 36 37 36 38 32 26 21 17 22 27 27 30 30 26 19 22
43 45 47 50 51 53 53 51 51 51 49 44 37 33 34 31 34 32 31 33 32 32 34 34 31 29 28 26 27 30 33 33 35 36 32 30 25 22 26 28 29 29 29 29 23 26 23
45 44 49 51 53 52 51 51 52 51 48 41 34 32 32 30 33 33 33 32 32 32 32 31 30 30 30 28 27 29 32 29 29 32 30 31 25 23 24 26 27 26 27 27 28 29 29
43 47 49 51 53 51 51 51 52 50 45 39 34 34 33 33 30 33 30 32 32 34 35 33 31 30 30 31 32 32 30 33 32 30 29 29 26 23 20 24 22 18 23 24 27 27 28
44 47 49 50 52 51 52 51 52 46 40 35 33 34 31 31 31 31 32 33 34 33 33 35 34 31 34 36 34 31 30 30 30 30 31 29 26 26 19 19 7 17 23 24 25 25 27
45 47 48 50 51 51 51 51 50 44 42 36 35 31 32 30 31 30 33 33 34 34 34 34 34 34 36 31 28 26 26 26 28 30 28 30 27 24 20 17 17 22 24 25 23 22 26
46 47 48 49 51 50 50 51 51 46 42 36 37 36 32 32 28 26 31 31 30 30 31 32 35 37 34 31 27 22 21 23 23 25 29 28 28 24 22 18 14 17 28 30 27 19 29
46 47 48 49 52 50 49 50 50 48 42 37 37 37 30 27 28 28 30 30 31 31 31 31 32 33 33 29 27 23 22 24 22 22 22 25 25 23 23 20 22 25 28 29 19 19 30
46 47 48 51 51 50 49 49 48 47 43 39 36 37 31 29 30 32 31 27 31 32 31 31 32 32 31 27 25 25 23 24 21 22 23 24 22 22 22 19 16 29 27 22 28 31 33
46 48 51 53 51 50 49 48 49 46 43 39 33 36 36 32 31 34 34 33 32 30 31 30 29 30 32 29 27 28 26 23 20 19 24 22 23 23 24 23 28 31 31 33 33 32 33

GFSGBSN_sfc_dewp_099.txt.gz
Dewpoint
49 47 47 48 49 49 49 49 50 52 54 56 59 61 59 56 55 52 52 51 49 49 47 51 47 49 43 38 36 39 44 42 45 43 40 38 38 37 32 35 36 36 37 38 40 41 42
49 49 47 47 48 48 48 49 48 50 52 54 57 59 58 56 55 53 53 48 49 49 47 50 46 47 41 27 29 37 36 40 43 42 39 40 38 38 36 35 35 34 32 35 37 41 42
47 49 49 49 48 48 47 47 48 49 49 52 54 58 58 56 55 53 53 48 47 47 47 49 47 44 41 30 36 39 38 42 42 42 39 39 38 36 37 34 36 34 34 36 35 36 41
48 47 47 48 48 48 46 47 46 48 49 50 54 57 58 56 54 53 51 48 46 47 49 49 48 43 34 38 40 38 43 43 45 44 42 43 43 38 38 38 36 33 32 31 34 35 41
49 49 48 48 47 47 47 47 47 46 48 49 51 55 58 55 53 53 48 46 45 49 48 49 43 39 33 40 36 38 39 37 42 44 44 42 42 38 39 35 29 30 27 32 33 35 41
49 49 49 48 48 47 47 47 47 46 47 49 51 55 57 54 53 52 49 47 48 47 45 43 41 36 32 31 35 35 36 38 39 40 40 40 39 35 35 33 21 27 27 30 33 38 38
50 50 49 48 48 48 47 46 46 45 46 47 51 54 55 53 52 52 49 45 40 38 41 34 34 33 34 36 38 37 40 39 38 38 31 37 32 29 30 30 30 34 27 27 34 40 37
49 48 48 48 48 47 47 47 45 46 45 46 50 53 54 52 52 51 47 41 37 34 32 39 37 36 36 36 34 37 41 35 36 29 33 32 30 35 31 30 31 31 28 32 36 39 37
48 48 48 47 48 48 47 47 46 46 47 46 49 52 53 52 51 49 44 41 41 38 32 34 36 35 35 36 35 36 38 37 34 31 31 30 33 37 35 32 31 28 30 34 33 38 39
49 49 49 48 48 47 48 47 46 46 47 46 47 50 52 51 47 45 41 42 42 35 18 21 33 34 38 39 32 39 40 39 36 33 35 34 37 36 34 32 34 30 34 34 36 36 33
49 49 48 50 48 48 48 48 46 46 47 46 49 50 52 49 45 42 42 43 39 28 -2 19 31 38 39 37 37 37 42 41 35 35 35 34 36 33 34 33 36 31 37 37 37 35 34
48 48 49 49 47 48 48 48 47 46 45 46 48 51 51 48 47 45 42 38 34 17 -5 19 32 31 32 36 36 39 40 43 41 36 35 34 38 37 38 39 37 38 36 36 36 33 27
48 50 48 49 49 49 48 47 47 46 46 46 48 52 50 48 43 43 40 34 21 6 20 21 25 30 30 30 32 36 36 35 33 29 30 35 35 40 40 37 38 35 29 26 23 25 23
49 49 49 47 47 48 48 46 45 46 47 48 49 52 49 48 47 42 36 27 9 19 21 30 29 28 26 29 29 31 31 30 33 29 28 29 30 36 39 38 35 34 29 24 19 22 23
49 48 47 48 48 47 47 46 46 47 46 47 50 48 46 47 45 39 31 17 16 21 26 28 26 23 23 27 29 27 29 31 32 33 26 29 31 37 39 40 38 33 27 28 23 22 25
46 46 47 47 46 46 46 46 48 47 47 47 46 44 44 46 43 37 28 25 25 27 30 28 20 25 22 24 26 27 28 33 33 33 34 30 31 35 36 39 38 32 29 24 26 18 15
45 46 46 46 45 46 46 47 49 50 50 50 44 38 45 46 41 34 22 25 30 34 32 28 27 26 24 24 26 28 30 32 35 34 31 29 29 31 33 33 34 33 30 26 25 21 16
45 45 44 45 46 48 48 49 51 52 52 46 42 34 46 45 32 31 29 30 35 34 35 34 32 28 25 26 27 28 29 32 36 35 30 32 28 28 30 32 34 33 32 24 23 20 19
45 45 47 47 47 49 51 52 52 50 48 44 38 39 46 42 29 29 30 33 34 33 33 33 32 32 27 28 28 30 32 36 36 34 31 30 25 19 22 24 29 30 32 28 26 24 21
45 46 47 50 52 52 52 51 50 49 48 45 39 32 38 41 33 28 30 31 31 35 34 35 31 30 29 29 31 29 31 36 37 36 37 32 26 21 17 22 28 28 30 30 26 22 23
46 47 50 52 54 53 51 50 50 49 48 44 39 35 35 31 34 29 29 32 31 31 33 33 30 29 29 26 28 30 32 32 34 35 32 29 26 23 26 28 28 30 29 30 24 26 24
46 49 52 54 54 51 51 51 50 49 47 41 35 34 32 31 32 30 34 30 31 31 32 30 29 29 30 27 27 29 31 29 29 31 30 30 25 23 24 25 25 26 26 28 29 30 30
48 50 53 53 52 52 52 49 46 45 45 40 35 34 32 32 30 32 30 31 32 33 34 33 30 30 30 31 32 31 32 32 32 30 30 28 26 23 21 24 21 19 23 25 27 28 28
48 49 52 52 53 52 50 47 46 43 41 37 34 34 30 30 30 30 32 32 33 32 32 34 33 30 32 34 32 31 30 30 30 29 31 28 26 26 20 16 6 18 23 24 24 25 27
47 48 49 52 52 52 50 47 46 43 40 36 35 32 32 28 31 30 31 33 33 33 33 33 34 34 35 31 28 26 26 26 27 29 28 29 26 24 20 17 14 22 25 24 22 24 30
46 47 48 50 51 52 52 50 48 44 41 37 36 35 33 32 29 26 31 29 30 29 30 32 35 36 33 29 26 22 19 23 22 25 28 28 27 24 22 17 9 14 27 29 24 20 31
46 47 48 51 51 52 51 51 50 47 43 37 35 36 31 27 28 27 29 30 31 30 30 31 31 32 32 28 26 23 21 23 22 22 23 25 24 23 23 19 21 24 28 28 21 17 32
47 48 50 52 51 51 51 51 48 46 44 37 35 37 32 29 30 31 31 28 30 31 30 31 31 31 30 27 25 24 22 24 22 22 23 23 22 22 23 20 14 29 27 24 27 32 32
46 48 52 52 51 50 50 49 48 46 43 38 32 36 36 32 31 33 33 32 31 30 31 30 29 29 31 28 26 27 25 22 20 19 23 22 22 22 23 23 26 31 30 33 33 31 33

GFSGBSN_sfc_dewp_102.txt.gz
Dewpoint
50 50 50 50 50 50 49 48 48 48 50 50 50 53 57 60 58 55 51 53 51 50 48 49 49 49 42 34 27 36 45 46 42 39 32 35 32 30 26 25 28 28 27 28 33 34 35
51 50 49 49 50 50 50 49 48 47 48 49 50 52 56 59 58 55 51 53 49 50 47 48 49 48 37 27 29 37 36 38 37 39 38 38 34 34 31 29 28 23 26 25 32 34 36
48 50 50 49 48 49 49 49 47 47 47 47 50 51 53 58 56 55 52 53 48 48 48 48 50 44 38 29 33 37 37 37 39 38 35 37 38 35 34 30 30 28 27 28 30 29 34
51 50 50 51 50 48 48 46 47 47 47 47 49 50 54 55 56 54 53 52 50 47 49 50 50 43 31 34 38 38 38 40 42 41 40 40 41 37 36 35 34 31 28 24 25 32 34
50 50 51 50 50 50 49 49 46 46 47 46 47 50 54 56 54 53 51 50 49 47 49 50 45 38 27 38 36 36 37 34 38 41 43 41 41 37 37 34 33 28 19 21 22 31 33
50 50 49 49 49 50 49 48 47 46 45 46 46 49 54 56 53 52 50 50 49 47 46 42 40 36 35 29 33 34 36 35 35 37 37 38 38 35 36 33 22 20 21 18 23 29 35
50 50 49 48 47 48 48 49 48 48 45 45 46 47 54 53 53 51 50 48 38 39 41 33 32 31 31 34 36 35 37 36 35 34 29 31 33 30 33 32 28 32 22 20 26 27 33
49 50 50 49 49 49 49 48 48 47 46 47 46 47 50 53 51 50 47 39 36 36 33 38 37 36 36 35 32 35 39 33 34 31 30 33 30 32 31 30 28 33 27 24 31 34 31
49 49 49 49 49 49 49 48 48 47 46 46 46 47 51 52 51 49 45 41 42 38 33 34 36 35 34 35 33 35 35 36 33 32 31 31 31 35 35 27 27 31 27 25 30 36 36
49 49 49 49 49 49 50 49 48 47 46 46 46 48 54 51 47 46 44 44 43 38 33 27 33 34 36 37 34 38 38 38 36 34 35 34 36 35 34 28 29 25 27 29 32 33 31
48 48 49 50 50 49 49 49 47 47 45 45 45 47 53 49 46 43 44 44 40 34 20 24 31 37 38 37 36 38 41 40 34 35 34 34 34 33 32 30 31 25 30 34 34 32 32
48 49 49 50 49 49 49 49 48 46 46 45 46 47 51 47 46 46 44 39 35 30 14 32 31 31 33 36 36 39 40 41 40 35 37 35 38 38 36 32 34 37 35 35 33 32 29
49 50 49 49 49 48 48 48 47 46 46 47 47 48 49 47 43 47 40 35 32 24 23 27 29 30 28 29 30 35 36 34 34 33 32 35 37 39 40 35 38 37 35 30 26 28 24
47 47 46 46 47 48 48 49 46 44 45 45 47 50 48 47 47 43 38 32 25 19 26 28 28 27 27 29 29 30 33 32 33 33 34 33 31 37 40 37 33 32 28 26 18 19 23
46 46 46 47 47 47 46 44 46 46 46 45 47 48 47 47 46 42 32 32 30 25 27 28 27 23 25 27 29 28 30 32 33 34 30 30 33 38 38 39 38 31 29 26 25 26 24
46 46 45 46 46 46 45 47 46 46 45 45 47 45 45 47 45 39 35 29 31 26 29 27 20 24 22 26 27 28 28 33 34 34 33 31 33 36 36 38 37 31 29 26 30 21 17
45 46 46 47 47 47 45 47 47 48 48 47 44 39 45 47 43 34 32 29 31 32 32 28 24 25 25 26 28 29 30 32 35 34 32 30 31 34 34 34 33 32 28 26 24 21 14
47 48 48 48 47 47 48 48 49 50 50 48 43 35 46 46 35 33 29 31 35 31 35 34 30 27 26 27 29 30 30 34 36 35 29 31 30 32 31 33 33 33 30 25 26 20 22
48 51 53 53 51 49 50 50 51 52 50 45 39 39 46 45 31 29 31 33 34 33 34 33 31 31 28 29 28 31 33 36 36 35 32 29 28 28 27 28 29 31 32 29 26 28 24
50 53 55 54 53 52 53 53 53 51 48 48 41 33 39 41 33 28 32 33 31 35 34 34 31 31 30 30 32 31 31 35 37 35 37 32 27 24 24 27 30 28 29 30 29 34 21
51 54 53 52 51 51 50 50 49 49 48 48 41 36 36 33 32 31 33 33 31 30 34 32 30 30 29 27 29 30 33 32 33 34 32 31 30 28 28 28 30 29 29 29 33 27 27
51 53 52 52 50 50 50 50 49 48 47 44 38 34 33 31 31 31 34 33 29 33 33 31 30 30 29 27 28 27 31 31 31 31 31 31 31 27 27 25 26 25 26 27 28 29 29
50 51 53 50 49 48 48 48 47 46 47 42 37 36 32 31 30 31 31 33 32 34 34 33 31 31 31 32 32 33 33 32 32 31 30 29 28 27 25 24 21 21 22 24 26 28 28
49 49 52 50 48 47 47 46 45 43 42 39 36 35 31 28 29 30 33 34 34 33 33 34 33 31 33 33 32 31 30 30 30 30 31 28 28 28 25 18 14 21 24 24 25 27 28
46 48 50 52 50 48 48 47 45 42 40 37 36 36 32 28 29 31 33 35 35 35 34 34 36 36 34 31 30 27 26 27 28 29 29 29 27 24 20 16 18 22 25 24 22 25 31
46 48 50 52 52 50 50 49 46 43 41 37 36 37 35 31 30 30 34 34 33 33 34 36 38 39 34 30 26 21 18 23 21 26 29 28 28 23 24 15 5 20 28 29 25 20 32
46 47 50 52 52 52 51 50 48 45 41 39 37 37 34 30 30 30 33 33 34 33 34 36 35 35 34 30 27 25 20 25 21 21 24 27 27 24 23 21 19 23 28 29 21 18 32
46 48 50 52 52 52 52 49 47 46 42 40 36 38 35 32 32 32 32 33 34 34 33 35 33 34 32 29 28 26 23 25 25 25 25 23 23 24 25 23 16 28 28 24 27 32 29
46 49 52 53 52 51 52 49 47 45 44 41 36 37 36 34 33 34 34 35 34 32 35 35 34 33 35 32 29 28 25 25 23 18 26 22 23 21 24 21 27 31 29 33 30 27 30

GFSGBSN_sfc_dewp_105.txt.gz
Dewpoint
50 50 50 49 49 48 49 50 50 48 49 48 48 50 50 54 56 59 55 52 53 50 49 47 50 49 42 35 29 38 46 48 44 39 31 30 29 25 22 17 19 21 23 25 28 29 30
49 51 51 51 51 50 50 50 49 48 47 48 47 48 50 53 56 58 53 53 51 49 48 47 49 48 38 32 27 34 38 39 35 34 32 33 30 29 28 24 23 20 18 19 23 25 30
50 51 52 51 51 51 51 49 49 48 48 48 47 48 49 52 56 55 52 53 51 49 48 47 50 45 39 34 27 33 35 33 34 35 32 32 33 32 29 27 27 26 25 23 22 24 27
50 51 51 51 51 51 51 51 50 48 48 47 47 47 48 52 54 53 53 53 50 47 47 48 50 43 36 32 31 34 33 34 37 36 37 36 37 34 32 33 31 29 29 24 21 21 25
50 50 50 51 51 50 50 50 49 49 48 46 46 47 48 50 53 54 53 51 49 47 49 50 46 41 29 39 32 30 32 33 34 37 39 37 38 34 35 32 29 28 24 21 21 16 24
49 50 50 51 51 50 49 49 49 49 48 47 45 46 48 53 55 52 50 50 50 50 46 43 38 34 31 29 32 32 34 34 33 33 36 37 37 33 33 31 21 27 24 18 17 15 22
49 50 50 50 50 49 50 49 49 48 47 47 46 46 48 54 52 50 50 48 39 39 39 32 31 30 28 31 35 34 34 35 34 32 29 31 33 28 28 29 32 30 23 19 20 14 27
49 49 50 50 50 50 49 49 49 48 47 47 46 47 45 51 52 50 49 40 36 38 35 35 35 34 34 35 32 34 36 34 33 32 31 32 29 28 36 34 35 34 25 23 22 24 26
50 50 50 50 48 50 50 50 49 48 46 46 46 47 47 50 51 50 45 41 41 38 32 34 35 34 34 35 32 33 37 35 34 34 35 32 31 35 36 31 28 28 25 24 32 27 27
48 49 48 48 48 48 49 50 49 47 47 46 46 47 52 53 47 46 43 46 43 40 36 30 32 34 36 35 35 37 37 36 37 34 36 35 34 35 35 30 25 21 22 29 33 28 28
48 47 47 48 49 50 49 49 48 47 46 44 45 46 52 48 47 44 45 45 43 37 23 27 32 37 36 36 36 38 39 40 35 36 34 34 33 34 33 27 25 26 28 27 32 30 33
47 47 47 47 47 48 48 48 47 47 46 45 45 47 52 47 47 47 46 43 39 34 21 33 32 33 34 36 35 39 39 41 38 36 37 35 37 36 33 32 29 32 31 36 37 35 26
47 47 46 46 47 47 48 49 47 47 45 46 46 48 49 46 43 47 44 37 34 28 22 29 31 30 29 29 31 34 35 38 36 33 34 36 36 37 38 33 35 36 35 31 29 29 24
47 46 46 46 47 48 47 48 47 46 46 46 48 50 49 47 48 46 40 34 29 21 26 27 29 28 27 29 29 29 32 36 36 34 34 33 29 36 37 37 36 34 33 28 24 24 25
48 48 48 47 47 48 46 47 46 47 46 46 49 48 47 47 46 45 35 34 32 26 26 28 28 25 26 27 28 28 29 31 32 33 33 33 33 37 36 37 36 31 28 27 25 22 24
49 49 47 47 46 46 48 46 45 44 45 47 47 45 44 47 47 42 36 30 31 27 29 27 21 24 21 24 25 26 27 32 33 33 34 33 31 35 36 37 36 30 28 27 32 20 17
52 54 52 48 46 45 46 44 45 46 47 49 46 40 45 47 46 35 35 31 30 30 32 29 23 23 24 24 27 26 27 32 34 33 32 32 33 34 34 32 32 31 28 25 25 21 14
53 55 54 48 47 46 45 47 49 48 48 47 44 35 46 47 37 33 29 32 34 30 35 32 29 27 26 27 26 26 28 31 35 34 29 30 31 31 30 32 31 32 29 26 28 18 21
53 53 55 52 47 47 47 48 49 49 48 45 40 39 46 45 33 29 32 33 33 31 32 31 29 29 29 28 26 29 30 35 35 34 31 29 27 29 27 28 29 28 27 26 26 32 25
53 52 52 54 50 49 48 49 50 51 49 44 39 34 39 40 33 28 31 31 28 35 34 32 30 30 28 27 29 28 28 34 36 33 37 34 28 27 27 28 30 28 27 27 31 34 22
53 51 51 51 52 54 53 52 51 52 50 44 39 34 35 33 31 30 33 31 27 28 34 32 29 29 27 24 25 26 30 29 32 36 32 31 29 30 27 27 30 27 26 27 31 26 27
50 52 51 51 50 49 50 49 49 49 49 43 36 33 35 31 30 30 32 32 27 30 32 28 28 30 28 27 28 26 28 28 29 29 30 30 29 29 26 24 25 23 24 25 26 27 26
49 51 51 49 49 49 49 48 48 48 49 42 38 37 32 32 29 29 30 31 29 32 34 33 30 29 30 32 32 32 32 31 31 30 28 28 28 28 25 23 21 20 22 24 25 26 27
48 50 52 50 49 48 47 47 46 45 45 40 38 35 30 28 28 29 31 33 31 33 31 33 33 30 33 33 32 31 31 30 30 30 31 26 26 27 24 20 17 23 25 24 24 26 28
47 49 51 51 50 49 48 47 44 43 43 39 38 37 32 27 28 29 31 34 34 34 34 34 36 35 34 32 30 25 25 26 27 29 29 29 25 22 20 13 17 21 24 24 23 23 29
46 48 50 52 51 50 50 49 45 43 41 39 38 39 35 29 28 31 33 35 31 31 33 36 37 37 36 31 26 21 16 20 17 23 29 29 27 22 21 16 5 19 27 28 25 19 30
46 47 49 51 53 52 51 49 47 44 44 40 38 39 37 32 31 33 34 34 35 33 32 35 34 35 35 30 27 24 19 24 19 18 21 24 24 23 18 20 15 25 28 28 20 23 31
46 48 50 52 53 52 49 48 47 46 44 41 38 39 38 34 33 33 33 34 36 35 31 36 34 34 33 30 27 25 21 23 23 23 22 20 20 20 22 21 18 27 28 23 28 31 30
46 50 53 52 52 52 51 48 46 46 46 45 38 37 37 37 35 35 35 35 34 34 36 37 36 34 37 32 29 28 23 24 22 15 26 21 22 20 22 21 27 28 29 32 31 30 29

GFSGBSN_sfc_dewp_108.txt.gz
Dewpoint
51 51 51 52 52 52 51 51 50 50 50 47 49 48 48 48 52 55 58 55 53 51 50 48 50 50 45 35 30 45 47 48 45 39 31 28 28 26 22 19 18 17 20 21 24 28 29
52 50 50 52 52 52 52 52 51 50 49 49 47 48 48 48 51 54 57 54 54 52 50 50 51 50 39 31 28 40 38 41 35 34 31 32 30 30 28 25 23 21 20 20 23 23 22
50 50 50 52 53 52 52 51 51 51 50 48 48 47 48 48 51 55 55 53 52 51 50 49 50 45 39 30 29 33 35 33 34 34 31 33 34 32 31 27 28 27 27 27 26 25 23
49 48 50 50 51 51 52 52 51 50 50 49 48 47 47 48 50 55 54 53 51 49 48 48 51 45 36 33 34 33 32 32 35 36 35 36 38 34 32 33 31 28 28 25 26 27 25
46 47 49 50 50 51 51 52 51 50 49 49 49 47 47 47 49 52 54 52 49 48 49 50 48 43 30 38 28 29 30 31 34 37 37 34 36 35 34 32 28 27 23 22 23 25 24
47 47 49 49 49 50 50 51 50 49 50 49 48 47 48 48 52 54 52 50 49 51 48 45 39 36 31 29 32 31 34 34 32 35 35 36 37 34 33 31 18 22 24 29 26 23 22
48 48 49 49 49 50 50 52 49 49 49 49 48 47 48 53 55 51 50 49 44 40 40 34 32 29 29 33 34 33 33 33 33 32 28 31 31 27 28 28 26 25 29 25 25 22 22
49 49 48 48 49 48 49 49 49 49 49 47 47 46 48 51 51 51 49 42 37 39 34 37 33 32 33 34 31 34 35 32 32 32 32 33 30 29 28 30 30 32 29 27 27 27 23
49 48 48 48 49 49 48 48 49 49 48 46 46 46 46 47 51 49 46 43 43 40 34 34 34 34 34 35 32 33 35 35 36 36 35 33 31 34 34 32 29 30 26 25 29 32 26
48 48 46 47 48 49 48 49 47 48 47 46 45 46 49 52 47 47 44 46 46 42 35 30 33 34 36 36 35 36 38 38 38 34 36 34 33 34 33 30 28 25 26 28 31 30 27
49 48 47 46 47 47 49 49 49 47 47 45 45 51 51 49 47 43 46 49 46 40 24 29 32 38 37 36 36 37 39 39 36 36 35 34 34 30 29 28 27 23 29 37 32 33 29
49 48 48 46 48 48 47 48 48 48 46 46 48 50 50 47 48 47 48 46 42 32 18 29 33 34 33 35 35 39 39 41 39 37 37 35 36 36 32 34 33 32 35 35 34 33 29
50 47 47 47 47 49 49 48 48 48 48 48 48 50 49 47 44 48 45 41 32 26 24 28 31 31 31 32 32 35 38 37 35 32 30 35 35 37 37 35 36 36 33 28 27 27 27
54 48 45 47 47 48 47 47 48 48 48 50 50 50 48 48 48 47 43 36 24 22 29 28 30 30 30 30 31 30 37 34 36 34 33 30 23 36 38 36 34 35 35 29 23 25 29
54 51 47 46 47 46 47 47 48 47 48 49 49 48 46 47 47 47 38 32 29 30 27 29 28 28 28 28 29 29 31 31 33 33 32 34 31 36 38 38 38 34 32 32 32 26 27
54 52 48 47 48 48 47 48 46 46 48 49 47 44 44 48 48 43 38 30 30 28 29 28 25 25 22 25 27 28 30 32 33 33 36 32 30 34 35 38 38 34 31 28 32 25 23
54 51 48 47 48 47 46 45 46 47 49 48 46 39 45 48 47 38 35 31 29 30 33 30 26 24 23 25 26 26 28 33 34 33 33 33 34 31 34 32 31 31 29 27 25 22 17
54 49 48 47 47 46 45 45 47 48 49 48 43 35 45 48 38 35 32 32 35 31 36 33 31 28 26 27 27 27 28 32 35 34 31 31 31 29 30 31 31 32 26 25 26 24 24
52 51 47 47 46 45 46 49 48 49 48 43 40 39 46 44 35 31 32 32 33 32 33 32 30 31 30 28 28 29 30 36 36 34 31 31 28 25 25 29 30 28 27 29 28 32 22
52 52 52 49 46 46 46 48 49 49 49 46 38 35 39 40 37 31 32 30 28 37 34 32 30 31 28 26 28 29 29 35 35 33 38 37 29 27 23 26 30 27 27 28 32 25 24
53 52 51 52 51 49 48 49 51 51 50 47 40 34 35 34 32 32 34 31 28 30 34 32 30 29 27 25 26 27 29 30 32 36 32 32 27 26 26 28 29 25 26 27 26 26 25
52 52 51 51 51 52 52 51 52 52 50 44 39 34 35 32 31 31 33 32 29 30 33 29 29 29 30 29 29 29 30 30 29 31 29 30 27 27 23 23 24 23 24 27 27 27 27
50 52 50 50 50 50 49 48 48 48 48 45 40 39 36 34 30 29 30 32 30 33 35 33 32 30 31 33 32 31 31 31 30 30 29 28 28 26 22 24 22 21 23 24 25 27 28
48 50 50 49 50 50 50 48 46 46 47 44 41 39 33 29 29 29 32 34 31 34 33 34 35 32 34 33 33 32 32 30 29 29 29 27 26 26 22 21 13 23 26 25 25 27 30
46 48 50 48 50 50 50 49 46 46 47 43 40 40 35 28 29 28 31 34 34 35 34 36 36 36 34 33 31 26 28 27 27 29 29 28 26 22 21 15 16 21 24 25 24 26 29
45 47 48 51 51 50 50 49 47 47 47 42 41 41 40 30 28 30 31 34 32 32 34 36 37 36 37 33 28 21 18 22 19 24 29 29 27 24 20 18 10 21 26 27 26 21 30
45 46 48 49 51 52 51 49 48 46 45 43 41 41 40 34 32 33 33 34 35 33 33 35 34 35 35 31 27 24 20 23 20 20 22 24 24 22 22 19 19 27 28 28 20 23 31
45 47 49 51 51 53 51 48 47 47 47 44 40 40 40 36 34 34 34 35 36 36 33 36 34 34 34 30 27 25 22 24 23 21 23 21 20 22 22 19 15 29 28 24 28 31 31
45 48 52 53 52 52 49 48 47 47 46 46 41 38 38 38 35 36 35 35 35 35 36 37 36 35 37 34 29 28 24 24 21 16 27 21 23 23 22 24 28 29 30 31 31 30 30

GFSGBSN_sfc_dewp_111.txt.gz
Dewpoint
51 49 49 50 51 52 52 53 53 52 52 50 49 48 48 48 49 51 55 57 56 54 52 50 51 51 47 39 36 48 50 51 45 42 34 32 29 28 25 23 24 20 19 22 26 27 26
52 49 47 47 50 50 51 52 52 52 52 50 49 48 47 48 49 50 52 57 55 53 51 50 52 50 42 28 43 45 45 45 38 38 34 34 32 32 28 27 25 26 28 27 29 28 26
50 50 48 48 48 50 50 51 51 52 50 50 49 48 48 48 48 53 55 56 55 52 51 51 51 46 40 27 32 41 38 37 36 37 36 38 37 32 32 29 31 30 28 28 28 29 29
48 49 49 49 49 49 50 49 51 51 51 50 50 49 47 48 48 52 56 54 53 51 50 50 50 46 36 37 34 34 34 35 36 38 37 37 38 36 33 33 32 28 27 24 26 29 29
50 49 49 50 49 48 49 50 50 50 50 50 48 49 48 48 48 52 54 52 50 49 49 49 48 44 33 38 30 32 32 33 36 37 39 34 38 34 34 30 28 27 21 24 25 28 28
51 50 49 48 48 48 47 49 51 49 50 49 47 48 49 50 50 54 52 51 50 50 48 47 42 36 34 32 32 31 31 35 35 37 38 37 35 31 31 31 19 17 24 25 26 27 27
51 50 48 48 48 48 48 46 47 48 48 48 47 48 49 55 55 51 51 50 44 42 42 35 34 32 31 35 36 35 35 35 35 33 29 34 30 26 27 30 27 26 26 24 25 30 28
50 50 48 47 48 49 47 47 47 47 48 47 47 47 50 53 52 50 48 43 39 38 34 38 36 34 35 37 33 36 36 33 33 30 33 32 28 30 30 28 28 32 29 27 27 28 28
50 49 49 47 48 49 48 46 47 48 48 47 47 46 50 53 50 48 46 45 46 41 33 35 35 35 36 36 34 35 36 37 35 34 34 30 30 35 34 33 31 30 27 28 26 29 30
50 48 48 47 47 49 48 47 48 49 48 47 49 47 48 51 47 47 45 47 47 42 30 30 33 36 36 38 36 38 40 38 37 32 36 33 33 33 33 32 31 27 28 32 33 28 19
51 48 47 47 48 48 49 49 49 48 47 48 50 52 52 50 46 44 47 49 46 39 14 30 35 40 38 37 37 38 41 39 36 36 35 32 34 34 29 28 29 27 28 31 33 31 29
54 48 45 47 48 49 49 49 49 47 48 50 50 50 49 47 47 47 48 47 41 27 8 24 35 35 35 36 36 38 39 41 40 37 37 35 37 36 33 33 33 35 33 34 34 32 25
53 48 47 48 50 49 49 49 48 49 48 49 51 50 48 48 44 47 44 40 25 13 23 26 29 34 33 34 35 38 38 37 35 30 26 35 34 36 36 36 37 37 32 26 23 23 26
52 47 48 48 48 48 49 48 48 49 50 52 49 48 47 46 47 46 42 30 14 23 25 30 31 31 30 31 31 34 37 34 37 35 29 29 19 34 39 36 34 34 34 28 23 23 28
50 48 48 47 48 48 49 48 49 49 50 49 48 45 45 47 47 44 36 22 21 27 29 30 29 27 28 29 29 29 31 32 32 32 29 30 27 36 37 38 39 36 34 35 32 32 25
49 48 49 48 48 48 48 47 47 49 50 49 44 42 44 47 46 40 31 27 26 31 32 30 25 26 23 25 27 27 30 33 33 34 35 33 30 34 35 39 38 38 34 29 30 24 23
49 47 49 48 47 46 46 46 46 48 49 49 41 39 44 46 43 36 25 27 30 32 35 32 29 25 25 25 26 27 30 33 34 34 34 32 34 30 33 31 30 31 29 27 26 25 24
48 48 47 48 47 46 46 46 47 48 49 45 40 34 42 45 32 32 29 32 35 31 35 34 31 29 27 28 27 27 30 33 35 34 32 31 31 25 28 31 30 30 29 26 24 22 25
52 48 47 47 47 47 49 48 47 48 49 41 37 38 42 43 26 28 31 33 34 34 34 32 30 31 30 28 27 29 30 35 35 34 30 31 27 21 23 25 28 30 27 29 29 27 23
51 52 49 48 48 48 49 49 49 49 50 44 36 32 35 37 36 28 30 29 31 36 35 33 30 31 28 26 29 28 29 34 35 32 39 35 28 25 21 24 29 26 27 28 27 22 25
52 50 52 51 50 49 49 50 51 52 52 45 37 31 33 26 30 31 31 32 29 31 34 33 30 30 29 27 27 27 29 30 33 35 32 31 25 24 27 28 27 25 26 27 24 26 21
51 51 50 51 52 50 50 51 51 51 50 43 37 33 34 32 30 30 32 31 29 31 33 31 30 32 31 30 30 29 30 29 29 31 29 30 26 27 23 23 24 22 24 26 27 27 28
49 51 51 49 49 49 49 48 48 48 47 44 41 37 34 31 29 28 29 31 31 33 34 33 33 32 31 32 32 31 31 30 32 29 29 27 27 24 22 24 21 20 22 24 25 28 28
48 49 51 50 50 49 48 48 47 47 46 44 41 38 32 27 30 28 32 33 32 34 33 34 35 32 33 34 33 32 31 30 29 29 29 27 25 25 19 18 10 23 25 25 26 29 30
46 47 49 51 51 51 49 47 47 47 47 41 40 39 35 29 29 28 30 33 34 34 34 35 36 36 35 34 29 25 26 25 27 28 30 28 26 21 19 17 15 22 24 25 25 24 30
44 46 47 49 50 52 50 49 48 47 47 40 39 39 38 32 27 31 29 33 32 30 33 35 37 37 37 34 28 20 16 19 19 20 30 28 27 23 20 16 10 17 26 26 25 19 29
44 45 47 48 50 51 52 50 47 48 46 40 38 39 38 32 32 33 31 33 35 33 32 33 34 34 35 31 27 23 19 22 19 20 21 23 23 21 21 18 19 25 28 27 18 15 30
45 45 47 50 51 51 52 50 47 48 47 41 37 39 38 34 32 34 34 32 34 35 32 34 31 32 33 29 27 25 22 23 20 21 22 20 20 20 21 19 13 29 28 19 21 31 31
45 45 49 52 53 52 52 50 48 48 46 46 38 37 39 36 35 35 35 35 35 35 34 35 33 33 35 31 29 27 24 24 21 17 26 19 22 20 21 22 25 29 26 29 31 30 30

GFSGBSN_sfc_dewp_114.txt.gz
Dewpoint
52 49 49 50 48 48 49 51 51 53 53 53 51 50 47 46 48 49 51 54 58 56 54 51 52 52 45 38 38 45 51 47 42 38 32 31 28 27 24 25 24 21 24 28 30 30 28
48 50 50 50 50 48 48 50 50 51 51 52 52 49 48 47 48 49 51 54 58 55 52 51 52 50 41 28 43 47 45 45 38 37 33 32 32 31 28 27 26 27 28 28 30 30 30
50 51 51 50 50 49 48 49 48 50 50 51 51 49 48 47 48 52 55 57 55 53 51 52 52 46 37 27 35 44 42 38 37 37 36 37 36 32 32 29 32 29 26 27 26 28 28
51 51 50 50 49 48 48 48 48 49 50 51 50 48 47 48 48 53 56 56 55 54 52 52 51 45 33 37 38 35 34 36 36 37 37 37 37 34 31 32 31 27 26 23 24 28 30
51 50 50 48 48 48 47 47 49 50 50 49 48 48 47 48 49 52 55 53 52 51 51 51 46 42 32 36 33 33 33 35 36 37 38 35 37 33 33 28 23 25 19 22 25 30 30
50 49 49 47 49 49 47 47 48 50 49 49 48 47 48 48 51 53 52 51 50 50 48 48 43 33 35 33 32 31 31 35 36 37 37 36 35 29 29 23 14 16 18 23 23 25 26
52 48 49 47 49 49 48 46 47 48 49 49 48 49 54 55 53 52 51 48 43 41 41 35 36 33 33 36 36 35 35 35 34 33 30 34 28 25 25 29 26 25 25 24 25 27 27
52 48 48 48 49 49 48 47 48 49 48 48 48 53 54 53 53 53 48 42 41 40 34 37 36 34 35 37 34 36 37 33 33 28 32 29 27 28 31 29 29 29 28 26 27 28 27
52 48 48 49 50 49 49 49 49 49 48 47 48 51 52 51 49 47 45 45 46 40 31 34 36 36 36 36 35 35 36 36 34 32 33 28 27 33 32 30 29 28 26 26 26 28 30
50 48 49 49 49 49 49 49 49 47 48 50 48 51 51 50 46 47 45 47 46 42 25 31 34 37 37 38 35 39 41 38 36 32 32 32 32 32 32 31 29 26 28 29 29 31 20
50 48 49 50 49 50 49 49 47 48 50 52 49 48 50 49 44 44 47 48 45 37 9 29 35 40 38 37 37 38 42 39 36 35 34 30 33 33 32 29 30 27 30 30 31 33 31
49 50 50 50 50 49 49 48 48 50 51 51 51 51 50 47 45 46 48 46 39 22 9 23 35 34 35 36 37 38 38 41 40 37 35 34 37 36 34 32 30 33 36 34 35 32 22
50 50 49 49 50 49 49 49 48 49 51 51 50 49 48 47 41 47 44 38 22 15 22 24 29 35 34 34 35 37 38 37 35 28 23 33 34 36 36 34 38 38 32 25 22 22 21
50 48 49 49 50 49 49 49 48 49 51 49 49 47 47 46 46 45 40 26 15 22 24 30 32 32 29 32 33 37 36 33 37 36 29 28 21 34 38 37 34 34 33 28 21 22 26
50 49 49 49 49 49 48 49 50 50 49 48 47 44 44 45 46 42 32 20 20 26 29 29 29 27 27 29 29 33 33 31 32 32 27 28 25 33 36 38 38 36 34 36 32 33 24
49 49 48 48 49 48 48 48 49 50 50 50 41 41 40 45 44 38 30 26 26 30 33 31 25 26 23 25 26 28 30 33 33 34 35 32 29 33 35 39 39 37 37 30 30 24 19
48 49 48 47 47 47 47 48 49 50 50 49 40 35 41 44 42 33 25 26 30 31 35 31 29 26 25 26 27 28 30 33 34 33 34 33 32 30 32 30 30 31 30 29 27 30 24
47 48 47 48 48 48 47 48 49 49 51 43 38 30 40 43 32 30 28 31 35 32 35 34 31 29 27 28 28 28 29 31 35 34 31 31 30 26 26 31 31 30 29 27 24 23 26
49 47 48 48 48 49 50 49 49 50 51 41 35 34 41 40 26 27 31 31 33 33 34 32 30 31 29 27 26 28 29 34 35 33 29 30 27 20 16 20 27 29 28 28 27 25 24
51 52 48 48 48 49 50 51 51 51 52 42 34 27 33 35 34 28 29 28 28 35 34 32 31 30 28 26 28 28 28 33 34 32 39 34 28 24 15 22 28 26 26 27 25 20 23
52 51 52 49 49 49 49 51 51 51 52 43 35 30 32 26 29 30 30 31 29 30 33 32 29 31 30 26 27 28 29 30 31 34 32 29 24 23 26 27 28 24 25 27 24 25 21
50 51 50 52 49 49 50 51 51 50 48 43 35 34 33 31 30 29 31 29 28 30 32 30 30 31 31 29 29 28 30 30 29 30 29 29 24 26 23 24 22 22 23 26 26 28 28
48 50 51 49 50 51 50 49 48 48 46 41 42 37 34 31 29 27 28 31 30 33 33 33 33 32 30 31 33 32 32 31 30 29 28 27 26 24 22 22 21 19 21 25 25 28 28
46 48 50 50 51 49 48 47 47 47 45 42 40 37 32 28 29 28 29 33 33 34 33 33 34 32 32 34 34 33 32 30 29 29 29 27 25 25 19 16 8 18 25 24 24 28 30
44 46 48 49 50 51 50 49 49 48 46 40 39 38 34 29 29 28 28 32 34 34 33 35 35 36 36 34 28 23 21 23 26 28 29 28 25 21 16 16 12 21 23 25 22 19 30
44 44 46 48 49 51 51 50 48 48 45 39 38 38 37 31 27 30 30 31 31 29 32 35 36 36 35 33 27 20 16 18 17 19 29 28 26 21 19 13 9 8 24 26 21 14 28
45 44 45 47 49 50 51 51 49 48 47 38 36 38 37 31 32 31 30 31 34 32 31 33 33 33 34 30 27 24 20 23 17 20 20 22 23 20 20 18 19 19 27 25 11 3 30
46 45 45 48 50 50 51 52 50 47 47 40 37 39 37 33 32 34 34 32 34 34 32 33 31 30 33 27 27 25 23 22 21 20 21 18 20 20 21 18 12 27 27 20 19 30 31
46 46 45 49 52 52 50 52 50 48 47 44 38 38 39 36 34 35 35 36 35 35 35 34 32 33 34 31 29 27 24 24 21 18 23 21 21 19 21 20 22 29 25 27 31 30 30

GFSGBSN_sfc_dewp_117.txt.gz
Dewpoint
51 51 51 53 52 52 50 48 50 50 51 52 53 51 50 46 46 47 49 52 55 58 55 53 53 52 44 36 40 45 49 46 38 36 32 31 29 27 23 26 25 22 25 29 30 31 30
52 52 51 51 50 49 49 49 48 49 51 53 52 51 49 46 47 48 51 52 54 57 53 53 53 50 39 34 43 47 46 41 36 37 36 33 32 30 29 27 25 28 29 28 29 29 29
52 51 50 48 49 49 49 49 48 49 50 50 51 50 48 47 48 50 54 54 57 54 52 53 52 44 34 38 39 44 40 37 36 37 35 36 35 31 31 27 31 30 25 26 26 27 27
54 50 50 48 50 50 48 49 49 49 50 50 48 47 47 48 49 53 56 56 54 54 53 52 50 39 32 36 42 40 35 35 36 37 36 37 36 33 30 31 30 27 26 22 23 27 28
54 49 50 49 50 49 48 50 50 50 51 51 48 48 48 48 49 54 55 54 54 55 52 51 44 36 31 36 34 33 34 35 35 36 38 36 36 33 32 26 21 23 18 20 24 29 29
53 49 49 49 50 49 48 49 50 50 49 49 48 47 47 53 55 55 54 53 53 51 48 43 41 28 34 31 32 33 32 37 36 37 36 36 33 28 27 22 13 15 15 21 23 25 26
50 49 50 50 50 49 48 49 49 49 49 48 51 52 51 53 53 53 51 48 43 39 40 35 35 32 33 35 35 34 35 34 34 32 29 34 25 24 23 27 26 25 23 24 24 26 27
49 50 49 49 49 49 49 49 49 49 48 51 53 55 53 54 53 52 48 41 42 39 31 36 35 34 34 36 32 35 36 32 32 28 31 29 26 28 29 29 28 27 26 24 25 27 27
50 50 50 50 50 50 50 50 49 48 48 50 53 53 53 53 51 48 45 44 45 39 30 34 35 35 35 36 34 34 35 36 34 32 32 30 26 33 32 30 29 28 25 25 25 28 29
50 50 50 50 50 50 49 48 50 51 51 49 52 52 50 50 46 46 44 47 45 38 26 30 33 36 36 38 35 40 41 37 36 31 33 32 32 32 31 30 30 24 27 28 28 29 24
51 49 50 50 50 49 49 48 51 51 52 49 50 51 50 48 43 44 46 47 45 32 14 28 35 40 38 37 37 39 42 38 34 33 33 26 32 32 32 31 31 27 29 31 34 32 32
49 50 50 50 50 49 49 49 51 51 51 52 52 50 49 46 44 45 46 44 35 20 8 24 35 34 35 36 37 39 39 41 40 37 36 36 36 36 34 33 31 30 31 33 35 32 22
50 50 51 50 49 50 49 49 50 52 51 50 49 48 46 45 42 46 44 35 21 16 22 25 29 35 33 34 36 37 37 37 35 29 24 33 33 35 36 34 37 36 32 21 18 16 19
50 50 50 50 49 49 50 51 51 50 49 50 48 47 46 45 45 43 36 27 16 23 23 29 31 32 29 32 34 37 37 35 36 36 32 26 21 33 37 36 35 35 33 28 20 21 22
49 49 50 49 48 48 49 50 50 49 51 51 46 43 42 43 45 40 29 20 20 25 28 29 29 27 26 29 30 35 34 30 32 34 27 27 26 31 35 38 38 35 33 37 31 32 22
48 48 48 48 48 48 48 49 50 50 52 51 41 39 39 43 43 36 30 25 26 29 32 31 25 26 23 26 26 28 29 32 32 33 34 30 28 32 34 37 39 37 37 31 29 23 20
48 48 48 47 47 47 48 49 50 51 52 46 39 34 39 43 40 33 25 25 29 31 33 30 28 26 27 27 28 27 29 32 34 33 34 32 30 28 31 29 28 30 29 31 28 30 22
46 47 47 48 48 48 48 49 49 51 51 42 36 29 39 41 31 29 28 31 36 33 34 33 31 29 28 28 27 27 28 29 34 34 30 32 29 25 26 30 31 30 29 27 23 22 26
50 47 47 47 48 49 50 50 50 50 50 39 34 33 39 37 26 27 30 31 33 33 33 31 30 30 30 28 26 29 29 32 35 33 30 30 26 19 16 19 26 28 27 28 27 27 23
51 52 48 48 48 50 50 50 50 51 51 40 33 28 33 34 33 27 29 27 27 33 33 32 31 30 28 26 28 27 28 31 33 32 39 33 27 22 16 20 26 25 25 27 25 19 23
51 51 52 49 49 49 50 49 50 50 50 40 34 30 32 26 29 28 28 30 29 28 32 32 29 31 30 26 28 28 29 29 30 34 33 29 23 22 25 27 26 24 23 26 22 25 20
50 51 50 52 50 50 50 50 50 50 48 40 34 32 32 30 30 28 30 29 28 29 31 29 30 32 31 27 28 27 30 28 28 30 29 29 23 26 24 24 23 21 22 24 26 27 27
48 50 50 49 49 50 49 47 47 47 46 40 39 36 33 30 28 26 27 30 31 33 32 33 34 32 30 31 33 32 31 31 31 28 28 27 25 24 20 22 19 15 20 22 25 27 27
46 48 49 50 50 49 48 49 49 47 44 41 39 36 32 28 29 28 29 30 32 33 32 33 34 31 33 35 34 33 31 31 31 29 29 27 24 24 19 15 0 10 25 23 23 25 29
45 46 47 49 50 50 50 50 49 48 45 39 38 37 33 28 29 28 28 29 32 32 32 34 35 35 35 33 28 23 21 22 25 28 28 28 25 20 15 14 10 16 23 24 24 19 28
46 45 46 47 49 50 51 50 50 48 45 37 37 38 36 30 27 29 30 29 29 28 30 33 36 36 34 32 26 20 15 18 16 17 28 28 25 20 19 12 1 2 22 26 20 12 21
46 46 45 46 48 50 51 51 50 48 47 37 36 37 36 31 31 31 30 30 33 30 31 32 32 32 33 29 27 24 21 22 18 18 19 23 23 21 19 17 16 17 26 24 8 -4 27
47 46 46 46 48 50 49 51 51 49 46 40 37 39 37 32 32 33 33 32 33 33 31 32 30 29 32 27 27 25 23 22 21 22 20 18 18 19 20 17 10 26 25 18 14 28 30
47 46 47 47 48 51 51 50 51 51 48 43 39 38 39 35 33 35 35 34 34 34 35 33 31 31 33 30 28 27 25 24 21 19 22 19 21 17 20 19 21 27 25 26 28 30 30